Wetterdaten: Montag, 19.12.2016
Datum Zeit Temp. A. Feuchte A. Luftdruck Regen Wind Richtung Richtung Sonnenschein ET UV Solar Taupunkt Windchill Windben Empfang
19.12.2016 00:00 0,1 C 98 % 1031,9 hPa 0,0 l/m 0,0 km/h (0 Bft) S 188 0 min 0,000 mm 0,0 UV-I 0 W/m -0,2 C 0,1 C 0,0 km/h (0 Bft) 100,00 %
19.12.2016 00:02 0,1 C 98 % 1031,9 hPa 0,0 l/m 0,0 km/h (0 Bft) S 188 0 min 0,000 mm 0,0 UV-I 0 W/m -0,2 C 0,1 C 0,0 km/h (0 Bft) 97,30 %
19.12.2016 00:04 0,1 C 98 % 1031,8 hPa 0,0 l/m 0,0 km/h (0 Bft) S 188 0 min 0,000 mm 0,0 UV-I 0 W/m -0,2 C 0,1 C 0,0 km/h (0 Bft) 100,00 %
19.12.2016 00:06 0,1 C 98 % 1031,8 hPa 0,0 l/m 0,0 km/h (0 Bft) S 188 0 min 0,000 mm 0,0 UV-I 0 W/m -0,2 C 0,1 C 0,0 km/h (0 Bft) 100,00 %
19.12.2016 00:08 0,1 C 98 % 1031,8 hPa 0,0 l/m 0,0 km/h (0 Bft) S 188 0 min 0,000 mm 0,0 UV-I 0 W/m -0,2 C 0,1 C 0,0 km/h (0 Bft) 100,00 %
19.12.2016 00:10 0,1 C 98 % 1031,8 hPa 0,0 l/m 0,0 km/h (0 Bft) S 188 0 min 0,000 mm 0,0 UV-I 0 W/m -0,2 C 0,1 C 0,0 km/h (0 Bft) 100,00 %
19.12.2016 00:12 0,1 C 98 % 1031,8 hPa 0,0 l/m 0,0 km/h (0 Bft) S 188 0 min 0,000 mm 0,0 UV-I 0 W/m -0,2 C 0,1 C 0,0 km/h (0 Bft) 97,37 %
19.12.2016 00:14 0,1 C 98 % 1031,9 hPa 0,0 l/m 0,0 km/h (0 Bft) S 188 0 min 0,000 mm 0,0 UV-I 0 W/m -0,2 C 0,1 C 0,0 km/h (0 Bft) 100,00 %
19.12.2016 00:16 0,1 C 98 % 1031,8 hPa 0,0 l/m 0,0 km/h (0 Bft) S 188 0 min 0,000 mm 0,0 UV-I 0 W/m -0,2 C 0,1 C 0,0 km/h (0 Bft) 100,00 %
19.12.2016 00:18 0,1 C 98 % 1031,8 hPa 0,0 l/m 0,0 km/h (0 Bft) S 188 0 min 0,000 mm 0,0 UV-I 0 W/m -0,2 C 0,1 C 0,0 km/h (0 Bft) 100,00 %
19.12.2016 00:20 0,1 C 98 % 1031,8 hPa 0,0 l/m 0,0 km/h (0 Bft) S 188 0 min 0,000 mm 0,0 UV-I 0 W/m -0,2 C 0,1 C 0,0 km/h (0 Bft) 100,00 %
19.12.2016 00:22 0,0 C 98 % 1031,7 hPa 0,0 l/m 0,0 km/h (0 Bft) S 188 0 min 0,000 mm 0,0 UV-I 0 W/m -0,3 C 0,0 C 0,0 km/h (0 Bft) 100,00 %
19.12.2016 00:24 0,0 C 98 % 1031,7 hPa 0,0 l/m 0,0 km/h (0 Bft) S 188 0 min 0,000 mm 0,0 UV-I 0 W/m -0,3 C 0,0 C 0,0 km/h (0 Bft) 100,00 %
19.12.2016 00:26 0,0 C 98 % 1031,7 hPa 0,0 l/m 1,5 km/h (1 Bft) S 188 0 min 0,000 mm 0,0 UV-I 0 W/m -0,3 C 0,0 C 3,2 km/h (1 Bft) 100,00 %
19.12.2016 00:28 0,0 C 98 % 1031,7 hPa 0,0 l/m 3,5 km/h (1 Bft) S 188 0 min 0,000 mm 0,0 UV-I 0 W/m -0,3 C 0,0 C 4,8 km/h (1 Bft) 97,73 %
19.12.2016 00:30 0,0 C 98 % 1031,7 hPa 0,0 l/m 3,3 km/h (1 Bft) O 99 0 min 0,000 mm 0,0 UV-I 0 W/m -0,3 C 0,0 C 4,8 km/h (1 Bft) 100,00 %
19.12.2016 00:32 0,0 C 98 % 1031,7 hPa 0,0 l/m 3,3 km/h (1 Bft) O-NO 68 0 min 0,000 mm 0,0 UV-I 0 W/m -0,3 C 0,0 C 4,8 km/h (1 Bft) 100,00 %
19.12.2016 00:34 0,0 C 98 % 1031,7 hPa 0,0 l/m 2,8 km/h (1 Bft) O-NO 68 0 min 0,000 mm 0,0 UV-I 0 W/m -0,3 C 0,0 C 3,2 km/h (1 Bft) 97,92 %
19.12.2016 00:36 0,0 C 98 % 1031,7 hPa 0,0 l/m 2,8 km/h (1 Bft) O-NO 68 0 min 0,000 mm 0,0 UV-I 0 W/m -0,3 C 0,0 C 4,8 km/h (1 Bft) 100,00 %
19.12.2016 00:38 0,1 C 98 % 1031,7 hPa 0,0 l/m 2,6 km/h (1 Bft) O-NO 68 0 min 0,000 mm 0,0 UV-I 0 W/m -0,2 C 0,1 C 3,2 km/h (1 Bft) 97,56 %
19.12.2016 00:40 0,1 C 98 % 1031,7 hPa 0,0 l/m 3,1 km/h (1 Bft) O-NO 60 0 min 0,000 mm 0,0 UV-I 0 W/m -0,2 C 0,1 C 4,8 km/h (1 Bft) 100,00 %
19.12.2016 00:42 0,0 C 98 % 1031,7 hPa 0,0 l/m 3,2 km/h (1 Bft) O-NO 60 0 min 0,000 mm 0,0 UV-I 0 W/m -0,3 C 0,0 C 4,8 km/h (1 Bft) 100,00 %
19.12.2016 00:44 0,0 C 98 % 1031,7 hPa 0,0 l/m 2,7 km/h (1 Bft) O-NO 60 0 min 0,000 mm 0,0 UV-I 0 W/m -0,3 C 0,0 C 4,8 km/h (1 Bft) 100,00 %
19.12.2016 00:46 0,0 C 98 % 1031,7 hPa 0,0 l/m 2,2 km/h (1 Bft) O-NO 60 0 min 0,000 mm 0,0 UV-I 0 W/m -0,3 C 0,0 C 3,2 km/h (1 Bft) 97,87 %
19.12.2016 00:48 0,0 C 98 % 1031,7 hPa 0,0 l/m 1,9 km/h (1 Bft) O-NO 60 0 min 0,000 mm 0,0 UV-I 0 W/m -0,3 C 0,0 C 3,2 km/h (1 Bft) 97,44 %
19.12.2016 00:50 0,0 C 98 % 1031,7 hPa 0,0 l/m 2,5 km/h (1 Bft) O-NO 60 0 min 0,000 mm 0,0 UV-I 0 W/m -0,3 C 0,0 C 3,2 km/h (1 Bft) 98,00 %
19.12.2016 00:52 0,0 C 98 % 1031,7 hPa 0,0 l/m 1,4 km/h (1 Bft) O-NO 60 0 min 0,000 mm 0,0 UV-I 0 W/m -0,3 C 0,0 C 3,2 km/h (1 Bft) 96,00 %
19.12.2016 00:54 0,0 C 98 % 1031,6 hPa 0,0 l/m 1,5 km/h (1 Bft) O-NO 60 0 min 0,000 mm 0,0 UV-I 0 W/m -0,3 C 0,0 C 3,2 km/h (1 Bft) 98,00 %
19.12.2016 00:56 0,0 C 98 % 1031,6 hPa 0,0 l/m 2,1 km/h (1 Bft) O-NO 60 0 min 0,000 mm 0,0 UV-I 0 W/m -0,3 C 0,0 C 3,2 km/h (1 Bft) 97,56 %
19.12.2016 00:58 0,1 C 98 % 1031,6 hPa 0,0 l/m 2,2 km/h (1 Bft) O-NO 60 0 min 0,000 mm 0,0 UV-I 0 W/m -0,2 C 0,1 C 3,2 km/h (1 Bft) 95,74 %
19.12.2016 01:00 0,1 C 98 % 1031,6 hPa 0,0 l/m 1,1 km/h (1 Bft) O-NO 60 0 min 0,000 mm 0,0 UV-I 0 W/m -0,2 C 0,1 C 3,2 km/h (1 Bft) 95,74 %
19.12.2016 01:02 0,0 C 98 % 1031,6 hPa 0,0 l/m 0,5 km/h (0 Bft) O-NO 60 0 min 0,000 mm 0,0 UV-I 0 W/m -0,3 C 0,0 C 3,2 km/h (1 Bft) 93,62 %
19.12.2016 01:04 0,0 C 98 % 1031,6 hPa 0,0 l/m 2,1 km/h (1 Bft) O-NO 60 0 min 0,000 mm 0,0 UV-I 0 W/m -0,3 C 0,0 C 3,2 km/h (1 Bft) 98,00 %
19.12.2016 01:06 0,1 C 98 % 1031,6 hPa 0,0 l/m 2,0 km/h (1 Bft) O-NO 60 0 min 0,000 mm 0,0 UV-I 0 W/m -0,2 C 0,1 C 3,2 km/h (1 Bft) 95,12 %
19.12.2016 01:08 0,0 C 98 % 1031,6 hPa 0,0 l/m 2,9 km/h (1 Bft) O-NO 60 0 min 0,000 mm 0,0 UV-I 0 W/m -0,3 C 0,0 C 4,8 km/h (1 Bft) 97,87 %
19.12.2016 01:10 0,0 C 98 % 1031,5 hPa 0,0 l/m 3,5 km/h (1 Bft) O-NO 60 0 min 0,000 mm 0,0 UV-I 0 W/m -0,3 C 0,0 C 4,8 km/h (1 Bft) 96,00 %
19.12.2016 01:12 0,0 C 98 % 1031,5 hPa 0,0 l/m 3,5 km/h (1 Bft) O-NO 61 0 min 0,000 mm 0,0 UV-I 0 W/m -0,3 C 0,0 C 4,8 km/h (1 Bft) 100,00 %
19.12.2016 01:14 0,0 C 98 % 1031,5 hPa 0,0 l/m 2,5 km/h (1 Bft) O-NO 61 0 min 0,000 mm 0,0 UV-I 0 W/m -0,3 C 0,0 C 3,2 km/h (1 Bft) 97,65 %
19.12.2016 01:16 0,0 C 98 % 1031,6 hPa 0,0 l/m 2,4 km/h (1 Bft) O-NO 61 0 min 0,000 mm 0,0 UV-I 0 W/m -0,3 C 0,0 C 3,2 km/h (1 Bft) 97,56 %
19.12.2016 01:18 0,0 C 98 % 1031,6 hPa 0,0 l/m 3,1 km/h (1 Bft) O-NO 61 0 min 0,000 mm 0,0 UV-I 0 W/m -0,3 C 0,0 C 4,8 km/h (1 Bft) 98,00 %
19.12.2016 01:20 0,0 C 98 % 1031,6 hPa 0,0 l/m 3,6 km/h (1 Bft) O-NO 61 0 min 0,000 mm 0,0 UV-I 0 W/m -0,3 C 0,0 C 4,8 km/h (1 Bft) 95,74 %
19.12.2016 01:22 0,0 C 98 % 1031,6 hPa 0,0 l/m 3,5 km/h (1 Bft) O-NO 62 0 min 0,000 mm 0,0 UV-I 0 W/m -0,3 C 0,0 C 4,8 km/h (1 Bft) 97,87 %
19.12.2016 01:24 0,0 C 98 % 1031,6 hPa 0,0 l/m 3,1 km/h (1 Bft) O-NO 70 0 min 0,000 mm 0,0 UV-I 0 W/m -0,3 C 0,0 C 4,8 km/h (1 Bft) 97,62 %
19.12.2016 01:26 0,0 C 98 % 1031,6 hPa 0,0 l/m 2,4 km/h (1 Bft) O-NO 70 0 min 0,000 mm 0,0 UV-I 0 W/m -0,3 C 0,0 C 4,8 km/h (1 Bft) 100,00 %
19.12.2016 01:28 0,0 C 98 % 1031,6 hPa 0,0 l/m 3,3 km/h (1 Bft) O-NO 70 0 min 0,000 mm 0,0 UV-I 0 W/m -0,3 C 0,0 C 4,8 km/h (1 Bft) 100,00 %
19.12.2016 01:30 0,0 C 98 % 1031,6 hPa 0,0 l/m 2,7 km/h (1 Bft) O-NO 70 0 min 0,000 mm 0,0 UV-I 0 W/m -0,3 C 0,0 C 4,8 km/h (1 Bft) 100,00 %
19.12.2016 01:32 0,0 C 98 % 1031,6 hPa 0,0 l/m 1,8 km/h (1 Bft) O-NO 70 0 min 0,000 mm 0,0 UV-I 0 W/m -0,3 C 0,0 C 3,2 km/h (1 Bft) 100,00 %
19.12.2016 01:34 -0,1 C 98 % 1031,6 hPa 0,0 l/m 2,3 km/h (1 Bft) O-NO 70 0 min 0,000 mm 0,0 UV-I 0 W/m -0,4 C -0,1 C 3,2 km/h (1 Bft) 100,00 %
19.12.2016 01:36 -0,1 C 98 % 1031,6 hPa 0,0 l/m 1,6 km/h (1 Bft) O-NO 70 0 min 0,000 mm 0,0 UV-I 0 W/m -0,4 C -0,1 C 3,2 km/h (1 Bft) 100,00 %
19.12.2016 01:38 -0,1 C 98 % 1031,5 hPa 0,0 l/m 2,0 km/h (1 Bft) O-NO 70 0 min 0,000 mm 0,0 UV-I 0 W/m -0,4 C -0,1 C 3,2 km/h (1 Bft) 100,00 %
19.12.2016 01:40 -0,1 C 98 % 1031,6 hPa 0,0 l/m 1,6 km/h (1 Bft) O-NO 70 0 min 0,000 mm 0,0 UV-I 0 W/m -0,4 C -0,1 C 3,2 km/h (1 Bft) 100,00 %
19.12.2016 01:42 -0,1 C 98 % 1031,6 hPa 0,0 l/m 2,7 km/h (1 Bft) O-NO 70 0 min 0,000 mm 0,0 UV-I 0 W/m -0,4 C -0,1 C 3,2 km/h (1 Bft) 100,00 %
19.12.2016 01:44 -0,1 C 98 % 1031,6 hPa 0,0 l/m 1,6 km/h (1 Bft) O-NO 70 0 min 0,000 mm 0,0 UV-I 0 W/m -0,4 C -0,1 C 3,2 km/h (1 Bft) 100,00 %
19.12.2016 01:46 -0,1 C 98 % 1031,6 hPa 0,0 l/m 1,9 km/h (1 Bft) O-NO 70 0 min 0,000 mm 0,0 UV-I 0 W/m -0,4 C -0,1 C 4,8 km/h (1 Bft) 100,00 %
19.12.2016 01:48 0,0 C 98 % 1031,6 hPa 0,0 l/m 1,8 km/h (1 Bft) O-NO 70 0 min 0,000 mm 0,0 UV-I 0 W/m -0,3 C 0,0 C 3,2 km/h (1 Bft) 100,00 %
19.12.2016 01:50 -0,1 C 98 % 1031,6 hPa 0,0 l/m 2,6 km/h (1 Bft) O-NO 70 0 min 0,000 mm 0,0 UV-I 0 W/m -0,4 C -0,1 C 3,2 km/h (1 Bft) 100,00 %
19.12.2016 01:52 -0,1 C 98 % 1031,5 hPa 0,0 l/m 2,4 km/h (1 Bft) O-NO 70 0 min 0,000 mm 0,0 UV-I 0 W/m -0,4 C -0,1 C 3,2 km/h (1 Bft) 97,73 %
19.12.2016 01:54 0,0 C 98 % 1031,5 hPa 0,0 l/m 2,1 km/h (1 Bft) O-NO 70 0 min 0,000 mm 0,0 UV-I 0 W/m -0,3 C 0,0 C 3,2 km/h (1 Bft) 100,00 %
19.12.2016 01:56 -0,1 C 98 % 1031,5 hPa 0,0 l/m 2,8 km/h (1 Bft) O-NO 70 0 min 0,000 mm 0,0 UV-I 0 W/m -0,4 C -0,1 C 3,2 km/h (1 Bft) 100,00 %
19.12.2016 01:58 -0,1 C 98 % 1031,4 hPa 0,0 l/m 2,9 km/h (1 Bft) O-NO 69 0 min 0,000 mm 0,0 UV-I 0 W/m -0,4 C -0,1 C 4,8 km/h (1 Bft) 100,00 %
19.12.2016 02:00 -0,1 C 98 % 1031,4 hPa 0,0 l/m 3,0 km/h (1 Bft) O-NO 69 0 min 0,000 mm 0,0 UV-I 0 W/m -0,4 C -0,1 C 4,8 km/h (1 Bft) 100,00 %
19.12.2016 02:02 -0,1 C 98 % 1031,5 hPa 0,0 l/m 2,4 km/h (1 Bft) O-NO 69 0 min 0,000 mm 0,0 UV-I 0 W/m -0,4 C -0,1 C 4,8 km/h (1 Bft) 98,00 %
19.12.2016 02:04 -0,1 C 98 % 1031,5 hPa 0,0 l/m 3,1 km/h (1 Bft) O-NO 69 0 min 0,000 mm 0,0 UV-I 0 W/m -0,4 C -0,1 C 4,8 km/h (1 Bft) 100,00 %
19.12.2016 02:06 -0,1 C 98 % 1031,5 hPa 0,0 l/m 1,9 km/h (1 Bft) O-NO 69 0 min 0,000 mm 0,0 UV-I 0 W/m -0,4 C -0,1 C 4,8 km/h (1 Bft) 100,00 %
19.12.2016 02:08 -0,1 C 98 % 1031,5 hPa 0,0 l/m 2,0 km/h (1 Bft) O-NO 69 0 min 0,000 mm 0,0 UV-I 0 W/m -0,4 C -0,1 C 3,2 km/h (1 Bft) 100,00 %
19.12.2016 02:10 -0,1 C 98 % 1031,6 hPa 0,0 l/m 2,5 km/h (1 Bft) O-NO 69 0 min 0,000 mm 0,0 UV-I 0 W/m -0,4 C -0,1 C 3,2 km/h (1 Bft) 100,00 %
19.12.2016 02:12 -0,1 C 98 % 1031,6 hPa 0,0 l/m 1,8 km/h (1 Bft) O-NO 69 0 min 0,000 mm 0,0 UV-I 0 W/m -0,4 C -0,1 C 3,2 km/h (1 Bft) 100,00 %
19.12.2016 02:14 -0,1 C 98 % 1031,6 hPa 0,0 l/m 2,1 km/h (1 Bft) O-NO 69 0 min 0,000 mm 0,0 UV-I 0 W/m -0,4 C -0,1 C 3,2 km/h (1 Bft) 100,00 %
19.12.2016 02:16 -0,1 C 98 % 1031,6 hPa 0,0 l/m 1,4 km/h (1 Bft) O-NO 69 0 min 0,000 mm 0,0 UV-I 0 W/m -0,4 C -0,1 C 1,6 km/h (1 Bft) 100,00 %
19.12.2016 02:18 -0,1 C 98 % 1031,6 hPa 0,0 l/m 2,2 km/h (1 Bft) O-NO 69 0 min 0,000 mm 0,0 UV-I 0 W/m -0,4 C -0,1 C 3,2 km/h (1 Bft) 100,00 %
19.12.2016 02:20 -0,1 C 98 % 1031,5 hPa 0,0 l/m 2,3 km/h (1 Bft) O-NO 69 0 min 0,000 mm 0,0 UV-I 0 W/m -0,4 C -0,1 C 3,2 km/h (1 Bft) 100,00 %
19.12.2016 02:22 -0,1 C 98 % 1031,5 hPa 0,0 l/m 2,8 km/h (1 Bft) O-NO 69 0 min 0,000 mm 0,0 UV-I 0 W/m -0,4 C -0,1 C 4,8 km/h (1 Bft) 96,23 %
19.12.2016 02:24 -0,1 C 98 % 1031,5 hPa 0,0 l/m 2,5 km/h (1 Bft) O-NO 69 0 min 0,000 mm 0,0 UV-I 0 W/m -0,4 C -0,1 C 4,8 km/h (1 Bft) 100,00 %
19.12.2016 02:26 -0,1 C 98 % 1031,5 hPa 0,0 l/m 2,0 km/h (1 Bft) O-NO 69 0 min 0,000 mm 0,0 UV-I 0 W/m -0,4 C -0,1 C 4,8 km/h (1 Bft) 100,00 %
19.12.2016 02:28 -0,1 C 98 % 1031,5 hPa 0,0 l/m 4,1 km/h (1 Bft) O-NO 69 0 min 0,000 mm 0,0 UV-I 0 W/m -0,4 C -0,1 C 6,4 km/h (2 Bft) 97,56 %
19.12.2016 02:30 -0,1 C 98 % 1031,5 hPa 0,0 l/m 3,1 km/h (1 Bft) O-NO 69 0 min 0,000 mm 0,0 UV-I 0 W/m -0,4 C -0,1 C 4,8 km/h (1 Bft) 100,00 %
19.12.2016 02:32 -0,1 C 98 % 1031,5 hPa 0,0 l/m 3,5 km/h (1 Bft) O-NO 69 0 min 0,000 mm 0,0 UV-I 0 W/m -0,4 C -0,1 C 4,8 km/h (1 Bft) 100,00 %
19.12.2016 02:34 -0,1 C 98 % 1031,5 hPa 0,0 l/m 3,7 km/h (1 Bft) O-NO 69 0 min 0,000 mm 0,0 UV-I 0 W/m -0,4 C -0,1 C 6,4 km/h (2 Bft) 100,00 %
19.12.2016 02:36 -0,1 C 98 % 1031,5 hPa 0,0 l/m 3,9 km/h (1 Bft) O-NO 67 0 min 0,000 mm 0,0 UV-I 0 W/m -0,4 C -0,1 C 4,8 km/h (1 Bft) 100,00 %
19.12.2016 02:38 -0,1 C 98 % 1031,5 hPa 0,0 l/m 4,8 km/h (1 Bft) O-NO 64 0 min 0,000 mm 0,0 UV-I 0 W/m -0,4 C -0,1 C 6,4 km/h (2 Bft) 100,00 %
19.12.2016 02:40 -0,1 C 98 % 1031,5 hPa 0,0 l/m 4,2 km/h (1 Bft) NO 55 0 min 0,000 mm 0,0 UV-I 0 W/m -0,4 C -0,1 C 6,4 km/h (2 Bft) 98,00 %
19.12.2016 02:42 -0,1 C 98 % 1031,5 hPa 0,0 l/m 4,4 km/h (1 Bft) NO 50 0 min 0,000 mm 0,0 UV-I 0 W/m -0,4 C -0,1 C 6,4 km/h (2 Bft) 100,00 %
19.12.2016 02:44 -0,1 C 98 % 1031,5 hPa 0,0 l/m 3,9 km/h (1 Bft) O-NO 57 0 min 0,000 mm 0,0 UV-I 0 W/m -0,4 C -0,1 C 6,4 km/h (2 Bft) 100,00 %
19.12.2016 02:46 -0,1 C 98 % 1031,5 hPa 0,0 l/m 3,6 km/h (1 Bft) O-NO 57 0 min 0,000 mm 0,0 UV-I 0 W/m -0,4 C -0,1 C 6,4 km/h (2 Bft) 97,87 %
19.12.2016 02:48 -0,1 C 98 % 1031,5 hPa 0,0 l/m 3,2 km/h (1 Bft) O-NO 57 0 min 0,000 mm 0,0 UV-I 0 W/m -0,4 C -0,1 C 4,8 km/h (1 Bft) 100,00 %
19.12.2016 02:50 -0,1 C 98 % 1031,5 hPa 0,0 l/m 3,1 km/h (1 Bft) O-NO 57 0 min 0,000 mm 0,0 UV-I 0 W/m -0,4 C -0,1 C 4,8 km/h (1 Bft) 98,11 %
19.12.2016 02:52 -0,1 C 98 % 1031,5 hPa 0,0 l/m 3,6 km/h (1 Bft) O-NO 57 0 min 0,000 mm 0,0 UV-I 0 W/m -0,4 C -0,1 C 4,8 km/h (1 Bft) 97,87 %
19.12.2016 02:54 -0,1 C 98 % 1031,4 hPa 0,0 l/m 3,9 km/h (1 Bft) O-NO 57 0 min 0,000 mm 0,0 UV-I 0 W/m -0,4 C -0,1 C 4,8 km/h (1 Bft) 97,56 %
19.12.2016 02:56 -0,1 C 98 % 1031,4 hPa 0,0 l/m 4,0 km/h (1 Bft) O-NO 61 0 min 0,000 mm 0,0 UV-I 0 W/m -0,4 C -0,1 C 6,4 km/h (2 Bft) 98,11 %
19.12.2016 02:58 -0,1 C 98 % 1031,4 hPa 0,0 l/m 5,7 km/h (1 Bft) NO 56 0 min 0,000 mm 0,0 UV-I 0 W/m -0,4 C -0,1 C 6,4 km/h (2 Bft) 94,74 %
19.12.2016 03:00 -0,1 C 98 % 1031,3 hPa 0,0 l/m 3,7 km/h (1 Bft) NO 56 0 min 0,000 mm 0,0 UV-I 0 W/m -0,4 C -0,1 C 4,8 km/h (1 Bft) 98,11 %
19.12.2016 03:02 -0,1 C 98 % 1031,3 hPa 0,0 l/m 3,1 km/h (1 Bft) NO 56 0 min 0,000 mm 0,0 UV-I 0 W/m -0,4 C -0,1 C 4,8 km/h (1 Bft) 95,74 %
19.12.2016 03:04 -0,1 C 98 % 1031,3 hPa 0,0 l/m 3,5 km/h (1 Bft) NO 56 0 min 0,000 mm 0,0 UV-I 0 W/m -0,4 C -0,1 C 6,4 km/h (2 Bft) 93,62 %
19.12.2016 03:06 -0,1 C 98 % 1031,3 hPa 0,0 l/m 4,2 km/h (1 Bft) NO 52 0 min 0,000 mm 0,0 UV-I 0 W/m -0,4 C -0,1 C 6,4 km/h (2 Bft) 97,87 %
19.12.2016 03:08 -0,1 C 98 % 1031,3 hPa 0,0 l/m 4,1 km/h (1 Bft) NO 50 0 min 0,000 mm 0,0 UV-I 0 W/m -0,4 C -0,1 C 6,4 km/h (2 Bft) 92,68 %
19.12.2016 03:10 -0,1 C 98 % 1031,4 hPa 0,0 l/m 4,8 km/h (1 Bft) NO 50 0 min 0,000 mm 0,0 UV-I 0 W/m -0,4 C -0,1 C 6,4 km/h (2 Bft) 97,87 %
19.12.2016 03:12 -0,1 C 98 % 1031,4 hPa 0,0 l/m 5,1 km/h (1 Bft) NO 43 0 min 0,000 mm 0,0 UV-I 0 W/m -0,4 C -0,1 C 6,4 km/h (2 Bft) 96,00 %
19.12.2016 03:14 -0,1 C 98 % 1031,3 hPa 0,0 l/m 6,1 km/h (2 Bft) NO 42 0 min 0,000 mm 0,0 UV-I 0 W/m -0,4 C -0,1 C 8,0 km/h (2 Bft) 95,74 %
19.12.2016 03:16 -0,1 C 98 % 1031,3 hPa 0,0 l/m 4,7 km/h (1 Bft) NO 50 0 min 0,000 mm 0,0 UV-I 0 W/m -0,4 C -0,1 C 6,4 km/h (2 Bft) 97,22 %
19.12.2016 03:18 -0,1 C 98 % 1031,3 hPa 0,0 l/m 5,3 km/h (1 Bft) NO 42 0 min 0,000 mm 0,0 UV-I 0 W/m -0,4 C -0,1 C 6,4 km/h (2 Bft) 94,23 %
19.12.2016 03:20 -0,1 C 98 % 1031,3 hPa 0,0 l/m 5,1 km/h (1 Bft) NO 42 0 min 0,000 mm 0,0 UV-I 0 W/m -0,4 C -0,1 C 8,0 km/h (2 Bft) 96,43 %
19.12.2016 03:22 -0,1 C 98 % 1031,2 hPa 0,0 l/m 5,0 km/h (1 Bft) NO 43 0 min 0,000 mm 0,0 UV-I 0 W/m -0,4 C -0,1 C 6,4 km/h (2 Bft) 97,73 %
19.12.2016 03:24 -0,1 C 98 % 1031,2 hPa 0,0 l/m 6,1 km/h (2 Bft) NO 41 0 min 0,000 mm 0,0 UV-I 0 W/m -0,4 C -0,1 C 8,0 km/h (2 Bft) 97,44 %
19.12.2016 03:26 -0,1 C 98 % 1031,2 hPa 0,0 l/m 5,4 km/h (1 Bft) O-NO 63 0 min 0,000 mm 0,0 UV-I 0 W/m -0,4 C -0,1 C 8,0 km/h (2 Bft) 96,36 %
19.12.2016 03:28 -0,1 C 98 % 1031,2 hPa 0,0 l/m 6,3 km/h (2 Bft) O-NO 57 0 min 0,000 mm 0,0 UV-I 0 W/m -0,4 C -0,1 C 8,0 km/h (2 Bft) 100,00 %
19.12.2016 03:30 -0,1 C 98 % 1031,2 hPa 0,0 l/m 6,3 km/h (2 Bft) O-NO 60 0 min 0,000 mm 0,0 UV-I 0 W/m -0,4 C -0,1 C 8,0 km/h (2 Bft) 100,00 %
19.12.2016 03:32 -0,1 C 98 % 1031,1 hPa 0,0 l/m 5,7 km/h (1 Bft) O-NO 62 0 min 0,000 mm 0,0 UV-I 0 W/m -0,4 C -0,1 C 8,0 km/h (2 Bft) 100,00 %
19.12.2016 03:34 -0,1 C 98 % 1031,1 hPa 0,0 l/m 5,5 km/h (1 Bft) O-NO 69 0 min 0,000 mm 0,0 UV-I 0 W/m -0,4 C -0,1 C 8,0 km/h (2 Bft) 100,00 %
19.12.2016 03:36 -0,1 C 98 % 1031,1 hPa 0,0 l/m 6,6 km/h (2 Bft) O-NO 69 0 min 0,000 mm 0,0 UV-I 0 W/m -0,4 C -0,3 C 9,7 km/h (2 Bft) 100,00 %
19.12.2016 03:38 -0,1 C 98 % 1031,1 hPa 0,0 l/m 6,5 km/h (2 Bft) O-NO 67 0 min 0,000 mm 0,0 UV-I 0 W/m -0,4 C -0,2 C 8,0 km/h (2 Bft) 100,00 %
19.12.2016 03:40 -0,2 C 98 % 1031,1 hPa 0,0 l/m 5,4 km/h (1 Bft) O-NO 65 0 min 0,000 mm 0,0 UV-I 0 W/m -0,5 C -0,2 C 9,7 km/h (2 Bft) 98,11 %
19.12.2016 03:42 -0,2 C 98 % 1031,1 hPa 0,0 l/m 7,0 km/h (2 Bft) NO 45 0 min 0,000 mm 0,0 UV-I 0 W/m -0,5 C -0,8 C 8,0 km/h (2 Bft) 100,00 %
19.12.2016 03:44 -0,1 C 98 % 1031,1 hPa 0,0 l/m 6,1 km/h (2 Bft) O-NO 58 0 min 0,000 mm 0,0 UV-I 0 W/m -0,4 C -0,1 C 8,0 km/h (2 Bft) 100,00 %
19.12.2016 03:46 -0,2 C 98 % 1031,0 hPa 0,0 l/m 6,3 km/h (2 Bft) O-NO 62 0 min 0,000 mm 0,0 UV-I 0 W/m -0,5 C -0,2 C 8,0 km/h (2 Bft) 100,00 %
19.12.2016 03:48 -0,2 C 98 % 1031,0 hPa 0,0 l/m 5,3 km/h (1 Bft) NO 51 0 min 0,000 mm 0,0 UV-I 0 W/m -0,5 C -0,2 C 6,4 km/h (2 Bft) 100,00 %
19.12.2016 03:50 -0,2 C 98 % 1031,0 hPa 0,0 l/m 7,4 km/h (2 Bft) O-NO 59 0 min 0,000 mm 0,0 UV-I 0 W/m -0,5 C -1,2 C 11,3 km/h (2 Bft) 96,61 %
19.12.2016 03:52 -0,2 C 98 % 1031,0 hPa 0,0 l/m 6,1 km/h (2 Bft) O-NO 63 0 min 0,000 mm 0,0 UV-I 0 W/m -0,5 C -0,2 C 8,0 km/h (2 Bft) 100,00 %
19.12.2016 03:54 -0,2 C 98 % 1030,9 hPa 0,0 l/m 4,7 km/h (1 Bft) NO 53 0 min 0,000 mm 0,0 UV-I 0 W/m -0,5 C -0,2 C 6,4 km/h (2 Bft) 100,00 %
19.12.2016 03:56 -0,2 C 98 % 1030,9 hPa 0,0 l/m 4,5 km/h (1 Bft) NO 36 0 min 0,000 mm 0,0 UV-I 0 W/m -0,5 C -0,2 C 8,0 km/h (2 Bft) 100,00 %
19.12.2016 03:58 -0,2 C 98 % 1030,9 hPa 0,0 l/m 6,0 km/h (2 Bft) O-NO 58 0 min 0,000 mm 0,0 UV-I 0 W/m -0,5 C -0,2 C 8,0 km/h (2 Bft) 100,00 %
19.12.2016 04:00 -0,1 C 98 % 1030,8 hPa 0,0 l/m 5,3 km/h (1 Bft) NO 46 0 min 0,000 mm 0,0 UV-I 0 W/m -0,4 C -0,1 C 8,0 km/h (2 Bft) 98,00 %
19.12.2016 04:02 -0,2 C 98 % 1030,8 hPa 0,0 l/m 3,5 km/h (1 Bft) NO 38 0 min 0,000 mm 0,0 UV-I 0 W/m -0,5 C -0,2 C 6,4 km/h (2 Bft) 100,00 %
19.12.2016 04:04 -0,2 C 98 % 1030,7 hPa 0,0 l/m 4,6 km/h (1 Bft) NO 51 0 min 0,000 mm 0,0 UV-I 0 W/m -0,5 C -0,2 C 6,4 km/h (2 Bft) 100,00 %
19.12.2016 04:06 -0,2 C 98 % 1030,7 hPa 0,0 l/m 6,3 km/h (2 Bft) NO 52 0 min 0,000 mm 0,0 UV-I 0 W/m -0,5 C -0,2 C 8,0 km/h (2 Bft) 100,00 %
19.12.2016 04:08 -0,2 C 98 % 1030,6 hPa 0,0 l/m 5,0 km/h (1 Bft) N-NO 27 0 min 0,000 mm 0,0 UV-I 0 W/m -0,5 C -0,2 C 6,4 km/h (2 Bft) 98,11 %
19.12.2016 04:10 -0,2 C 98 % 1030,6 hPa 0,0 l/m 5,5 km/h (1 Bft) O-NO 62 0 min 0,000 mm 0,0 UV-I 0 W/m -0,5 C -0,2 C 8,0 km/h (2 Bft) 100,00 %
19.12.2016 04:12 -0,2 C 98 % 1030,6 hPa 0,0 l/m 4,8 km/h (1 Bft) O-NO 57 0 min 0,000 mm 0,0 UV-I 0 W/m -0,5 C -0,2 C 6,4 km/h (2 Bft) 100,00 %
19.12.2016 04:14 -0,2 C 98 % 1030,6 hPa 0,0 l/m 3,0 km/h (1 Bft) NO 51 0 min 0,000 mm 0,0 UV-I 0 W/m -0,5 C -0,2 C 4,8 km/h (1 Bft) 97,87 %
19.12.2016 04:16 -0,2 C 98 % 1030,6 hPa 0,0 l/m 3,5 km/h (1 Bft) NO 51 0 min 0,000 mm 0,0 UV-I 0 W/m -0,5 C -0,2 C 4,8 km/h (1 Bft) 97,56 %
19.12.2016 04:18 -0,2 C 98 % 1030,6 hPa 0,0 l/m 2,7 km/h (1 Bft) N-NO 23 0 min 0,000 mm 0,0 UV-I 0 W/m -0,5 C -0,2 C 4,8 km/h (1 Bft) 97,56 %
19.12.2016 04:20 -0,2 C 98 % 1030,6 hPa 0,0 l/m 4,3 km/h (1 Bft) NO 42 0 min 0,000 mm 0,0 UV-I 0 W/m -0,5 C -0,2 C 6,4 km/h (2 Bft) 100,00 %
19.12.2016 04:22 -0,2 C 98 % 1030,6 hPa 0,0 l/m 5,0 km/h (1 Bft) N-NO 24 0 min 0,000 mm 0,0 UV-I 0 W/m -0,5 C -0,2 C 6,4 km/h (2 Bft) 98,00 %
19.12.2016 04:24 -0,2 C 98 % 1030,6 hPa 0,0 l/m 4,9 km/h (1 Bft) NO 34 0 min 0,000 mm 0,0 UV-I 0 W/m -0,5 C -0,2 C 12,9 km/h (3 Bft) 100,00 %
19.12.2016 04:26 -0,2 C 98 % 1030,6 hPa 0,0 l/m 7,4 km/h (2 Bft) N-NO 28 0 min 0,000 mm 0,0 UV-I 0 W/m -0,5 C -1,2 C 9,7 km/h (2 Bft) 100,00 %
19.12.2016 04:28 -0,2 C 98 % 1030,6 hPa 0,0 l/m 7,1 km/h (2 Bft) N-NO 29 0 min 0,000 mm 0,0 UV-I 0 W/m -0,5 C -0,9 C 11,3 km/h (2 Bft) 98,39 %
19.12.2016 04:30 -0,2 C 98 % 1030,6 hPa 0,0 l/m 5,0 km/h (1 Bft) N-NO 22 0 min 0,000 mm 0,0 UV-I 0 W/m -0,5 C -0,2 C 8,0 km/h (2 Bft) 100,00 %
19.12.2016 04:32 -0,2 C 98 % 1030,6 hPa 0,0 l/m 3,6 km/h (1 Bft) N-NO 24 0 min 0,000 mm 0,0 UV-I 0 W/m -0,5 C -0,2 C 6,4 km/h (2 Bft) 98,57 %
19.12.2016 04:34 -0,2 C 98 % 1030,6 hPa 0,0 l/m 3,3 km/h (1 Bft) N-NO 20 0 min 0,000 mm 0,0 UV-I 0 W/m -0,5 C -0,2 C 6,4 km/h (2 Bft) 100,00 %
19.12.2016 04:36 -0,2 C 98 % 1030,6 hPa 0,0 l/m 6,0 km/h (2 Bft) N-NO 14 0 min 0,000 mm 0,0 UV-I 0 W/m -0,5 C -0,2 C 11,3 km/h (2 Bft) 100,00 %
19.12.2016 04:38 -0,2 C 98 % 1030,6 hPa 0,0 l/m 5,8 km/h (2 Bft) N-NO 26 0 min 0,000 mm 0,0 UV-I 0 W/m -0,5 C -0,2 C 8,0 km/h (2 Bft) 98,21 %
19.12.2016 04:40 -0,2 C 98 % 1030,6 hPa 0,0 l/m 5,2 km/h (1 Bft) NO 38 0 min 0,000 mm 0,0 UV-I 0 W/m -0,5 C -0,2 C 8,0 km/h (2 Bft) 100,00 %
19.12.2016 04:43 -0,2 C 98 % 1030,6 hPa 0,0 l/m 6,2 km/h (2 Bft) N-NO 28 0 min 0,000 mm 0,0 UV-I 0 W/m -0,5 C -0,2 C 11,3 km/h (2 Bft) 100,00 %
19.12.2016 04:44 -0,2 C 98 % 1030,6 hPa 0,0 l/m 4,4 km/h (1 Bft) N-NO 26 0 min 0,000 mm 0,0 UV-I 0 W/m -0,5 C -0,2 C 8,0 km/h (2 Bft) 100,00 %
19.12.2016 04:46 -0,2 C 98 % 1030,7 hPa 0,0 l/m 5,8 km/h (2 Bft) NO 48 0 min 0,000 mm 0,0 UV-I 0 W/m -0,5 C -0,2 C 9,7 km/h (2 Bft) 97,87 %
19.12.2016 04:48 -0,2 C 98 % 1030,6 hPa 0,0 l/m 5,9 km/h (2 Bft) NO 43 0 min 0,000 mm 0,0 UV-I 0 W/m -0,5 C -0,2 C 8,0 km/h (2 Bft) 100,00 %
19.12.2016 04:50 -0,2 C 98 % 1030,7 hPa 0,0 l/m 5,2 km/h (1 Bft) NO 52 0 min 0,000 mm 0,0 UV-I 0 W/m -0,5 C -0,2 C 9,7 km/h (2 Bft) 96,43 %
19.12.2016 04:53 -0,2 C 98 % 1030,6 hPa 0,0 l/m 7,2 km/h (2 Bft) NO 52 0 min 0,000 mm 0,0 UV-I 0 W/m -0,5 C -1,0 C 9,7 km/h (2 Bft) 100,00 %
19.12.2016 04:54 -0,2 C 98 % 1030,6 hPa 0,0 l/m 7,4 km/h (2 Bft) O-NO 62 0 min 0,000 mm 0,0 UV-I 0 W/m -0,5 C -1,2 C 9,7 km/h (2 Bft) 100,00 %
19.12.2016 04:56 -0,2 C 98 % 1030,6 hPa 0,0 l/m 5,7 km/h (1 Bft) NO 46 0 min 0,000 mm 0,0 UV-I 0 W/m -0,5 C -0,2 C 8,0 km/h (2 Bft) 94,64 %
19.12.2016 04:58 -0,2 C 98 % 1030,6 hPa 0,0 l/m 6,9 km/h (2 Bft) O-NO 59 0 min 0,000 mm 0,0 UV-I 0 W/m -0,5 C -0,7 C 9,7 km/h (2 Bft) 97,37 %
19.12.2016 05:00 -0,2 C 98 % 1030,6 hPa 0,0 l/m 7,1 km/h (2 Bft) O-NO 60 0 min 0,000 mm 0,0 UV-I 0 W/m -0,5 C -0,9 C 12,9 km/h (3 Bft) 97,87 %
19.12.2016 05:02 -0,2 C 98 % 1030,6 hPa 0,0 l/m 5,2 km/h (1 Bft) NO 40 0 min 0,000 mm 0,0 UV-I 0 W/m -0,5 C -0,2 C 8,0 km/h (2 Bft) 97,87 %
19.12.2016 05:04 -0,1 C 98 % 1030,6 hPa 0,0 l/m 7,1 km/h (2 Bft) O-NO 62 0 min 0,000 mm 0,0 UV-I 0 W/m -0,4 C -0,8 C 11,3 km/h (2 Bft) 98,11 %
19.12.2016 05:06 -0,2 C 98 % 1030,6 hPa 0,0 l/m 8,1 km/h (2 Bft) O-NO 67 0 min 0,000 mm 0,0 UV-I 0 W/m -0,5 C -2,0 C 12,9 km/h (3 Bft) 97,56 %
19.12.2016 05:08 -0,2 C 98 % 1030,6 hPa 0,0 l/m 8,1 km/h (2 Bft) O 85 0 min 0,000 mm 0,0 UV-I 0 W/m -0,5 C -2,0 C 11,3 km/h (2 Bft) 94,34 %
19.12.2016 05:10 -0,1 C 98 % 1030,6 hPa 0,0 l/m 7,8 km/h (2 Bft) NO 56 0 min 0,000 mm 0,0 UV-I 0 W/m -0,4 C -1,6 C 12,9 km/h (3 Bft) 97,56 %
19.12.2016 05:12 -0,1 C 98 % 1030,7 hPa 0,0 l/m 7,9 km/h (2 Bft) NO 54 0 min 0,000 mm 0,0 UV-I 0 W/m -0,4 C -1,7 C 12,9 km/h (3 Bft) 98,00 %
19.12.2016 05:14 -0,1 C 98 % 1030,7 hPa 0,0 l/m 7,7 km/h (2 Bft) NO 37 0 min 0,000 mm 0,0 UV-I 0 W/m -0,4 C -1,5 C 12,9 km/h (3 Bft) 95,74 %
19.12.2016 05:16 -0,1 C 98 % 1030,7 hPa 0,0 l/m 7,8 km/h (2 Bft) O-NO 69 0 min 0,000 mm 0,0 UV-I 0 W/m -0,4 C -1,6 C 12,9 km/h (3 Bft) 97,87 %
19.12.2016 05:18 -0,1 C 98 % 1030,7 hPa 0,0 l/m 5,3 km/h (1 Bft) O-NO 76 0 min 0,000 mm 0,0 UV-I 0 W/m -0,4 C -0,1 C 8,0 km/h (2 Bft) 95,74 %
19.12.2016 05:20 -0,1 C 98 % 1030,7 hPa 0,0 l/m 7,4 km/h (2 Bft) O-NO 59 0 min 0,000 mm 0,0 UV-I 0 W/m -0,4 C -1,1 C 9,7 km/h (2 Bft) 97,62 %
19.12.2016 05:22 -0,1 C 98 % 1030,7 hPa 0,0 l/m 6,2 km/h (2 Bft) O-NO 59 0 min 0,000 mm 0,0 UV-I 0 W/m -0,4 C -0,1 C 9,7 km/h (2 Bft) 98,08 %
19.12.2016 05:24 -0,1 C 98 % 1030,7 hPa 0,0 l/m 5,8 km/h (2 Bft) O-NO 58 0 min 0,000 mm 0,0 UV-I 0 W/m -0,4 C -0,1 C 8,0 km/h (2 Bft) 97,44 %
19.12.2016 05:26 -0,1 C 98 % 1030,7 hPa 0,0 l/m 6,1 km/h (2 Bft) NO 47 0 min 0,000 mm 0,0 UV-I 0 W/m -0,4 C -0,1 C 8,0 km/h (2 Bft) 96,55 %
19.12.2016 05:28 -0,1 C 98 % 1030,7 hPa 0,0 l/m 6,4 km/h (2 Bft) NO 49 0 min 0,000 mm 0,0 UV-I 0 W/m -0,4 C -0,1 C 9,7 km/h (2 Bft) 95,83 %
19.12.2016 05:30 -0,1 C 98 % 1030,7 hPa 0,0 l/m 5,5 km/h (1 Bft) NO 45 0 min 0,000 mm 0,0 UV-I 0 W/m -0,4 C -0,1 C 8,0 km/h (2 Bft) 95,74 %
19.12.2016 05:32 -0,1 C 98 % 1030,7 hPa 0,0 l/m 7,2 km/h (2 Bft) NO 40 0 min 0,000 mm 0,0 UV-I 0 W/m -0,4 C -0,9 C 9,7 km/h (2 Bft) 100,00 %
19.12.2016 05:34 -0,1 C 98 % 1030,7 hPa 0,0 l/m 6,8 km/h (2 Bft) NO 51 0 min 0,000 mm 0,0 UV-I 0 W/m -0,4 C -0,5 C 9,7 km/h (2 Bft) 100,00 %
19.12.2016 05:36 -0,1 C 98 % 1030,7 hPa 0,0 l/m 6,0 km/h (2 Bft) NO 50 0 min 0,000 mm 0,0 UV-I 0 W/m -0,4 C -0,1 C 11,3 km/h (2 Bft) 97,56 %
19.12.2016 05:38 -0,1 C 98 % 1030,7 hPa 0,0 l/m 5,7 km/h (1 Bft) NO 44 0 min 0,000 mm 0,0 UV-I 0 W/m -0,4 C -0,1 C 8,0 km/h (2 Bft) 100,00 %
19.12.2016 05:40 -0,1 C 98 % 1030,7 hPa 0,0 l/m 7,0 km/h (2 Bft) O-NO 61 0 min 0,000 mm 0,0 UV-I 0 W/m -0,4 C -0,7 C 9,7 km/h (2 Bft) 100,00 %
19.12.2016 05:42 -0,1 C 98 % 1030,7 hPa 0,0 l/m 7,8 km/h (2 Bft) O-NO 61 0 min 0,000 mm 0,0 UV-I 0 W/m -0,4 C -1,6 C 12,9 km/h (3 Bft) 100,00 %
19.12.2016 05:44 0,0 C 98 % 1030,6 hPa 0,0 l/m 9,4 km/h (2 Bft) O-NO 69 0 min 0,000 mm 0,0 UV-I 0 W/m -0,3 C -2,9 C 14,5 km/h (3 Bft) 95,74 %
19.12.2016 05:46 0,0 C 98 % 1030,6 hPa 0,0 l/m 8,2 km/h (2 Bft) O-NO 69 0 min 0,000 mm 0,0 UV-I 0 W/m -0,3 C -1,8 C 12,9 km/h (3 Bft) 100,00 %
19.12.2016 05:48 0,0 C 98 % 1030,6 hPa 0,0 l/m 7,5 km/h (2 Bft) NO 53 0 min 0,000 mm 0,0 UV-I 0 W/m -0,3 C -1,1 C 11,3 km/h (2 Bft) 100,00 %
19.12.2016 05:50 0,0 C 98 % 1030,6 hPa 0,0 l/m 7,2 km/h (2 Bft) O-NO 63 0 min 0,000 mm 0,0 UV-I 0 W/m -0,3 C -0,8 C 11,3 km/h (2 Bft) 98,21 %
19.12.2016 05:52 0,0 C 98 % 1030,5 hPa 0,0 l/m 5,7 km/h (1 Bft) O-NO 61 0 min 0,000 mm 0,0 UV-I 0 W/m -0,3 C 0,0 C 9,7 km/h (2 Bft) 97,37 %
19.12.2016 05:54 0,0 C 98 % 1030,5 hPa 0,0 l/m 7,3 km/h (2 Bft) O-NO 63 0 min 0,000 mm 0,0 UV-I 0 W/m -0,3 C -0,9 C 9,7 km/h (2 Bft) 100,00 %
19.12.2016 05:56 0,1 C 98 % 1030,4 hPa 0,0 l/m 7,4 km/h (2 Bft) O-NO 69 0 min 0,000 mm 0,0 UV-I 0 W/m -0,2 C -0,9 C 14,5 km/h (3 Bft) 100,00 %
19.12.2016 05:58 0,1 C 98 % 1030,5 hPa 0,0 l/m 7,4 km/h (2 Bft) NO 51 0 min 0,000 mm 0,0 UV-I 0 W/m -0,2 C -0,9 C 9,7 km/h (2 Bft) 100,00 %
19.12.2016 06:00 0,1 C 98 % 1030,5 hPa 0,0 l/m 9,7 km/h (2 Bft) O-NO 63 0 min 0,000 mm 0,0 UV-I 0 W/m -0,2 C -3,1 C 16,1 km/h (3 Bft) 100,00 %
19.12.2016 06:02 0,1 C 98 % 1030,5 hPa 0,0 l/m 9,7 km/h (2 Bft) NO 44 0 min 0,000 mm 0,0 UV-I 0 W/m -0,2 C -3,1 C 14,5 km/h (3 Bft) 100,00 %
19.12.2016 06:04 0,2 C 98 % 1030,4 hPa 0,0 l/m 13,6 km/h (3 Bft) O-NO 71 0 min 0,000 mm 0,0 UV-I 0 W/m -0,1 C -5,9 C 19,3 km/h (3 Bft) 97,62 %
19.12.2016 06:06 0,2 C 98 % 1030,4 hPa 0,0 l/m 12,4 km/h (3 Bft) O-NO 75 0 min 0,000 mm 0,0 UV-I 0 W/m -0,1 C -5,1 C 17,7 km/h (3 Bft) 98,08 %
19.12.2016 06:08 0,3 C 98 % 1030,5 hPa 0,0 l/m 11,5 km/h (2 Bft) O-SO 103 0 min 0,000 mm 0,0 UV-I 0 W/m 0,0 C -4,3 C 24,1 km/h (4 Bft) 95,24 %
19.12.2016 06:10 0,3 C 98 % 1030,5 hPa 0,0 l/m 13,1 km/h (3 Bft) O-NO 69 0 min 0,000 mm 0,0 UV-I 0 W/m 0,0 C -5,4 C 17,7 km/h (3 Bft) 100,00 %
19.12.2016 06:12 0,3 C 98 % 1030,5 hPa 0,0 l/m 13,9 km/h (3 Bft) O-NO 62 0 min 0,000 mm 0,0 UV-I 0 W/m 0,0 C -5,9 C 19,3 km/h (3 Bft) 97,87 %
19.12.2016 06:14 0,3 C 98 % 1030,5 hPa 0,0 l/m 12,4 km/h (3 Bft) NO 53 0 min 0,000 mm 0,0 UV-I 0 W/m 0,0 C -4,9 C 17,7 km/h (3 Bft) 100,00 %
19.12.2016 06:16 0,4 C 98 % 1030,5 hPa 0,0 l/m 12,4 km/h (3 Bft) O-NO 67 0 min 0,000 mm 0,0 UV-I 0 W/m 0,1 C -4,8 C 16,1 km/h (3 Bft) 100,00 %
19.12.2016 06:18 0,4 C 98 % 1030,6 hPa 0,0 l/m 12,3 km/h (3 Bft) O-NO 65 0 min 0,000 mm 0,0 UV-I 0 W/m 0,1 C -4,8 C 17,7 km/h (3 Bft) 98,21 %
19.12.2016 06:20 0,4 C 98 % 1030,5 hPa 0,0 l/m 12,5 km/h (3 Bft) O-NO 78 0 min 0,000 mm 0,0 UV-I 0 W/m 0,1 C -4,9 C 17,7 km/h (3 Bft) 100,00 %
19.12.2016 06:22 0,4 C 98 % 1030,5 hPa 0,0 l/m 12,5 km/h (3 Bft) O-NO 62 0 min 0,000 mm 0,0 UV-I 0 W/m 0,1 C -4,9 C 16,1 km/h (3 Bft) 100,00 %
19.12.2016 06:24 0,4 C 98 % 1030,5 hPa 0,0 l/m 13,8 km/h (3 Bft) NO 46 0 min 0,000 mm 0,0 UV-I 0 W/m 0,1 C -5,8 C 20,9 km/h (4 Bft) 100,00 %
19.12.2016 06:26 0,4 C 98 % 1030,6 hPa 0,0 l/m 12,4 km/h (3 Bft) O-NO 63 0 min 0,000 mm 0,0 UV-I 0 W/m 0,1 C -4,8 C 17,7 km/h (3 Bft) 100,00 %
19.12.2016 06:28 0,4 C 98 % 1030,6 hPa 0,0 l/m 14,3 km/h (3 Bft) O-NO 57 0 min 0,000 mm 0,0 UV-I 0 W/m 0,1 C -6,1 C 20,9 km/h (4 Bft) 100,00 %
19.12.2016 06:30 0,4 C 98 % 1030,6 hPa 0,0 l/m 15,4 km/h (3 Bft) NO 54 0 min 0,000 mm 0,0 UV-I 0 W/m 0,1 C -6,7 C 22,5 km/h (4 Bft) 100,00 %
19.12.2016 06:32 0,4 C 98 % 1030,5 hPa 0,0 l/m 14,9 km/h (3 Bft) O-NO 61 0 min 0,000 mm 0,0 UV-I 0 W/m 0,1 C -6,4 C 20,9 km/h (4 Bft) 100,00 %
19.12.2016 06:34 0,4 C 98 % 1030,5 hPa 0,0 l/m 16,4 km/h (3 Bft) N-NO 31 0 min 0,000 mm 0,0 UV-I 0 W/m 0,1 C -7,3 C 24,1 km/h (4 Bft) 100,00 %
19.12.2016 06:36 0,4 C 98 % 1030,5 hPa 0,0 l/m 15,0 km/h (3 Bft) NO 36 0 min 0,000 mm 0,0 UV-I 0 W/m 0,1 C -6,5 C 19,3 km/h (3 Bft) 97,56 %
19.12.2016 06:38 0,4 C 98 % 1030,5 hPa 0,0 l/m 17,7 km/h (3 Bft) O-NO 57 0 min 0,000 mm 0,0 UV-I 0 W/m 0,1 C -8,0 C 22,5 km/h (4 Bft) 100,00 %
19.12.2016 06:40 0,4 C 98 % 1030,5 hPa 0,0 l/m 15,9 km/h (3 Bft) O 80 0 min 0,000 mm 0,0 UV-I 0 W/m 0,1 C -7,0 C 22,5 km/h (4 Bft) 100,00 %
19.12.2016 06:42 0,4 C 98 % 1030,5 hPa 0,0 l/m 15,1 km/h (3 Bft) O-NO 62 0 min 0,000 mm 0,0 UV-I 0 W/m 0,1 C -6,6 C 20,9 km/h (4 Bft) 100,00 %
19.12.2016 06:44 0,4 C 98 % 1030,5 hPa 0,0 l/m 13,7 km/h (3 Bft) O-NO 70 0 min 0,000 mm 0,0 UV-I 0 W/m 0,1 C -5,7 C 24,1 km/h (4 Bft) 100,00 %
19.12.2016 06:46 0,4 C 98 % 1030,4 hPa 0,0 l/m 21,7 km/h (4 Bft) NO 50 0 min 0,000 mm 0,0 UV-I 0 W/m 0,1 C -9,9 C 32,2 km/h (5 Bft) 97,44 %
19.12.2016 06:48 0,5 C 98 % 1030,4 hPa 0,0 l/m 22,6 km/h (4 Bft) O-NO 61 0 min 0,000 mm 0,0 UV-I 0 W/m 0,2 C -10,1 C 30,6 km/h (5 Bft) 96,00 %
19.12.2016 06:50 0,4 C 98 % 1030,4 hPa 0,0 l/m 20,4 km/h (4 Bft) O-NO 59 0 min 0,000 mm 0,0 UV-I 0 W/m 0,1 C -9,3 C 27,4 km/h (4 Bft) 100,00 %
19.12.2016 06:52 0,5 C 98 % 1030,5 hPa 0,0 l/m 21,0 km/h (4 Bft) O-NO 63 0 min 0,000 mm 0,0 UV-I 0 W/m 0,2 C -9,4 C 27,4 km/h (4 Bft) 100,00 %
19.12.2016 06:54 0,4 C 98 % 1030,5 hPa 0,0 l/m 18,5 km/h (3 Bft) O-NO 65 0 min 0,000 mm 0,0 UV-I 0 W/m 0,1 C -8,4 C 25,7 km/h (4 Bft) 100,00 %
19.12.2016 06:56 0,5 C 98 % 1030,5 hPa 0,0 l/m 20,4 km/h (4 Bft) O 82 0 min 0,000 mm 0,0 UV-I 0 W/m 0,2 C -9,2 C 27,4 km/h (4 Bft) 100,00 %
19.12.2016 06:58 0,4 C 98 % 1030,5 hPa 0,0 l/m 16,5 km/h (3 Bft) O-NO 65 0 min 0,000 mm 0,0 UV-I 0 W/m 0,1 C -7,4 C 22,5 km/h (4 Bft) 100,00 %
19.12.2016 07:00 0,4 C 98 % 1030,4 hPa 0,0 l/m 17,8 km/h (3 Bft) O-NO 67 0 min 0,000 mm 0,0 UV-I 0 W/m 0,1 C -8,0 C 22,5 km/h (4 Bft) 100,00 %
19.12.2016 07:02 0,4 C 98 % 1030,4 hPa 0,0 l/m 14,1 km/h (3 Bft) O-NO 63 0 min 0,000 mm 0,0 UV-I 0 W/m 0,1 C -5,9 C 20,9 km/h (4 Bft) 98,11 %
19.12.2016 07:04 0,4 C 98 % 1030,4 hPa 0,0 l/m 20,9 km/h (4 Bft) O-NO 63 0 min 0,000 mm 0,0 UV-I 0 W/m 0,1 C -9,5 C 30,6 km/h (5 Bft) 97,73 %
19.12.2016 07:06 0,4 C 98 % 1030,4 hPa 0,0 l/m 17,4 km/h (3 Bft) O-NO 60 0 min 0,000 mm 0,0 UV-I 0 W/m 0,1 C -7,8 C 22,5 km/h (4 Bft) 97,56 %
19.12.2016 07:08 0,4 C 98 % 1030,4 hPa 0,0 l/m 19,8 km/h (3 Bft) O 82 0 min 0,000 mm 0,0 UV-I 0 W/m 0,1 C -9,0 C 25,7 km/h (4 Bft) 95,45 %
19.12.2016 07:10 0,4 C 98 % 1030,4 hPa 0,0 l/m 19,2 km/h (3 Bft) O-NO 73 0 min 0,000 mm 0,0 UV-I 0 W/m 0,1 C -8,7 C 29,0 km/h (5 Bft) 96,23 %
19.12.2016 07:12 0,5 C 98 % 1030,3 hPa 0,0 l/m 21,3 km/h (4 Bft) O-NO 66 0 min 0,000 mm 0,0 UV-I 0 W/m 0,2 C -9,6 C 29,0 km/h (5 Bft) 97,87 %
19.12.2016 07:14 0,4 C 98 % 1030,3 hPa 0,0 l/m 16,6 km/h (3 Bft) NO 53 0 min 0,000 mm 0,0 UV-I 0 W/m 0,1 C -7,4 C 25,7 km/h (4 Bft) 97,56 %
19.12.2016 07:16 0,4 C 98 % 1030,2 hPa 0,0 l/m 20,3 km/h (4 Bft) O-NO 67 0 min 0,000 mm 0,0 UV-I 0 W/m 0,1 C -9,3 C 27,4 km/h (4 Bft) 98,21 %
19.12.2016 07:18 0,4 C 98 % 1030,2 hPa 0,0 l/m 20,4 km/h (4 Bft) O-NO 61 0 min 0,000 mm 0,0 UV-I 0 W/m 0,1 C -9,3 C 29,0 km/h (5 Bft) 97,37 %
19.12.2016 07:20 0,4 C 98 % 1030,3 hPa 0,0 l/m 18,6 km/h (3 Bft) NO 45 0 min 0,000 mm 0,0 UV-I 0 W/m 0,1 C -8,4 C 24,1 km/h (4 Bft) 97,62 %
19.12.2016 07:22 0,5 C 98 % 1030,3 hPa 0,0 l/m 16,5 km/h (3 Bft) O-NO 62 0 min 0,000 mm 0,0 UV-I 0 W/m 0,2 C -7,2 C 24,1 km/h (4 Bft) 96,72 %
19.12.2016 07:24 0,4 C 98 % 1030,3 hPa 0,0 l/m 19,5 km/h (3 Bft) O-NO 71 0 min 0,000 mm 0,0 UV-I 0 W/m 0,1 C -8,9 C 25,7 km/h (4 Bft) 100,00 %
19.12.2016 07:26 0,4 C 98 % 1030,3 hPa 0,0 l/m 18,5 km/h (3 Bft) O-NO 57 0 min 0,000 mm 0,0 UV-I 0 W/m 0,1 C -8,4 C 25,7 km/h (4 Bft) 95,74 %
19.12.2016 07:28 0,4 C 98 % 1030,3 hPa 0,0 l/m 18,6 km/h (3 Bft) O-NO 76 0 min 0,000 mm 0,0 UV-I 0 W/m 0,1 C -8,4 C 25,7 km/h (4 Bft) 98,11 %
19.12.2016 07:30 0,4 C 98 % 1030,3 hPa 0,0 l/m 18,0 km/h (3 Bft) O 83 0 min 0,000 mm 0,0 UV-I 0 W/m 0,1 C -8,1 C 27,4 km/h (4 Bft) 97,73 %
19.12.2016 07:32 0,4 C 98 % 1030,3 hPa 0,0 l/m 18,8 km/h (3 Bft) NO 46 0 min 0,000 mm 0,0 UV-I 0 W/m 0,1 C -8,5 C 25,7 km/h (4 Bft) 97,37 %
19.12.2016 07:34 0,4 C 98 % 1030,3 hPa 0,0 l/m 18,4 km/h (3 Bft) NO 51 0 min 0,000 mm 0,0 UV-I 0 W/m 0,1 C -8,3 C 27,4 km/h (4 Bft) 98,21 %
19.12.2016 07:36 0,4 C 98 % 1030,3 hPa 0,0 l/m 16,2 km/h (3 Bft) O 85 0 min 0,000 mm 0,0 UV-I 0 W/m 0,1 C -7,2 C 22,5 km/h (4 Bft) 98,00 %
19.12.2016 07:38 0,4 C 98 % 1030,3 hPa 0,0 l/m 13,2 km/h (3 Bft) O-NO 61 0 min 0,000 mm 0,0 UV-I 0 W/m 0,1 C -5,4 C 20,9 km/h (4 Bft) 97,56 %
19.12.2016 07:40 0,4 C 98 % 1030,3 hPa 0,0 l/m 18,4 km/h (3 Bft) O 96 0 min 0,000 mm 0,0 UV-I 0 W/m 0,1 C -8,3 C 22,5 km/h (4 Bft) 100,00 %
19.12.2016 07:42 0,4 C 98 % 1030,2 hPa 0,0 l/m 15,0 km/h (3 Bft) O-NO 69 0 min 0,000 mm 0,0 UV-I 0 W/m 0,1 C -6,5 C 25,7 km/h (4 Bft) 96,00 %
19.12.2016 07:44 0,4 C 98 % 1030,3 hPa 0,0 l/m 17,8 km/h (3 Bft) O 82 0 min 0,000 mm 0,0 UV-I 0 W/m 0,1 C -8,0 C 25,7 km/h (4 Bft) 100,00 %
19.12.2016 07:46 0,4 C 98 % 1030,3 hPa 0,0 l/m 16,4 km/h (3 Bft) O 90 0 min 0,000 mm 0,0 UV-I 0 W/m 0,1 C -7,3 C 24,1 km/h (4 Bft) 100,00 %
19.12.2016 07:48 0,3 C 98 % 1030,2 hPa 0,0 l/m 16,7 km/h (3 Bft) O 87 0 min 0,000 mm 0,0 UV-I 0 W/m 0,0 C -7,6 C 22,5 km/h (4 Bft) 100,00 %
19.12.2016 07:50 0,3 C 98 % 1030,2 hPa 0,0 l/m 20,9 km/h (4 Bft) O-NO 63 0 min 0,000 mm 0,0 UV-I 0 W/m 0,0 C -9,7 C 25,7 km/h (4 Bft) 97,56 %
19.12.2016 07:52 0,3 C 98 % 1030,1 hPa 0,0 l/m 22,0 km/h (4 Bft) O-NO 69 0 min 0,000 mm 0,0 UV-I 0 W/m 0,0 C -10,1 C 32,2 km/h (5 Bft) 98,21 %
19.12.2016 07:54 0,3 C 98 % 1030,2 hPa 0,0 l/m 19,3 km/h (3 Bft) NO 55 0 min 0,000 mm 0,0 UV-I 0 W/m 0,0 C -8,9 C 24,1 km/h (4 Bft) 100,00 %
19.12.2016 07:56 0,3 C 98 % 1030,2 hPa 0,0 l/m 21,1 km/h (4 Bft) NO 41 0 min 0,000 mm 0,0 UV-I 1 W/m 0,0 C -9,7 C 32,2 km/h (5 Bft) 93,62 %
19.12.2016 07:58 0,3 C 98 % 1030,0 hPa 0,0 l/m 23,5 km/h (4 Bft) O-NO 65 0 min 0,000 mm 0,0 UV-I 5 W/m 0,0 C -10,7 C 33,8 km/h (5 Bft) 100,00 %
19.12.2016 08:00 0,3 C 98 % 1030,2 hPa 0,0 l/m 21,0 km/h (4 Bft) O-NO 58 0 min 0,000 mm 0,0 UV-I 5 W/m 0,0 C -9,7 C 35,4 km/h (5 Bft) 100,00 %
19.12.2016 08:02 0,3 C 98 % 1030,2 hPa 0,0 l/m 22,6 km/h (4 Bft) O-NO 62 0 min 0,000 mm 0,0 UV-I 5 W/m 0,0 C -10,4 C 27,4 km/h (4 Bft) 96,30 %
19.12.2016 08:04 0,3 C 98 % 1030,2 hPa 0,0 l/m 21,0 km/h (4 Bft) NO 56 0 min 0,000 mm 0,0 UV-I 5 W/m 0,0 C -9,7 C 27,4 km/h (4 Bft) 100,00 %
19.12.2016 08:06 0,2 C 97 % 1030,1 hPa 0,0 l/m 24,8 km/h (4 Bft) O-NO 65 0 min 0,000 mm 0,0 UV-I 5 W/m -0,2 C -11,4 C 32,2 km/h (5 Bft) 98,08 %
19.12.2016 08:08 0,3 C 98 % 1030,1 hPa 0,0 l/m 22,2 km/h (4 Bft) NO 53 0 min 0,000 mm 0,0 UV-I 5 W/m 0,0 C -10,2 C 29,0 km/h (5 Bft) 97,78 %
19.12.2016 08:10 0,3 C 98 % 1030,1 hPa 0,0 l/m 23,8 km/h (4 Bft) O-NO 58 0 min 0,000 mm 0,0 UV-I 6 W/m 0,0 C -10,9 C 29,0 km/h (5 Bft) 97,37 %
19.12.2016 08:12 0,2 C 98 % 1030,1 hPa 0,0 l/m 21,9 km/h (4 Bft) O-NO 73 0 min 0,000 mm 0,0 UV-I 7 W/m -0,1 C -10,2 C 32,2 km/h (5 Bft) 100,00 %
19.12.2016 08:14 0,2 C 98 % 1030,1 hPa 0,0 l/m 23,2 km/h (4 Bft) O-NO 74 0 min 0,000 mm 0,0 UV-I 7 W/m -0,1 C -10,8 C 30,6 km/h (5 Bft) 100,00 %
19.12.2016 08:16 0,2 C 98 % 1030,1 hPa 0,0 l/m 22,4 km/h (4 Bft) O-NO 71 0 min 0,000 mm 0,0 UV-I 7 W/m -0,1 C -10,4 C 27,4 km/h (4 Bft) 97,37 %
19.12.2016 08:18 0,2 C 98 % 1030,1 hPa 0,0 l/m 20,1 km/h (4 Bft) NO 55 0 min 0,000 mm 0,0 UV-I 7 W/m -0,1 C -9,4 C 25,7 km/h (4 Bft) 100,00 %
19.12.2016 08:20 0,2 C 98 % 1030,0 hPa 0,0 l/m 25,7 km/h (4 Bft) O-NO 63 0 min 0,000 mm 0,0 UV-I 7 W/m -0,1 C -11,7 C 32,2 km/h (5 Bft) 100,00 %
19.12.2016 08:22 0,2 C 98 % 1030,0 hPa 0,0 l/m 20,2 km/h (4 Bft) NO 49 0 min 0,000 mm 0,0 UV-I 8 W/m -0,1 C -9,5 C 27,4 km/h (4 Bft) 100,00 %
19.12.2016 08:24 0,2 C 98 % 1030,0 hPa 0,0 l/m 25,3 km/h (4 Bft) O-NO 75 0 min 0,000 mm 0,0 UV-I 10 W/m -0,1 C -11,6 C 33,8 km/h (5 Bft) 95,16 %
19.12.2016 08:26 0,2 C 98 % 1030,1 hPa 0,0 l/m 18,9 km/h (3 Bft) NO 40 0 min 0,000 mm 0,0 UV-I 10 W/m -0,1 C -8,8 C 25,7 km/h (4 Bft) 100,00 %
19.12.2016 08:28 0,2 C 98 % 1030,1 hPa 0,0 l/m 21,3 km/h (4 Bft) O-NO 74 0 min 0,000 mm 0,0 UV-I 10 W/m -0,1 C -10,0 C 27,4 km/h (4 Bft) 95,74 %
19.12.2016 08:30 0,2 C 98 % 1030,1 hPa 0,0 l/m 22,8 km/h (4 Bft) O 88 0 min 0,000 mm 0,0 UV-I 14 W/m -0,1 C -10,6 C 33,8 km/h (5 Bft) 97,87 %
19.12.2016 08:32 0,2 C 98 % 1030,1 hPa 0,0 l/m 21,7 km/h (4 Bft) NO 48 0 min 0,000 mm 0,0 UV-I 14 W/m -0,1 C -10,1 C 33,8 km/h (5 Bft) 100,00 %
19.12.2016 08:34 0,2 C 98 % 1030,1 hPa 0,0 l/m 21,1 km/h (4 Bft) O-NO 59 0 min 0,000 mm 0,0 UV-I 16 W/m -0,1 C -9,9 C 27,4 km/h (4 Bft) 95,12 %
19.12.2016 08:36 0,3 C 98 % 1030,1 hPa 0,0 l/m 17,9 km/h (3 Bft) O 86 0 min 0,000 mm 0,0 UV-I 13 W/m 0,0 C -8,2 C 25,7 km/h (4 Bft) 100,00 %
19.12.2016 08:38 0,2 C 98 % 1030,1 hPa 0,0 l/m 22,2 km/h (4 Bft) NO 50 0 min 0,000 mm 0,0 UV-I 16 W/m -0,1 C -10,3 C 27,4 km/h (4 Bft) 100,00 %
19.12.2016 08:40 0,3 C 98 % 1030,2 hPa 0,0 l/m 16,8 km/h (3 Bft) O-NO 77 0 min 0,000 mm 0,0 UV-I 14 W/m 0,0 C -7,6 C 24,1 km/h (4 Bft) 97,87 %
19.12.2016 08:42 0,3 C 98 % 1030,1 hPa 0,0 l/m 23,0 km/h (4 Bft) O-NO 70 0 min 0,000 mm 0,0 UV-I 14 W/m 0,0 C -10,5 C 29,0 km/h (5 Bft) 97,22 %
19.12.2016 08:44 0,3 C 98 % 1030,1 hPa 0,0 l/m 21,5 km/h (4 Bft) NO 51 0 min 0,000 mm 0,0 UV-I 15 W/m 0,0 C -9,9 C 32,2 km/h (5 Bft) 100,00 %
19.12.2016 08:46 0,3 C 98 % 1030,1 hPa 0,0 l/m 23,4 km/h (4 Bft) O-NO 71 0 min 0,000 mm 0,0 UV-I 17 W/m 0,0 C -10,7 C 32,2 km/h (5 Bft) 100,00 %
19.12.2016 08:48 0,2 C 98 % 1030,1 hPa 0,0 l/m 23,3 km/h (4 Bft) O-NO 69 0 min 0,000 mm 0,0 UV-I 18 W/m -0,1 C -10,8 C 32,2 km/h (5 Bft) 100,00 %
19.12.2016 08:50 0,2 C 98 % 1030,2 hPa 0,0 l/m 21,9 km/h (4 Bft) O-NO 60 0 min 0,000 mm 0,0 UV-I 16 W/m -0,1 C -10,2 C 29,0 km/h (5 Bft) 97,37 %
19.12.2016 08:52 0,2 C 98 % 1030,1 hPa 0,0 l/m 22,9 km/h (4 Bft) O-NO 65 0 min 0,000 mm 0,0 UV-I 17 W/m -0,1 C -10,6 C 32,2 km/h (5 Bft) 98,18 %
19.12.2016 08:54 0,2 C 98 % 1030,2 hPa 0,0 l/m 24,5 km/h (4 Bft) O-NO 69 0 min 0,000 mm 0,0 UV-I 17 W/m -0,1 C -11,3 C 32,2 km/h (5 Bft) 100,00 %
19.12.2016 08:56 0,2 C 97 % 1030,2 hPa 0,0 l/m 25,7 km/h (4 Bft) O-NO 60 0 min 0,000 mm 0,0 UV-I 20 W/m -0,2 C -11,7 C 35,4 km/h (5 Bft) 100,00 %
19.12.2016 08:58 0,2 C 97 % 1030,2 hPa 0,0 l/m 25,9 km/h (4 Bft) NO 34 0 min 0,000 mm 0,0 UV-I 19 W/m -0,2 C -11,8 C 33,8 km/h (5 Bft) 100,00 %
19.12.2016 09:00 0,2 C 97 % 1030,2 hPa 0,0 l/m 22,4 km/h (4 Bft) O-NO 65 0 min 0,000 mm 0,0 UV-I 19 W/m -0,2 C -10,4 C 32,2 km/h (5 Bft) 100,00 %
19.12.2016 09:02 0,2 C 97 % 1030,3 hPa 0,0 l/m 20,8 km/h (4 Bft) O-NO 71 0 min 0,000 mm 0,0 UV-I 20 W/m -0,2 C -9,7 C 29,0 km/h (5 Bft) 100,00 %
19.12.2016 09:04 0,2 C 97 % 1030,3 hPa 0,0 l/m 20,7 km/h (4 Bft) O-NO 77 0 min 0,000 mm 0,0 UV-I 20 W/m -0,2 C -9,7 C 32,2 km/h (5 Bft) 100,00 %
19.12.2016 09:06 0,2 C 97 % 1030,3 hPa 0,0 l/m 20,6 km/h (4 Bft) O-NO 77 0 min 0,000 mm 0,0 UV-I 20 W/m -0,2 C -9,6 C 27,4 km/h (4 Bft) 100,00 %
19.12.2016 09:08 0,2 C 97 % 1030,3 hPa 0,0 l/m 16,9 km/h (3 Bft) O-NO 61 0 min 0,000 mm 0,0 UV-I 22 W/m -0,2 C -7,8 C 27,4 km/h (4 Bft) 92,45 %
19.12.2016 09:10 0,2 C 97 % 1030,3 hPa 0,0 l/m 19,0 km/h (3 Bft) O-NO 58 0 min 0,000 mm 0,0 UV-I 23 W/m -0,2 C -8,9 C 25,7 km/h (4 Bft) 97,87 %
19.12.2016 09:12 0,2 C 97 % 1030,4 hPa 0,0 l/m 17,0 km/h (3 Bft) O-NO 77 0 min 0,000 mm 0,0 UV-I 20 W/m -0,2 C -7,9 C 22,5 km/h (4 Bft) 97,87 %
19.12.2016 09:14 0,2 C 97 % 1030,4 hPa 0,0 l/m 13,6 km/h (3 Bft) O 94 0 min 0,000 mm 0,0 UV-I 21 W/m -0,2 C -5,9 C 19,3 km/h (3 Bft) 97,37 %
19.12.2016 09:16 0,2 C 97 % 1030,3 hPa 0,0 l/m 20,7 km/h (4 Bft) O-NO 75 0 min 0,000 mm 0,0 UV-I 23 W/m -0,2 C -9,7 C 29,0 km/h (5 Bft) 98,00 %
19.12.2016 09:18 0,2 C 97 % 1030,4 hPa 0,0 l/m 18,8 km/h (3 Bft) O 91 0 min 0,000 mm 0,0 UV-I 22 W/m -0,2 C -8,8 C 27,4 km/h (4 Bft) 98,00 %
19.12.2016 09:20 0,2 C 97 % 1030,3 hPa 0,0 l/m 18,3 km/h (3 Bft) O-NO 62 0 min 0,000 mm 0,0 UV-I 21 W/m -0,2 C -8,6 C 25,7 km/h (4 Bft) 97,44 %
19.12.2016 09:22 0,2 C 97 % 1030,3 hPa 0,0 l/m 20,5 km/h (4 Bft) O-NO 61 0 min 0,000 mm 0,0 UV-I 22 W/m -0,2 C -9,6 C 32,2 km/h (5 Bft) 96,36 %
19.12.2016 09:24 0,2 C 97 % 1030,2 hPa 0,0 l/m 17,7 km/h (3 Bft) O-NO 73 0 min 0,000 mm 0,0 UV-I 24 W/m -0,2 C -8,2 C 29,0 km/h (5 Bft) 94,00 %
19.12.2016 09:26 0,2 C 97 % 1030,3 hPa 0,0 l/m 21,7 km/h (4 Bft) O-NO 66 0 min 0,000 mm 0,0 UV-I 25 W/m -0,2 C -10,1 C 27,4 km/h (4 Bft) 97,87 %
19.12.2016 09:28 0,2 C 97 % 1030,3 hPa 0,0 l/m 20,4 km/h (4 Bft) O-NO 59 0 min 0,000 mm 0,0 UV-I 26 W/m -0,2 C -9,6 C 30,6 km/h (5 Bft) 97,22 %
19.12.2016 09:30 0,2 C 97 % 1030,2 hPa 0,0 l/m 21,2 km/h (4 Bft) O-NO 65 0 min 0,000 mm 0,0 UV-I 27 W/m -0,2 C -9,9 C 30,6 km/h (5 Bft) 96,43 %
19.12.2016 09:32 0,2 C 97 % 1030,2 hPa 0,0 l/m 22,3 km/h (4 Bft) O-NO 71 0 min 0,000 mm 0,0 UV-I 30 W/m -0,2 C -10,4 C 32,2 km/h (5 Bft) 96,15 %
19.12.2016 09:34 0,2 C 97 % 1030,2 hPa 0,0 l/m 20,1 km/h (4 Bft) O 89 0 min 0,000 mm 0,0 UV-I 29 W/m -0,2 C -9,4 C 27,4 km/h (4 Bft) 98,53 %
19.12.2016 09:36 0,2 C 97 % 1030,1 hPa 0,0 l/m 20,3 km/h (4 Bft) O-NO 75 0 min 0,000 mm 0,0 UV-I 32 W/m -0,2 C -9,5 C 27,4 km/h (4 Bft) 97,73 %
19.12.2016 09:38 0,2 C 97 % 1030,2 hPa 0,0 l/m 24,2 km/h (4 Bft) O-NO 69 0 min 0,000 mm 0,0 UV-I 35 W/m -0,2 C -11,1 C 32,2 km/h (5 Bft) 98,00 %
19.12.2016 09:40 0,2 C 97 % 1030,1 hPa 0,0 l/m 24,6 km/h (4 Bft) O-NO 77 0 min 0,000 mm 0,0 UV-I 33 W/m -0,2 C -11,3 C 30,6 km/h (5 Bft) 94,74 %
19.12.2016 09:42 0,2 C 97 % 1030,1 hPa 0,0 l/m 24,8 km/h (4 Bft) O 84 0 min 0,000 mm 0,0 UV-I 32 W/m -0,2 C -11,4 C 32,2 km/h (5 Bft) 96,23 %
19.12.2016 09:44 0,2 C 97 % 1030,1 hPa 0,0 l/m 24,4 km/h (4 Bft) NO 56 0 min 0,000 mm 0,0 UV-I 31 W/m -0,2 C -11,2 C 32,2 km/h (5 Bft) 100,00 %
19.12.2016 09:46 0,2 C 97 % 1030,1 hPa 0,0 l/m 18,9 km/h (3 Bft) NO 44 0 min 0,000 mm 0,0 UV-I 26 W/m -0,2 C -8,8 C 24,1 km/h (4 Bft) 98,11 %
19.12.2016 09:48 0,2 C 97 % 1030,2 hPa 0,0 l/m 20,8 km/h (4 Bft) NO 49 0 min 0,000 mm 0,0 UV-I 30 W/m -0,2 C -9,7 C 29,0 km/h (5 Bft) 100,00 %
19.12.2016 09:50 0,2 C 97 % 1030,1 hPa 0,0 l/m 21,3 km/h (4 Bft) NO 51 0 min 0,000 mm 0,0 UV-I 32 W/m -0,2 C -10,0 C 27,4 km/h (4 Bft) 100,00 %
19.12.2016 09:52 0,2 C 97 % 1030,2 hPa 0,0 l/m 16,5 km/h (3 Bft) NO 49 0 min 0,000 mm 0,0 UV-I 30 W/m -0,2 C -7,6 C 24,1 km/h (4 Bft) 100,00 %
19.12.2016 09:54 0,2 C 97 % 1030,3 hPa 0,0 l/m 17,5 km/h (3 Bft) O-NO 64 0 min 0,000 mm 0,0 UV-I 30 W/m -0,2 C -8,1 C 24,1 km/h (4 Bft) 100,00 %
19.12.2016 09:56 0,2 C 97 % 1030,3 hPa 0,0 l/m 19,3 km/h (3 Bft) O-NO 61 0 min 0,000 mm 0,0 UV-I 33 W/m -0,2 C -9,0 C 29,0 km/h (5 Bft) 100,00 %
19.12.2016 09:58 0,2 C 97 % 1030,2 hPa 0,0 l/m 18,2 km/h (3 Bft) O 97 0 min 0,000 mm 0,0 UV-I 35 W/m -0,2 C -8,5 C 24,1 km/h (4 Bft) 100,00 %
19.12.2016 10:00 0,2 C 97 % 1030,3 hPa 0,0 l/m 17,0 km/h (3 Bft) NO 49 0 min 0,025 mm 0,0 UV-I 33 W/m -0,2 C -7,9 C 25,7 km/h (4 Bft) 98,11 %
19.12.2016 10:02 0,2 C 97 % 1030,3 hPa 0,0 l/m 22,6 km/h (4 Bft) O-NO 62 0 min 0,000 mm 0,0 UV-I 33 W/m -0,2 C -10,5 C 29,0 km/h (5 Bft) 100,00 %
19.12.2016 10:04 0,2 C 97 % 1030,3 hPa 0,0 l/m 18,7 km/h (3 Bft) NO 47 0 min 0,000 mm 0,0 UV-I 36 W/m -0,2 C -8,8 C 25,7 km/h (4 Bft) 100,00 %
19.12.2016 10:06 0,2 C 97 % 1030,2 hPa 0,0 l/m 20,8 km/h (4 Bft) O-NO 60 0 min 0,000 mm 0,0 UV-I 33 W/m -0,2 C -9,7 C 27,4 km/h (4 Bft) 95,45 %
19.12.2016 10:08 0,2 C 97 % 1030,2 hPa 0,0 l/m 20,5 km/h (4 Bft) O-NO 60 0 min 0,000 mm 0,0 UV-I 38 W/m -0,2 C -9,6 C 29,0 km/h (5 Bft) 100,00 %
19.12.2016 10:10 0,2 C 97 % 1030,1 hPa 0,0 l/m 22,1 km/h (4 Bft) NO 52 0 min 0,000 mm 0,0 UV-I 40 W/m -0,2 C -10,3 C 25,7 km/h (4 Bft) 100,00 %
19.12.2016 10:12 0,2 C 97 % 1030,1 hPa 0,0 l/m 18,1 km/h (3 Bft) O 82 0 min 0,000 mm 0,0 UV-I 38 W/m -0,2 C -8,5 C 24,1 km/h (4 Bft) 100,00 %
19.12.2016 10:14 0,2 C 97 % 1030,1 hPa 0,0 l/m 19,0 km/h (3 Bft) O-NO 67 0 min 0,000 mm 0,0 UV-I 39 W/m -0,2 C -8,9 C 24,1 km/h (4 Bft) 98,11 %
19.12.2016 10:16 0,2 C 97 % 1030,1 hPa 0,0 l/m 18,6 km/h (3 Bft) NO 53 0 min 0,000 mm 0,0 UV-I 40 W/m -0,2 C -8,7 C 24,1 km/h (4 Bft) 100,00 %
19.12.2016 10:18 0,2 C 97 % 1030,0 hPa 0,0 l/m 16,3 km/h (3 Bft) NO 50 0 min 0,000 mm 0,0 UV-I 43 W/m -0,2 C -7,5 C 22,5 km/h (4 Bft) 98,00 %
19.12.2016 10:20 0,2 C 97 % 1030,1 hPa 0,0 l/m 23,0 km/h (4 Bft) O-NO 65 0 min 0,000 mm 0,0 UV-I 47 W/m -0,2 C -10,7 C 33,8 km/h (5 Bft) 100,00 %
19.12.2016 10:22 0,2 C 97 % 1030,0 hPa 0,0 l/m 25,4 km/h (4 Bft) NO 56 0 min 0,000 mm 0,0 UV-I 46 W/m -0,2 C -11,6 C 35,4 km/h (5 Bft) 97,87 %
19.12.2016 10:24 0,2 C 97 % 1030,0 hPa 0,0 l/m 22,1 km/h (4 Bft) NO 39 0 min 0,000 mm 0,0 UV-I 48 W/m -0,2 C -10,3 C 29,0 km/h (5 Bft) 96,00 %
19.12.2016 10:26 0,2 C 97 % 1030,0 hPa 0,0 l/m 23,4 km/h (4 Bft) O-NO 68 0 min 0,000 mm 0,0 UV-I 48 W/m -0,2 C -10,8 C 32,2 km/h (5 Bft) 100,00 %
19.12.2016 10:28 0,2 C 97 % 1030,0 hPa 0,0 l/m 21,9 km/h (4 Bft) NO 43 0 min 0,000 mm 0,0 UV-I 51 W/m -0,2 C -10,2 C 27,4 km/h (4 Bft) 100,00 %
19.12.2016 10:30 0,2 C 97 % 1030,0 hPa 0,0 l/m 16,5 km/h (3 Bft) O-NO 58 0 min 0,000 mm 0,0 UV-I 50 W/m -0,2 C -7,6 C 22,5 km/h (4 Bft) 100,00 %
19.12.2016 10:32 0,2 C 97 % 1030,0 hPa 0,0 l/m 19,2 km/h (3 Bft) O-NO 66 0 min 0,000 mm 0,0 UV-I 56 W/m -0,2 C -9,0 C 27,4 km/h (4 Bft) 100,00 %
19.12.2016 10:34 0,2 C 97 % 1030,0 hPa 0,0 l/m 17,9 km/h (3 Bft) NO 46 0 min 0,000 mm 0,0 UV-I 54 W/m -0,2 C -8,3 C 24,1 km/h (4 Bft) 100,00 %
19.12.2016 10:36 0,2 C 97 % 1030,0 hPa 0,0 l/m 17,3 km/h (3 Bft) O 90 0 min 0,000 mm 0,0 UV-I 58 W/m -0,2 C -8,0 C 24,1 km/h (4 Bft) 100,00 %
19.12.2016 10:38 0,2 C 97 % 1030,0 hPa 0,0 l/m 17,4 km/h (3 Bft) NO 44 0 min 0,000 mm 0,0 UV-I 51 W/m -0,2 C -8,1 C 24,1 km/h (4 Bft) 100,00 %
19.12.2016 10:40 0,2 C 97 % 1030,0 hPa 0,0 l/m 19,2 km/h (3 Bft) O 82 0 min 0,000 mm 0,0 UV-I 59 W/m -0,2 C -9,0 C 24,1 km/h (4 Bft) 98,11 %
19.12.2016 10:42 0,2 C 97 % 1030,0 hPa 0,0 l/m 17,3 km/h (3 Bft) NO 55 0 min 0,000 mm 0,0 UV-I 62 W/m -0,2 C -8,0 C 24,1 km/h (4 Bft) 97,56 %
19.12.2016 10:44 0,2 C 97 % 1029,9 hPa 0,0 l/m 19,9 km/h (4 Bft) NO 34 0 min 0,000 mm 0,0 UV-I 66 W/m -0,2 C -9,3 C 25,7 km/h (4 Bft) 100,00 %
19.12.2016 10:46 0,3 C 97 % 1029,8 hPa 0,0 l/m 21,6 km/h (4 Bft) NO 52 0 min 0,000 mm 0,0 UV-I 76 W/m -0,1 C -10,0 C 29,0 km/h (5 Bft) 100,00 %
19.12.2016 10:48 0,3 C 97 % 1029,8 hPa 0,0 l/m 18,5 km/h (3 Bft) O-NO 77 0 min 0,000 mm 0,0 UV-I 71 W/m -0,1 C -8,5 C 22,5 km/h (4 Bft) 100,00 %
19.12.2016 10:50 0,3 C 97 % 1029,8 hPa 0,0 l/m 18,2 km/h (3 Bft) O-NO 68 0 min 0,000 mm 0,0 UV-I 77 W/m -0,1 C -8,4 C 25,7 km/h (4 Bft) 100,00 %
19.12.2016 10:52 0,3 C 96 % 1029,8 hPa 0,0 l/m 21,3 km/h (4 Bft) O-NO 61 0 min 0,000 mm 0,0 UV-I 72 W/m -0,3 C -9,8 C 25,7 km/h (4 Bft) 100,00 %
19.12.2016 10:54 0,2 C 96 % 1029,8 hPa 0,0 l/m 18,8 km/h (3 Bft) O-NO 61 0 min 0,000 mm 0,0 UV-I 72 W/m -0,4 C -8,8 C 25,7 km/h (4 Bft) 97,37 %
19.12.2016 10:56 0,3 C 96 % 1029,7 hPa 0,0 l/m 19,8 km/h (3 Bft) O-NO 68 0 min 0,000 mm 0,0 UV-I 81 W/m -0,3 C -9,2 C 24,1 km/h (4 Bft) 98,21 %
19.12.2016 10:58 0,3 C 96 % 1029,7 hPa 0,0 l/m 19,5 km/h (3 Bft) NO 45 0 min 0,000 mm 0,0 UV-I 69 W/m -0,3 C -9,0 C 27,4 km/h (4 Bft) 100,00 %
19.12.2016 11:00 0,3 C 97 % 1029,6 hPa 0,0 l/m 18,4 km/h (3 Bft) O-NO 57 0 min 0,026 mm 0,0 UV-I 68 W/m -0,1 C -8,5 C 25,7 km/h (4 Bft) 100,00 %
19.12.2016 11:02 0,3 C 96 % 1029,7 hPa 0,0 l/m 17,3 km/h (3 Bft) O-NO 71 0 min 0,000 mm 0,0 UV-I 71 W/m -0,3 C -7,9 C 22,5 km/h (4 Bft) 98,11 %
19.12.2016 11:04 0,3 C 96 % 1029,6 hPa 0,0 l/m 13,3 km/h (3 Bft) O-NO 62 0 min 0,000 mm 0,0 UV-I 68 W/m -0,3 C -5,6 C 22,5 km/h (4 Bft) 100,00 %
19.12.2016 11:06 0,3 C 96 % 1029,6 hPa 0,0 l/m 15,9 km/h (3 Bft) NO 51 0 min 0,000 mm 0,0 UV-I 77 W/m -0,3 C -7,1 C 20,9 km/h (4 Bft) 100,00 %
19.12.2016 11:08 0,2 C 96 % 1029,6 hPa 0,0 l/m 14,9 km/h (3 Bft) O-NO 58 0 min 0,000 mm 0,0 UV-I 67 W/m -0,4 C -6,7 C 20,9 km/h (4 Bft) 100,00 %
19.12.2016 11:10 0,2 C 96 % 1029,6 hPa 0,0 l/m 19,2 km/h (3 Bft) NO 46 0 min 0,000 mm 0,0 UV-I 68 W/m -0,4 C -9,0 C 24,1 km/h (4 Bft) 95,12 %
19.12.2016 11:12 0,2 C 96 % 1029,5 hPa 0,0 l/m 19,3 km/h (3 Bft) NO 49 0 min 0,000 mm 0,0 UV-I 74 W/m -0,4 C -9,0 C 29,0 km/h (5 Bft) 98,11 %
19.12.2016 11:14 0,2 C 96 % 1029,6 hPa 0,0 l/m 16,3 km/h (3 Bft) NO 51 0 min 0,000 mm 0,0 UV-I 70 W/m -0,4 C -7,5 C 24,1 km/h (4 Bft) 97,37 %
19.12.2016 11:16 0,2 C 96 % 1029,7 hPa 0,0 l/m 14,7 km/h (3 Bft) O-NO 59 0 min 0,000 mm 0,0 UV-I 80 W/m -0,4 C -6,6 C 19,3 km/h (3 Bft) 98,11 %
19.12.2016 11:18 0,2 C 96 % 1029,6 hPa 0,0 l/m 16,0 km/h (3 Bft) O-NO 63 0 min 0,000 mm 0,0 UV-I 75 W/m -0,4 C -7,3 C 20,9 km/h (4 Bft) 97,73 %
19.12.2016 11:20 0,2 C 96 % 1029,6 hPa 0,0 l/m 13,0 km/h (3 Bft) O-NO 76 0 min 0,000 mm 0,0 UV-I 80 W/m -0,4 C -5,5 C 19,3 km/h (3 Bft) 97,62 %
19.12.2016 11:22 0,2 C 96 % 1029,7 hPa 0,0 l/m 17,3 km/h (3 Bft) O 92 0 min 0,000 mm 0,0 UV-I 75 W/m -0,4 C -8,0 C 20,9 km/h (4 Bft) 98,00 %
19.12.2016 11:24 0,2 C 96 % 1029,6 hPa 0,0 l/m 19,3 km/h (3 Bft) NO 53 0 min 0,000 mm 0,0 UV-I 68 W/m -0,4 C -9,0 C 24,1 km/h (4 Bft) 96,23 %
19.12.2016 11:26 0,2 C 96 % 1029,6 hPa 0,0 l/m 19,1 km/h (3 Bft) O-NO 63 0 min 0,000 mm 0,0 UV-I 81 W/m -0,4 C -8,9 C 24,1 km/h (4 Bft) 97,37 %
19.12.2016 11:28 0,2 C 96 % 1029,5 hPa 0,0 l/m 16,4 km/h (3 Bft) NO 38 0 min 0,000 mm 0,0 UV-I 78 W/m -0,4 C -7,5 C 22,5 km/h (4 Bft) 96,00 %
19.12.2016 11:30 0,2 C 96 % 1029,4 hPa 0,0 l/m 22,1 km/h (4 Bft) O-NO 59 0 min 0,000 mm 0,0 UV-I 77 W/m -0,4 C -10,3 C 29,0 km/h (5 Bft) 97,56 %
19.12.2016 11:32 0,2 C 96 % 1029,3 hPa 0,0 l/m 18,2 km/h (3 Bft) O-NO 59 0 min 0,000 mm 0,0 UV-I 88 W/m -0,4 C -8,5 C 24,1 km/h (4 Bft) 98,21 %
19.12.2016 11:34 0,2 C 96 % 1029,4 hPa 0,0 l/m 18,0 km/h (3 Bft) O-NO 62 0 min 0,000 mm 0,0 UV-I 88 W/m -0,4 C -8,4 C 24,1 km/h (4 Bft) 97,37 %
19.12.2016 11:36 0,2 C 96 % 1029,3 hPa 0,0 l/m 20,2 km/h (4 Bft) O-NO 63 0 min 0,000 mm 0,0 UV-I 79 W/m -0,4 C -9,5 C 30,6 km/h (5 Bft) 98,11 %
19.12.2016 11:38 0,2 C 96 % 1029,3 hPa 0,0 l/m 21,5 km/h (4 Bft) NO 40 0 min 0,000 mm 0,0 UV-I 83 W/m -0,4 C -10,0 C 29,0 km/h (5 Bft) 92,31 %
19.12.2016 11:40 0,2 C 96 % 1029,3 hPa 0,0 l/m 18,7 km/h (3 Bft) O-NO 61 0 min 0,000 mm 0,0 UV-I 93 W/m -0,4 C -8,8 C 22,5 km/h (4 Bft) 98,65 %
19.12.2016 11:42 0,2 C 96 % 1029,3 hPa 0,0 l/m 22,0 km/h (4 Bft) O-NO 61 0 min 0,000 mm 0,0 UV-I 97 W/m -0,4 C -10,3 C 29,0 km/h (5 Bft) 95,74 %
19.12.2016 11:44 0,2 C 96 % 1029,3 hPa 0,0 l/m 20,3 km/h (4 Bft) O-NO 64 0 min 0,000 mm 0,0 UV-I 92 W/m -0,4 C -9,5 C 30,6 km/h (5 Bft) 100,00 %
19.12.2016 11:46 0,2 C 96 % 1029,3 hPa 0,0 l/m 16,0 km/h (3 Bft) O-NO 67 0 min 0,000 mm 0,0 UV-I 91 W/m -0,4 C -7,3 C 20,9 km/h (4 Bft) 96,23 %
19.12.2016 11:48 0,2 C 96 % 1029,4 hPa 0,0 l/m 13,1 km/h (3 Bft) O-NO 57 0 min 0,000 mm 0,0 UV-I 93 W/m -0,4 C -5,5 C 17,7 km/h (3 Bft) 97,56 %
19.12.2016 11:50 0,3 C 96 % 1029,3 hPa 0,0 l/m 15,1 km/h (3 Bft) O-NO 65 0 min 0,000 mm 0,0 UV-I 92 W/m -0,3 C -6,7 C 24,1 km/h (4 Bft) 100,00 %
19.12.2016 11:53 0,3 C 96 % 1029,4 hPa 0,0 l/m 16,4 km/h (3 Bft) NO 45 0 min 0,000 mm 0,0 UV-I 98 W/m -0,3 C -7,4 C 25,7 km/h (4 Bft) 100,00 %
19.12.2016 11:54 0,3 C 96 % 1029,3 hPa 0,0 l/m 18,8 km/h (3 Bft) NO 46 0 min 0,000 mm 0,0 UV-I 99 W/m -0,3 C -8,7 C 22,5 km/h (4 Bft) 100,00 %
19.12.2016 11:56 0,3 C 96 % 1029,3 hPa 0,0 l/m 17,8 km/h (3 Bft) O-NO 66 0 min 0,000 mm 0,0 UV-I 97 W/m -0,3 C -8,2 C 22,5 km/h (4 Bft) 100,00 %
19.12.2016 11:58 0,3 C 96 % 1029,2 hPa 0,0 l/m 15,3 km/h (3 Bft) O-NO 66 0 min 0,000 mm 0,0 UV-I 83 W/m -0,3 C -6,8 C 19,3 km/h (3 Bft) 97,87 %
19.12.2016 12:00 0,3 C 96 % 1029,2 hPa 0,0 l/m 11,2 km/h (2 Bft) O-NO 58 0 min 0,025 mm 0,0 UV-I 87 W/m -0,3 C -4,1 C 16,1 km/h (3 Bft) 97,62 %
19.12.2016 12:02 0,3 C 96 % 1029,2 hPa 0,0 l/m 13,1 km/h (3 Bft) O-NO 71 0 min 0,000 mm 0,0 UV-I 91 W/m -0,3 C -5,4 C 19,3 km/h (3 Bft) 100,00 %
19.12.2016 12:04 0,3 C 96 % 1029,2 hPa 0,0 l/m 17,3 km/h (3 Bft) O-NO 60 0 min 0,000 mm 0,0 UV-I 102 W/m -0,3 C -7,9 C 22,5 km/h (4 Bft) 100,00 %
19.12.2016 12:06 0,3 C 96 % 1029,2 hPa 0,0 l/m 18,6 km/h (3 Bft) O-NO 65 0 min 0,000 mm 0,0 UV-I 110 W/m -0,3 C -8,6 C 22,5 km/h (4 Bft) 100,00 %
19.12.2016 12:08 0,3 C 96 % 1029,1 hPa 0,0 l/m 19,0 km/h (3 Bft) O-NO 61 0 min 0,000 mm 0,0 UV-I 98 W/m -0,3 C -8,8 C 22,5 km/h (4 Bft) 95,74 %
19.12.2016 12:10 0,3 C 96 % 1029,1 hPa 0,0 l/m 18,4 km/h (3 Bft) NO 54 0 min 0,000 mm 0,0 UV-I 96 W/m -0,3 C -8,5 C 24,1 km/h (4 Bft) 100,00 %
19.12.2016 12:12 0,3 C 96 % 1029,1 hPa 0,0 l/m 19,9 km/h (4 Bft) O-NO 77 0 min 0,000 mm 0,0 UV-I 103 W/m -0,3 C -9,2 C 25,7 km/h (4 Bft) 98,00 %
19.12.2016 12:14 0,3 C 96 % 1029,1 hPa 0,0 l/m 20,1 km/h (4 Bft) O-NO 65 0 min 0,000 mm 0,0 UV-I 118 W/m -0,3 C -9,3 C 24,1 km/h (4 Bft) 98,00 %
19.12.2016 12:16 0,3 C 95 % 1029,1 hPa 0,0 l/m 18,2 km/h (3 Bft) O-NO 71 0 min 0,000 mm 0,0 UV-I 127 W/m -0,4 C -8,4 C 24,1 km/h (4 Bft) 97,56 %
19.12.2016 12:18 0,3 C 96 % 1029,1 hPa 0,0 l/m 15,4 km/h (3 Bft) NO 53 0 min 0,000 mm 0,0 UV-I 113 W/m -0,3 C -6,9 C 20,9 km/h (4 Bft) 98,11 %
19.12.2016 12:20 0,3 C 96 % 1029,1 hPa 0,0 l/m 16,8 km/h (3 Bft) O-NO 61 0 min 0,000 mm 0,0 UV-I 129 W/m -0,3 C -7,6 C 24,1 km/h (4 Bft) 100,00 %
19.12.2016 12:22 0,3 C 96 % 1029,1 hPa 0,0 l/m 21,0 km/h (4 Bft) O-NO 68 0 min 0,000 mm 0,0 UV-I 124 W/m -0,3 C -9,7 C 29,0 km/h (5 Bft) 97,87 %
19.12.2016 12:24 0,3 C 96 % 1029,0 hPa 0,0 l/m 18,1 km/h (3 Bft) NO 52 0 min 0,000 mm 0,0 UV-I 126 W/m -0,3 C -8,3 C 25,7 km/h (4 Bft) 100,00 %
19.12.2016 12:26 0,4 C 95 % 1029,0 hPa 0,0 l/m 16,9 km/h (3 Bft) O-NO 67 0 min 0,000 mm 0,0 UV-I 130 W/m -0,3 C -7,6 C 24,1 km/h (4 Bft) 100,00 %
19.12.2016 12:28 0,4 C 95 % 1029,0 hPa 0,0 l/m 14,3 km/h (3 Bft) NO 55 0 min 0,000 mm 0,0 UV-I 127 W/m -0,3 C -6,1 C 19,3 km/h (3 Bft) 100,00 %
19.12.2016 12:30 0,4 C 95 % 1029,0 hPa 0,0 l/m 14,3 km/h (3 Bft) NO 49 0 min 0,000 mm 0,0 UV-I 136 W/m -0,3 C -6,1 C 19,3 km/h (3 Bft) 97,73 %
19.12.2016 12:32 0,4 C 95 % 1028,9 hPa 0,0 l/m 11,6 km/h (2 Bft) NO 38 0 min 0,000 mm 0,0 UV-I 141 W/m -0,3 C -4,3 C 19,3 km/h (3 Bft) 100,00 %
19.12.2016 12:34 0,5 C 95 % 1028,9 hPa 0,0 l/m 10,0 km/h (2 Bft) O-NO 57 0 min 0,000 mm 0,0 UV-I 139 W/m -0,2 C -2,9 C 16,1 km/h (3 Bft) 100,00 %
19.12.2016 12:36 0,5 C 95 % 1028,8 hPa 0,0 l/m 10,9 km/h (2 Bft) O-NO 64 0 min 0,000 mm 0,0 UV-I 128 W/m -0,2 C -3,6 C 16,1 km/h (3 Bft) 100,00 %
19.12.2016 12:38 0,5 C 95 % 1028,9 hPa 0,0 l/m 12,9 km/h (3 Bft) NO 47 0 min 0,000 mm 0,0 UV-I 128 W/m -0,2 C -5,0 C 20,9 km/h (4 Bft) 100,00 %
19.12.2016 12:40 0,5 C 95 % 1028,8 hPa 0,0 l/m 17,4 km/h (3 Bft) O-NO 57 0 min 0,000 mm 0,0 UV-I 132 W/m -0,2 C -7,7 C 24,1 km/h (4 Bft) 97,22 %
19.12.2016 12:42 0,6 C 95 % 1028,8 hPa 0,0 l/m 12,0 km/h (2 Bft) NO 54 0 min 0,000 mm 0,0 UV-I 153 W/m -0,1 C -4,3 C 16,1 km/h (3 Bft) 98,36 %
19.12.2016 12:44 0,6 C 95 % 1028,6 hPa 0,0 l/m 14,4 km/h (3 Bft) O-NO 65 0 min 0,000 mm 0,0 UV-I 163 W/m -0,1 C -5,9 C 19,3 km/h (3 Bft) 97,78 %
19.12.2016 12:46 0,6 C 95 % 1028,6 hPa 0,2 l/m 16,0 km/h (3 Bft) NO 55 0 min 0,000 mm 0,0 UV-I 153 W/m -0,1 C -6,8 C 22,5 km/h (4 Bft) 100,00 %
19.12.2016 12:48 0,6 C 95 % 1028,7 hPa 0,0 l/m 19,0 km/h (3 Bft) NO 40 0 min 0,000 mm 0,0 UV-I 134 W/m -0,1 C -8,4 C 25,7 km/h (4 Bft) 100,00 %
19.12.2016 12:50 0,6 C 95 % 1028,6 hPa 0,0 l/m 17,3 km/h (3 Bft) NO 54 0 min 0,000 mm 0,0 UV-I 142 W/m -0,1 C -7,5 C 24,1 km/h (4 Bft) 100,00 %
19.12.2016 12:52 0,6 C 95 % 1028,6 hPa 0,0 l/m 17,0 km/h (3 Bft) O-NO 59 0 min 0,000 mm 0,0 UV-I 153 W/m -0,1 C -7,4 C 20,9 km/h (4 Bft) 100,00 %
19.12.2016 12:54 0,7 C 95 % 1028,6 hPa 0,0 l/m 14,1 km/h (3 Bft) NO 53 0 min 0,000 mm 0,0 UV-I 166 W/m -0,0 C -5,6 C 20,9 km/h (4 Bft) 97,50 %
19.12.2016 12:56 0,7 C 95 % 1028,6 hPa 0,0 l/m 14,3 km/h (3 Bft) O 82 0 min 0,000 mm 0,0 UV-I 153 W/m -0,0 C -5,7 C 19,3 km/h (3 Bft) 100,00 %
19.12.2016 12:58 0,7 C 95 % 1028,7 hPa 0,0 l/m 15,8 km/h (3 Bft) NO 48 0 min 0,000 mm 0,0 UV-I 146 W/m -0,0 C -6,6 C 19,3 km/h (3 Bft) 100,00 %
19.12.2016 13:00 0,7 C 95 % 1028,7 hPa 0,2 l/m 17,3 km/h (3 Bft) NO 55 0 min 0,051 mm 0,0 UV-I 131 W/m -0,0 C -7,4 C 24,1 km/h (4 Bft) 97,56 %
19.12.2016 13:02 0,7 C 95 % 1028,9 hPa 0,0 l/m 16,2 km/h (3 Bft) NO 51 0 min 0,000 mm 0,0 UV-I 118 W/m -0,0 C -6,8 C 22,5 km/h (4 Bft) 100,00 %
19.12.2016 13:04 0,7 C 95 % 1028,8 hPa 0,0 l/m 11,7 km/h (2 Bft) NO 51 0 min 0,000 mm 0,0 UV-I 115 W/m -0,0 C -4,0 C 19,3 km/h (3 Bft) 100,00 %
19.12.2016 13:06 0,8 C 94 % 1028,8 hPa 0,0 l/m 16,3 km/h (3 Bft) NO 45 0 min 0,000 mm 0,0 UV-I 122 W/m -0,1 C -6,8 C 22,5 km/h (4 Bft) 100,00 %
19.12.2016 13:08 0,8 C 94 % 1028,8 hPa 0,0 l/m 12,4 km/h (3 Bft) NO 45 0 min 0,000 mm 0,0 UV-I 125 W/m -0,1 C -4,4 C 17,7 km/h (3 Bft) 98,00 %
19.12.2016 13:10 0,8 C 94 % 1028,8 hPa 0,0 l/m 7,4 km/h (2 Bft) NO 45 0 min 0,000 mm 0,0 UV-I 115 W/m -0,1 C -0,2 C 11,3 km/h (2 Bft) 100,00 %
19.12.2016 13:12 0,8 C 95 % 1028,7 hPa 0,2 l/m 6,8 km/h (2 Bft) O-NO 60 0 min 0,000 mm 0,0 UV-I 135 W/m 0,1 C 0,4 C 9,7 km/h (2 Bft) 96,23 %
19.12.2016 13:14 0,9 C 94 % 1028,6 hPa 0,0 l/m 6,6 km/h (2 Bft) NO 51 0 min 0,000 mm 0,0 UV-I 147 W/m 0,0 C 0,7 C 11,3 km/h (2 Bft) 100,00 %
19.12.2016 13:16 0,9 C 95 % 1028,6 hPa 0,0 l/m 9,9 km/h (2 Bft) NO 39 2 min 0,000 mm 0,0 UV-I 203 W/m 0,2 C -2,4 C 16,1 km/h (3 Bft) 97,56 %
19.12.2016 13:18 0,9 C 95 % 1028,6 hPa 0,0 l/m 8,0 km/h (2 Bft) NO 46 2 min 0,000 mm 0,0 UV-I 202 W/m 0,2 C -0,7 C 11,3 km/h (2 Bft) 98,11 %
19.12.2016 13:20 0,9 C 95 % 1028,6 hPa 0,0 l/m 8,9 km/h (2 Bft) N-NO 18 2 min 0,000 mm 0,0 UV-I 203 W/m 0,2 C -1,5 C 14,5 km/h (3 Bft) 98,00 %
19.12.2016 13:22 1,0 C 95 % 1028,6 hPa 0,0 l/m 12,9 km/h (3 Bft) NO 50 2 min 0,000 mm 0,0 UV-I 188 W/m 0,3 C -4,5 C 20,9 km/h (4 Bft) 97,62 %
19.12.2016 13:24 1,0 C 95 % 1028,6 hPa 0,0 l/m 9,8 km/h (2 Bft) NO 53 2 min 0,000 mm 0,0 UV-I 196 W/m 0,3 C -2,2 C 16,1 km/h (3 Bft) 98,08 %
19.12.2016 13:26 1,0 C 95 % 1028,4 hPa 0,0 l/m 11,2 km/h (2 Bft) O-NO 66 2 min 0,000 mm 0,0 UV-I 172 W/m 0,3 C -3,3 C 17,7 km/h (3 Bft) 97,44 %
19.12.2016 13:28 1,0 C 95 % 1028,5 hPa 0,2 l/m 13,0 km/h (3 Bft) O-NO 60 2 min 0,000 mm 0,0 UV-I 197 W/m 0,3 C -4,5 C 17,7 km/h (3 Bft) 98,00 %
19.12.2016 13:30 1,0 C 94 % 1028,5 hPa 0,0 l/m 12,9 km/h (3 Bft) O-NO 59 2 min 0,000 mm 0,0 UV-I 217 W/m 0,1 C -4,5 C 20,9 km/h (4 Bft) 95,45 %
19.12.2016 13:32 1,0 C 94 % 1028,5 hPa 0,0 l/m 16,5 km/h (3 Bft) NO 44 2 min 0,000 mm 0,0 UV-I 191 W/m 0,1 C -6,6 C 24,1 km/h (4 Bft) 98,28 %
19.12.2016 13:34 1,1 C 94 % 1028,5 hPa 0,0 l/m 15,9 km/h (3 Bft) NO 53 2 min 0,000 mm 0,0 UV-I 190 W/m 0,2 C -6,2 C 22,5 km/h (4 Bft) 97,37 %
19.12.2016 13:36 1,1 C 94 % 1028,4 hPa 0,2 l/m 15,5 km/h (3 Bft) O-NO 66 2 min 0,000 mm 0,0 UV-I 227 W/m 0,2 C -5,9 C 22,5 km/h (4 Bft) 98,11 %
19.12.2016 13:38 1,1 C 94 % 1028,4 hPa 0,0 l/m 13,8 km/h (3 Bft) O-NO 57 2 min 0,000 mm 0,0 UV-I 228 W/m 0,2 C -4,9 C 19,3 km/h (3 Bft) 94,29 %
19.12.2016 13:40 1,2 C 94 % 1028,5 hPa 0,0 l/m 14,2 km/h (3 Bft) NO 37 2 min 0,000 mm 0,0 UV-I 208 W/m 0,3 C -5,1 C 19,3 km/h (3 Bft) 96,43 %
19.12.2016 13:42 1,2 C 94 % 1028,4 hPa 0,0 l/m 14,9 km/h (3 Bft) O-NO 78 0 min 0,000 mm 0,0 UV-I 140 W/m 0,3 C -5,5 C 17,7 km/h (3 Bft) 97,73 %
19.12.2016 13:44 1,2 C 94 % 1028,4 hPa 0,0 l/m 11,2 km/h (2 Bft) O-NO 57 2 min 0,000 mm 0,0 UV-I 150 W/m 0,3 C -3,0 C 16,1 km/h (3 Bft) 95,45 %
19.12.2016 13:46 1,2 C 94 % 1028,4 hPa 0,0 l/m 13,0 km/h (3 Bft) NO 47 2 min 0,000 mm 0,0 UV-I 171 W/m 0,3 C -4,3 C 17,7 km/h (3 Bft) 96,43 %
19.12.2016 13:48 1,3 C 94 % 1028,4 hPa 0,0 l/m 11,3 km/h (2 Bft) NO 51 2 min 0,000 mm 0,0 UV-I 251 W/m 0,4 C -3,0 C 19,3 km/h (3 Bft) 100,00 %
19.12.2016 13:50 1,3 C 94 % 1028,3 hPa 0,2 l/m 12,1 km/h (2 Bft) NO 53 2 min 0,000 mm 0,0 UV-I 191 W/m 0,4 C -3,6 C 19,3 km/h (3 Bft) 98,00 %
19.12.2016 13:52 1,3 C 94 % 1028,5 hPa 0,0 l/m 15,7 km/h (3 Bft) O 82 2 min 0,000 mm 0,0 UV-I 194 W/m 0,4 C -5,8 C 22,5 km/h (4 Bft) 100,00 %
19.12.2016 13:54 1,3 C 93 % 1028,5 hPa 0,0 l/m 14,3 km/h (3 Bft) NO 53 2 min 0,000 mm 0,0 UV-I 219 W/m 0,3 C -5,0 C 17,7 km/h (3 Bft) 100,00 %
19.12.2016 13:56 1,3 C 93 % 1028,4 hPa 0,0 l/m 15,5 km/h (3 Bft) O 86 2 min 0,000 mm 0,0 UV-I 236 W/m 0,3 C -5,7 C 22,5 km/h (4 Bft) 100,00 %
19.12.2016 13:58 1,3 C 93 % 1028,4 hPa 0,2 l/m 17,7 km/h (3 Bft) NO 40 2 min 0,000 mm 0,0 UV-I 155 W/m 0,3 C -6,9 C 24,1 km/h (4 Bft) 100,00 %
19.12.2016 14:00 1,3 C 93 % 1028,4 hPa 0,0 l/m 16,7 km/h (3 Bft) O-NO 74 2 min 0,000 mm 0,0 UV-I 153 W/m 0,3 C -6,3 C 20,9 km/h (4 Bft) 100,00 %
19.12.2016 14:02 1,3 C 93 % 1028,4 hPa 0,0 l/m 14,5 km/h (3 Bft) NO 40 2 min 0,076 mm 0,0 UV-I 167 W/m 0,3 C -5,1 C 17,7 km/h (3 Bft) 100,00 %
19.12.2016 14:04 1,3 C 93 % 1028,4 hPa 0,0 l/m 10,3 km/h (2 Bft) O-NO 70 2 min 0,000 mm 0,0 UV-I 146 W/m 0,3 C -2,3 C 16,1 km/h (3 Bft) 100,00 %
19.12.2016 14:06 1,3 C 93 % 1028,3 hPa 0,0 l/m 12,2 km/h (2 Bft) NO 55 2 min 0,000 mm 0,0 UV-I 198 W/m 0,3 C -3,6 C 24,1 km/h (4 Bft) 100,00 %
19.12.2016 14:08 1,3 C 93 % 1028,3 hPa 0,0 l/m 19,2 km/h (3 Bft) O-NO 67 2 min 0,000 mm 0,0 UV-I 169 W/m 0,3 C -7,6 C 29,0 km/h (5 Bft) 98,31 %
19.12.2016 14:10 1,3 C 93 % 1028,3 hPa 0,0 l/m 18,5 km/h (3 Bft) O-NO 57 2 min 0,000 mm 0,0 UV-I 157 W/m 0,3 C -7,3 C 30,6 km/h (5 Bft) 100,00 %
19.12.2016 14:12 1,3 C 93 % 1028,4 hPa 0,2 l/m 17,3 km/h (3 Bft) O-NO 76 2 min 0,000 mm 0,0 UV-I 140 W/m 0,3 C -6,7 C 24,1 km/h (4 Bft) 100,00 %
19.12.2016 14:14 1,2 C 93 % 1028,4 hPa 0,0 l/m 15,1 km/h (3 Bft) NO 49 0 min 0,000 mm 0,0 UV-I 101 W/m 0,2 C -5,6 C 20,9 km/h (4 Bft) 100,00 %
19.12.2016 14:16 1,2 C 93 % 1028,3 hPa 0,0 l/m 16,7 km/h (3 Bft) O-NO 73 0 min 0,000 mm 0,0 UV-I 118 W/m 0,2 C -6,5 C 24,1 km/h (4 Bft) 100,00 %
19.12.2016 14:18 1,1 C 93 % 1028,3 hPa 0,0 l/m 17,9 km/h (3 Bft) O-NO 71 0 min 0,000 mm 0,0 UV-I 115 W/m 0,1 C -7,2 C 24,1 km/h (4 Bft) 100,00 %
19.12.2016 14:20 1,1 C 93 % 1028,2 hPa 0,0 l/m 15,6 km/h (3 Bft) O-NO 66 2 min 0,000 mm 0,0 UV-I 138 W/m 0,1 C -6,0 C 20,9 km/h (4 Bft) 100,00 %
19.12.2016 14:22 1,1 C 93 % 1028,3 hPa 0,0 l/m 18,3 km/h (3 Bft) O-NO 60 2 min 0,000 mm 0,0 UV-I 163 W/m 0,1 C -7,4 C 24,1 km/h (4 Bft) 98,21 %
19.12.2016 14:24 1,1 C 93 % 1028,3 hPa 0,0 l/m 15,8 km/h (3 Bft) O 84 2 min 0,000 mm 0,0 UV-I 144 W/m 0,1 C -6,1 C 25,7 km/h (4 Bft) 100,00 %
19.12.2016 14:26 1,1 C 94 % 1028,3 hPa 0,0 l/m 13,1 km/h (3 Bft) NO 54 2 min 0,000 mm 0,0 UV-I 153 W/m 0,2 C -4,5 C 20,9 km/h (4 Bft) 98,00 %
19.12.2016 14:28 1,1 C 94 % 1028,2 hPa 0,0 l/m 15,6 km/h (3 Bft) O-NO 70 2 min 0,000 mm 0,0 UV-I 155 W/m 0,2 C -6,0 C 20,9 km/h (4 Bft) 100,00 %
19.12.2016 14:30 1,1 C 94 % 1028,3 hPa 0,2 l/m 14,2 km/h (3 Bft) NO 49 2 min 0,000 mm 0,0 UV-I 126 W/m 0,2 C -5,2 C 20,9 km/h (4 Bft) 100,00 %
19.12.2016 14:32 1,1 C 94 % 1028,2 hPa 0,0 l/m 12,5 km/h (3 Bft) O-NO 71 2 min 0,000 mm 0,0 UV-I 153 W/m 0,2 C -4,1 C 17,7 km/h (3 Bft) 98,11 %
19.12.2016 14:34 1,1 C 94 % 1028,2 hPa 0,0 l/m 13,3 km/h (3 Bft) NO 50 2 min 0,000 mm 0,0 UV-I 154 W/m 0,2 C -4,6 C 17,7 km/h (3 Bft) 100,00 %
19.12.2016 14:36 1,1 C 94 % 1028,2 hPa 0,0 l/m 13,7 km/h (3 Bft) O-NO 63 2 min 0,000 mm 0,0 UV-I 132 W/m 0,2 C -4,9 C 17,7 km/h (3 Bft) 100,00 %
19.12.2016 14:38 1,2 C 94 % 1028,2 hPa 0,0 l/m 11,4 km/h (2 Bft) O-NO 61 2 min 0,000 mm 0,0 UV-I 125 W/m 0,3 C -3,2 C 17,7 km/h (3 Bft) 100,00 %
19.12.2016 14:40 1,1 C 94 % 1028,1 hPa 0,0 l/m 12,9 km/h (3 Bft) O-NO 60 2 min 0,000 mm 0,0 UV-I 114 W/m 0,2 C -4,3 C 17,7 km/h (3 Bft) 98,00 %
19.12.2016 14:42 1,1 C 94 % 1028,1 hPa 0,0 l/m 15,3 km/h (3 Bft) O-NO 63 2 min 0,000 mm 0,0 UV-I 98 W/m 0,2 C -5,8 C 25,7 km/h (4 Bft) 100,00 %
19.12.2016 14:44 1,1 C 94 % 1028,1 hPa 0,0 l/m 16,5 km/h (3 Bft) O-NO 60 0 min 0,000 mm 0,0 UV-I 82 W/m 0,2 C -6,5 C 20,9 km/h (4 Bft) 100,00 %
19.12.2016 14:46 1,1 C 94 % 1028,0 hPa 0,0 l/m 15,7 km/h (3 Bft) O 92 0 min 0,000 mm 0,0 UV-I 79 W/m 0,2 C -6,0 C 20,9 km/h (4 Bft) 98,11 %
19.12.2016 14:48 1,1 C 94 % 1028,1 hPa 0,0 l/m 14,9 km/h (3 Bft) O-NO 71 0 min 0,000 mm 0,0 UV-I 89 W/m 0,2 C -5,6 C 24,1 km/h (4 Bft) 100,00 %
19.12.2016 14:50 1,1 C 94 % 1028,1 hPa 0,0 l/m 14,5 km/h (3 Bft) NO 49 0 min 0,000 mm 0,0 UV-I 88 W/m 0,2 C -5,4 C 19,3 km/h (3 Bft) 98,00 %
19.12.2016 14:52 1,0 C 94 % 1028,2 hPa 0,0 l/m 15,5 km/h (3 Bft) O-NO 61 2 min 0,000 mm 0,0 UV-I 92 W/m 0,1 C -6,1 C 20,9 km/h (4 Bft) 100,00 %
19.12.2016 14:54 1,0 C 94 % 1028,1 hPa 0,0 l/m 16,1 km/h (3 Bft) O-NO 59 0 min 0,000 mm 0,0 UV-I 81 W/m 0,1 C -6,4 C 22,5 km/h (4 Bft) 100,00 %
19.12.2016 14:56 0,9 C 94 % 1028,0 hPa 0,0 l/m 12,8 km/h (3 Bft) O-NO 76 0 min 0,000 mm 0,0 UV-I 77 W/m 0,0 C -4,5 C 19,3 km/h (3 Bft) 98,00 %
19.12.2016 14:58 0,9 C 94 % 1028,0 hPa 0,2 l/m 16,4 km/h (3 Bft) O-NO 69 2 min 0,000 mm 0,0 UV-I 84 W/m 0,0 C -6,7 C 20,9 km/h (4 Bft) 100,00 %
19.12.2016 15:00 0,9 C 94 % 1028,0 hPa 0,0 l/m 16,8 km/h (3 Bft) O 90 0 min 0,051 mm 0,0 UV-I 70 W/m 0,0 C -6,9 C 22,5 km/h (4 Bft) 100,00 %
19.12.2016 15:02 0,9 C 94 % 1028,0 hPa 0,0 l/m 17,1 km/h (3 Bft) O-NO 71 2 min 0,000 mm 0,0 UV-I 89 W/m 0,0 C -7,1 C 24,1 km/h (4 Bft) 100,00 %
19.12.2016 15:04 0,9 C 94 % 1028,0 hPa 0,0 l/m 13,5 km/h (3 Bft) O 87 2 min 0,000 mm 0,0 UV-I 86 W/m 0,0 C -5,0 C 19,3 km/h (3 Bft) 100,00 %
19.12.2016 15:06 0,9 C 94 % 1027,9 hPa 0,0 l/m 15,3 km/h (3 Bft) O-NO 74 0 min 0,000 mm 0,0 UV-I 70 W/m 0,0 C -6,1 C 19,3 km/h (3 Bft) 100,00 %
19.12.2016 15:08 0,8 C 94 % 1027,9 hPa 0,0 l/m 14,2 km/h (3 Bft) O-NO 64 0 min 0,000 mm 0,0 UV-I 64 W/m -0,1 C -5,5 C 17,7 km/h (3 Bft) 98,00 %
19.12.2016 15:10 0,8 C 94 % 1027,9 hPa 0,0 l/m 13,9 km/h (3 Bft) O-NO 67 0 min 0,000 mm 0,0 UV-I 65 W/m -0,1 C -5,3 C 19,3 km/h (3 Bft) 96,23 %
19.12.2016 15:12 0,8 C 94 % 1027,9 hPa 0,0 l/m 16,4 km/h (3 Bft) O-NO 66 2 min 0,000 mm 0,0 UV-I 71 W/m -0,1 C -6,8 C 20,9 km/h (4 Bft) 97,56 %
19.12.2016 15:14 0,8 C 94 % 1027,8 hPa 0,0 l/m 18,3 km/h (3 Bft) O-SO 112 2 min 0,000 mm 0,0 UV-I 75 W/m -0,1 C -7,8 C 24,1 km/h (4 Bft) 98,00 %
19.12.2016 15:16 0,9 C 95 % 1027,7 hPa 0,0 l/m 15,4 km/h (3 Bft) O 90 2 min 0,000 mm 0,0 UV-I 63 W/m 0,2 C -6,1 C 19,3 km/h (3 Bft) 97,87 %
19.12.2016 15:18 0,8 C 95 % 1027,8 hPa 0,0 l/m 13,6 km/h (3 Bft) O-NO 67 2 min 0,000 mm 0,0 UV-I 73 W/m 0,1 C -5,2 C 19,3 km/h (3 Bft) 97,87 %
19.12.2016 15:20 0,8 C 94 % 1027,8 hPa 0,0 l/m 14,1 km/h (3 Bft) O-NO 71 0 min 0,000 mm 0,0 UV-I 56 W/m -0,1 C -5,5 C 20,9 km/h (4 Bft) 97,87 %
19.12.2016 15:22 0,8 C 94 % 1027,7 hPa 0,0 l/m 14,4 km/h (3 Bft) O-NO 73 0 min 0,000 mm 0,0 UV-I 41 W/m -0,1 C -5,7 C 19,3 km/h (3 Bft) 97,44 %
19.12.2016 15:24 0,8 C 94 % 1027,8 hPa 0,0 l/m 16,6 km/h (3 Bft) O-NO 61 0 min 0,000 mm 0,0 UV-I 35 W/m -0,1 C -6,9 C 22,5 km/h (4 Bft) 96,00 %
19.12.2016 15:26 0,7 C 94 % 1027,8 hPa 0,0 l/m 15,4 km/h (3 Bft) O-NO 70 0 min 0,000 mm 0,0 UV-I 33 W/m -0,2 C -6,4 C 22,5 km/h (4 Bft) 96,00 %
19.12.2016 15:28 0,7 C 95 % 1027,9 hPa 0,0 l/m 11,9 km/h (2 Bft) O 86 0 min 0,000 mm 0,0 UV-I 38 W/m -0,0 C -4,1 C 17,7 km/h (3 Bft) 97,37 %
19.12.2016 15:30 0,7 C 95 % 1027,8 hPa 0,0 l/m 15,3 km/h (3 Bft) O-NO 78 0 min 0,000 mm 0,0 UV-I 34 W/m -0,0 C -6,3 C 20,9 km/h (4 Bft) 96,23 %
19.12.2016 15:32 0,7 C 95 % 1027,8 hPa 0,0 l/m 14,1 km/h (3 Bft) O-SO 104 0 min 0,000 mm 0,0 UV-I 29 W/m -0,0 C -5,6 C 19,3 km/h (3 Bft) 98,00 %
19.12.2016 15:34 0,7 C 95 % 1027,8 hPa 0,0 l/m 12,0 km/h (2 Bft) O 96 0 min 0,000 mm 0,0 UV-I 27 W/m -0,0 C -4,2 C 22,5 km/h (4 Bft) 97,87 %
19.12.2016 15:36 0,7 C 95 % 1027,8 hPa 0,0 l/m 14,0 km/h (3 Bft) O-NO 69 0 min 0,000 mm 0,0 UV-I 24 W/m -0,0 C -5,5 C 19,3 km/h (3 Bft) 95,74 %
19.12.2016 15:38 0,7 C 95 % 1027,8 hPa 0,0 l/m 14,3 km/h (3 Bft) O-NO 64 0 min 0,000 mm 0,0 UV-I 24 W/m -0,0 C -5,7 C 20,9 km/h (4 Bft) 97,14 %
19.12.2016 15:40 0,7 C 95 % 1027,8 hPa 0,0 l/m 16,1 km/h (3 Bft) O-NO 71 0 min 0,000 mm 0,0 UV-I 22 W/m -0,0 C -6,8 C 20,9 km/h (4 Bft) 98,00 %
19.12.2016 15:42 0,7 C 95 % 1027,8 hPa 0,0 l/m 15,7 km/h (3 Bft) O-NO 72 0 min 0,000 mm 0,0 UV-I 22 W/m -0,0 C -6,5 C 20,9 km/h (4 Bft) 98,21 %
19.12.2016 15:44 0,7 C 95 % 1027,8 hPa 0,0 l/m 15,4 km/h (3 Bft) O-NO 61 0 min 0,000 mm 0,0 UV-I 18 W/m -0,0 C -6,4 C 22,5 km/h (4 Bft) 100,00 %
19.12.2016 15:46 0,7 C 95 % 1027,8 hPa 0,0 l/m 14,5 km/h (3 Bft) O 82 0 min 0,000 mm 0,0 UV-I 17 W/m -0,0 C -5,8 C 19,3 km/h (3 Bft) 97,56 %
19.12.2016 15:48 0,7 C 95 % 1027,7 hPa 0,0 l/m 15,6 km/h (3 Bft) O-NO 75 0 min 0,000 mm 0,0 UV-I 16 W/m -0,0 C -6,5 C 22,5 km/h (4 Bft) 95,74 %
19.12.2016 15:50 0,7 C 95 % 1027,7 hPa 0,0 l/m 15,3 km/h (3 Bft) NO 46 0 min 0,000 mm 0,0 UV-I 15 W/m -0,0 C -6,3 C 20,9 km/h (4 Bft) 100,00 %
19.12.2016 15:52 0,7 C 95 % 1027,8 hPa 0,0 l/m 14,2 km/h (3 Bft) O-NO 61 0 min 0,000 mm 0,0 UV-I 14 W/m -0,0 C -5,7 C 17,7 km/h (3 Bft) 100,00 %
19.12.2016 15:54 0,7 C 95 % 1027,8 hPa 0,0 l/m 17,8 km/h (3 Bft) O-NO 77 0 min 0,000 mm 0,0 UV-I 13 W/m -0,0 C -7,7 C 24,1 km/h (4 Bft) 100,00 %
19.12.2016 15:56 0,7 C 95 % 1027,7 hPa 0,0 l/m 14,1 km/h (3 Bft) O-NO 62 0 min 0,000 mm 0,0 UV-I 11 W/m -0,0 C -5,6 C 20,9 km/h (4 Bft) 100,00 %
19.12.2016 15:58 0,7 C 95 % 1027,7 hPa 0,0 l/m 16,9 km/h (3 Bft) O-NO 57 2 min 0,000 mm 0,0 UV-I 11 W/m -0,0 C -7,2 C 25,7 km/h (4 Bft) 100,00 %
19.12.2016 16:00 0,7 C 95 % 1027,7 hPa 0,0 l/m 17,5 km/h (3 Bft) NO 53 0 min 0,000 mm 0,0 UV-I 9 W/m -0,0 C -7,5 C 22,5 km/h (4 Bft) 100,00 %
19.12.2016 16:02 0,7 C 95 % 1027,8 hPa 0,2 l/m 12,9 km/h (3 Bft) O-NO 78 0 min 0,025 mm 0,0 UV-I 9 W/m -0,0 C -4,8 C 19,3 km/h (3 Bft) 100,00 %
19.12.2016 16:04 0,7 C 95 % 1027,8 hPa 0,0 l/m 15,0 km/h (3 Bft) O-NO 74 0 min 0,000 mm 0,0 UV-I 7 W/m -0,0 C -6,1 C 20,9 km/h (4 Bft) 100,00 %
19.12.2016 16:06 0,7 C 95 % 1027,8 hPa 0,0 l/m 15,3 km/h (3 Bft) O 92 0 min 0,000 mm 0,0 UV-I 7 W/m -0,0 C -6,3 C 20,9 km/h (4 Bft) 100,00 %
19.12.2016 16:08 0,7 C 95 % 1027,7 hPa 0,0 l/m 11,9 km/h (2 Bft) O-NO 71 0 min 0,000 mm 0,0 UV-I 7 W/m -0,0 C -4,1 C 16,1 km/h (3 Bft) 100,00 %
19.12.2016 16:10 0,7 C 95 % 1027,7 hPa 0,0 l/m 10,6 km/h (2 Bft) O-NO 59 0 min 0,000 mm 0,0 UV-I 7 W/m -0,0 C -3,2 C 17,7 km/h (3 Bft) 100,00 %
19.12.2016 16:12 0,7 C 95 % 1027,7 hPa 0,0 l/m 10,0 km/h (2 Bft) O-NO 71 0 min 0,000 mm 0,0 UV-I 5 W/m -0,0 C -2,7 C 16,1 km/h (3 Bft) 97,37 %
19.12.2016 16:14 0,7 C 95 % 1027,6 hPa 0,0 l/m 14,4 km/h (3 Bft) O-NO 59 0 min 0,000 mm 0,0 UV-I 5 W/m -0,0 C -5,8 C 19,3 km/h (3 Bft) 100,00 %
19.12.2016 16:16 0,7 C 95 % 1027,6 hPa 0,0 l/m 16,7 km/h (3 Bft) O-NO 69 0 min 0,000 mm 0,0 UV-I 5 W/m -0,0 C -7,1 C 22,5 km/h (4 Bft) 100,00 %
19.12.2016 16:18 0,7 C 95 % 1027,6 hPa 0,0 l/m 16,6 km/h (3 Bft) O-NO 69 0 min 0,000 mm 0,0 UV-I 5 W/m -0,0 C -7,0 C 22,5 km/h (4 Bft) 100,00 %
19.12.2016 16:20 0,7 C 96 % 1027,6 hPa 0,0 l/m 18,3 km/h (3 Bft) O 79 0 min 0,000 mm 0,0 UV-I 5 W/m 0,1 C -7,9 C 22,5 km/h (4 Bft) 98,00 %
19.12.2016 16:22 0,7 C 96 % 1027,6 hPa 0,0 l/m 15,3 km/h (3 Bft) O-NO 66 0 min 0,000 mm 0,0 UV-I 3 W/m 0,1 C -6,3 C 22,5 km/h (4 Bft) 100,00 %
19.12.2016 16:24 0,7 C 96 % 1027,6 hPa 0,0 l/m 16,8 km/h (3 Bft) O-NO 60 0 min 0,000 mm 0,0 UV-I 0 W/m 0,1 C -7,1 C 20,9 km/h (4 Bft) 100,00 %
19.12.2016 16:26 0,7 C 96 % 1027,7 hPa 0,0 l/m 19,8 km/h (3 Bft) O-NO 73 0 min 0,000 mm 0,0 UV-I 0 W/m 0,1 C -8,6 C 27,4 km/h (4 Bft) 100,00 %
19.12.2016 16:28 0,7 C 96 % 1027,7 hPa 0,0 l/m 14,6 km/h (3 Bft) O-NO 65 0 min 0,000 mm 0,0 UV-I 0 W/m 0,1 C -5,9 C 22,5 km/h (4 Bft) 100,00 %
19.12.2016 16:30 0,7 C 96 % 1027,8 hPa 0,0 l/m 15,4 km/h (3 Bft) O-NO 67 0 min 0,000 mm 0,0 UV-I 0 W/m 0,1 C -6,4 C 22,5 km/h (4 Bft) 100,00 %
19.12.2016 16:32 0,7 C 96 % 1027,7 hPa 0,0 l/m 14,9 km/h (3 Bft) O-NO 58 0 min 0,000 mm 0,0 UV-I 0 W/m 0,1 C -6,1 C 19,3 km/h (3 Bft) 100,00 %
19.12.2016 16:34 0,7 C 96 % 1027,7 hPa 0,0 l/m 17,3 km/h (3 Bft) O-NO 66 0 min 0,000 mm 0,0 UV-I 0 W/m 0,1 C -7,4 C 22,5 km/h (4 Bft) 100,00 %
19.12.2016 16:36 0,7 C 96 % 1027,8 hPa 0,0 l/m 14,6 km/h (3 Bft) O 79 0 min 0,000 mm 0,0 UV-I 0 W/m 0,1 C -5,9 C 22,5 km/h (4 Bft) 100,00 %
19.12.2016 16:38 0,7 C 96 % 1027,8 hPa 0,0 l/m 15,9 km/h (3 Bft) O-NO 67 0 min 0,000 mm 0,0 UV-I 0 W/m 0,1 C -6,7 C 20,9 km/h (4 Bft) 100,00 %
19.12.2016 16:40 0,7 C 96 % 1027,8 hPa 0,0 l/m 17,0 km/h (3 Bft) NO 55 0 min 0,000 mm 0,0 UV-I 0 W/m 0,1 C -7,3 C 24,1 km/h (4 Bft) 100,00 %
19.12.2016 16:42 0,7 C 96 % 1027,8 hPa 0,0 l/m 15,1 km/h (3 Bft) O-NO 62 0 min 0,000 mm 0,0 UV-I 0 W/m 0,1 C -6,2 C 20,9 km/h (4 Bft) 100,00 %
19.12.2016 16:44 0,7 C 96 % 1027,8 hPa 0,0 l/m 15,5 km/h (3 Bft) O-NO 78 0 min 0,000 mm 0,0 UV-I 0 W/m 0,1 C -6,4 C 20,9 km/h (4 Bft) 97,83 %
19.12.2016 16:46 0,7 C 96 % 1027,8 hPa 0,0 l/m 15,0 km/h (3 Bft) O-NO 74 0 min 0,000 mm 0,0 UV-I 0 W/m 0,1 C -6,1 C 17,7 km/h (3 Bft) 100,00 %
19.12.2016 16:48 0,7 C 96 % 1027,7 hPa 0,0 l/m 13,0 km/h (3 Bft) O-NO 70 0 min 0,000 mm 0,0 UV-I 0 W/m 0,1 C -4,9 C 19,3 km/h (3 Bft) 100,00 %
19.12.2016 16:50 0,7 C 96 % 1027,7 hPa 0,0 l/m 16,3 km/h (3 Bft) NO 52 0 min 0,000 mm 0,0 UV-I 0 W/m 0,1 C -6,9 C 24,1 km/h (4 Bft) 100,00 %
19.12.2016 16:52 0,7 C 96 % 1027,6 hPa 0,0 l/m 17,6 km/h (3 Bft) O-NO 66 0 min 0,000 mm 0,0 UV-I 0 W/m 0,1 C -7,6 C 24,1 km/h (4 Bft) 100,00 %
19.12.2016 16:54 0,7 C 96 % 1027,6 hPa 0,0 l/m 18,4 km/h (3 Bft) O-NO 61 0 min 0,000 mm 0,0 UV-I 0 W/m 0,1 C -8,0 C 22,5 km/h (4 Bft) 100,00 %
19.12.2016 16:56 0,7 C 96 % 1027,7 hPa 0,0 l/m 18,4 km/h (3 Bft) O-NO 58 0 min 0,000 mm 0,0 UV-I 0 W/m 0,1 C -8,0 C 25,7 km/h (4 Bft) 100,00 %
19.12.2016 16:58 0,7 C 96 % 1027,8 hPa 0,0 l/m 14,6 km/h (3 Bft) NO 51 0 min 0,000 mm 0,0 UV-I 0 W/m 0,1 C -5,9 C 20,9 km/h (4 Bft) 100,00 %
19.12.2016 17:00 0,7 C 96 % 1027,8 hPa 0,0 l/m 15,5 km/h (3 Bft) O-NO 69 0 min 0,000 mm 0,0 UV-I 0 W/m 0,1 C -6,4 C 24,1 km/h (4 Bft) 97,56 %
19.12.2016 17:02 0,7 C 96 % 1027,8 hPa 0,0 l/m 16,7 km/h (3 Bft) O 92 0 min 0,000 mm 0,0 UV-I 0 W/m 0,1 C -7,1 C 24,1 km/h (4 Bft) 100,00 %
19.12.2016 17:04 0,6 C 96 % 1027,7 hPa 0,0 l/m 15,6 km/h (3 Bft) O-NO 58 0 min 0,000 mm 0,0 UV-I 0 W/m 0,0 C -6,6 C 20,9 km/h (4 Bft) 100,00 %
19.12.2016 17:06 0,6 C 96 % 1027,7 hPa 0,0 l/m 13,3 km/h (3 Bft) O-NO 71 0 min 0,000 mm 0,0 UV-I 0 W/m 0,0 C -5,2 C 19,3 km/h (3 Bft) 100,00 %
19.12.2016 17:08 0,7 C 96 % 1027,7 hPa 0,0 l/m 17,6 km/h (3 Bft) O 95 0 min 0,000 mm 0,0 UV-I 0 W/m 0,1 C -7,6 C 24,1 km/h (4 Bft) 100,00 %
19.12.2016 17:10 0,6 C 96 % 1027,7 hPa 0,0 l/m 11,0 km/h (2 Bft) O-NO 69 0 min 0,000 mm 0,0 UV-I 0 W/m 0,0 C -3,6 C 19,3 km/h (3 Bft) 98,21 %
19.12.2016 17:12 0,6 C 96 % 1027,7 hPa 0,0 l/m 12,1 km/h (2 Bft) O-NO 76 0 min 0,000 mm 0,0 UV-I 0 W/m 0,0 C -4,4 C 19,3 km/h (3 Bft) 97,56 %
19.12.2016 17:14 0,6 C 96 % 1027,7 hPa 0,0 l/m 12,8 km/h (3 Bft) O-NO 67 0 min 0,000 mm 0,0 UV-I 0 W/m 0,0 C -4,9 C 19,3 km/h (3 Bft) 97,73 %
19.12.2016 17:16 0,6 C 96 % 1027,6 hPa 0,0 l/m 14,2 km/h (3 Bft) O 84 0 min 0,000 mm 0,0 UV-I 0 W/m 0,0 C -5,8 C 22,5 km/h (4 Bft) 96,00 %
19.12.2016 17:18 0,6 C 96 % 1027,7 hPa 0,0 l/m 16,4 km/h (3 Bft) O-NO 66 0 min 0,000 mm 0,0 UV-I 0 W/m 0,0 C -7,1 C 22,5 km/h (4 Bft) 97,87 %
19.12.2016 17:20 0,6 C 96 % 1027,7 hPa 0,0 l/m 18,7 km/h (3 Bft) O 80 0 min 0,000 mm 0,0 UV-I 0 W/m 0,0 C -8,2 C 27,4 km/h (4 Bft) 100,00 %
19.12.2016 17:22 0,6 C 96 % 1027,8 hPa 0,0 l/m 14,5 km/h (3 Bft) O-NO 73 0 min 0,000 mm 0,0 UV-I 0 W/m 0,0 C -6,0 C 24,1 km/h (4 Bft) 96,77 %
19.12.2016 17:24 0,6 C 96 % 1027,7 hPa 0,0 l/m 10,9 km/h (2 Bft) O-NO 77 0 min 0,000 mm 0,0 UV-I 0 W/m 0,0 C -3,5 C 17,7 km/h (3 Bft) 98,11 %
19.12.2016 17:26 0,6 C 96 % 1027,7 hPa 0,0 l/m 13,5 km/h (3 Bft) O 101 0 min 0,000 mm 0,0 UV-I 0 W/m 0,0 C -5,3 C 22,5 km/h (4 Bft) 95,35 %
19.12.2016 17:28 0,6 C 96 % 1027,7 hPa 0,0 l/m 12,9 km/h (3 Bft) O-NO 62 0 min 0,000 mm 0,0 UV-I 0 W/m 0,0 C -4,9 C 22,5 km/h (4 Bft) 94,55 %
19.12.2016 17:30 0,6 C 96 % 1027,8 hPa 0,0 l/m 13,7 km/h (3 Bft) O 85 0 min 0,000 mm 0,0 UV-I 0 W/m 0,0 C -5,5 C 17,7 km/h (3 Bft) 100,00 %
19.12.2016 17:32 0,6 C 96 % 1027,8 hPa 0,0 l/m 17,3 km/h (3 Bft) O-NO 70 0 min 0,000 mm 0,0 UV-I 0 W/m 0,0 C -7,5 C 25,7 km/h (4 Bft) 97,73 %
19.12.2016 17:34 0,6 C 96 % 1027,8 hPa 0,0 l/m 16,6 km/h (3 Bft) O-NO 68 0 min 0,000 mm 0,0 UV-I 0 W/m 0,0 C -7,2 C 22,5 km/h (4 Bft) 95,45 %
19.12.2016 17:36 0,6 C 96 % 1027,8 hPa 0,0 l/m 11,6 km/h (2 Bft) O-NO 61 0 min 0,000 mm 0,0 UV-I 0 W/m 0,0 C -4,0 C 16,1 km/h (3 Bft) 96,72 %
19.12.2016 17:38 0,6 C 96 % 1027,9 hPa 0,0 l/m 10,0 km/h (2 Bft) O-NO 69 0 min 0,000 mm 0,0 UV-I 0 W/m 0,0 C -2,8 C 16,1 km/h (3 Bft) 96,55 %
19.12.2016 17:40 0,6 C 96 % 1027,9 hPa 0,0 l/m 17,7 km/h (3 Bft) NO 51 0 min 0,000 mm 0,0 UV-I 0 W/m 0,0 C -7,7 C 22,5 km/h (4 Bft) 98,11 %
19.12.2016 17:42 0,6 C 96 % 1027,9 hPa 0,0 l/m 13,5 km/h (3 Bft) O-NO 59 0 min 0,000 mm 0,0 UV-I 0 W/m 0,0 C -5,3 C 19,3 km/h (3 Bft) 98,21 %
19.12.2016 17:44 0,6 C 96 % 1028,0 hPa 0,0 l/m 15,4 km/h (3 Bft) O-NO 75 0 min 0,000 mm 0,0 UV-I 0 W/m 0,0 C -6,5 C 22,5 km/h (4 Bft) 96,15 %
19.12.2016 17:46 0,6 C 96 % 1028,0 hPa 0,0 l/m 14,2 km/h (3 Bft) NO 53 0 min 0,000 mm 0,0 UV-I 0 W/m 0,0 C -5,8 C 20,9 km/h (4 Bft) 97,06 %
19.12.2016 17:48 0,6 C 96 % 1028,0 hPa 0,0 l/m 11,3 km/h (2 Bft) NO 53 0 min 0,000 mm 0,0 UV-I 0 W/m 0,0 C -3,8 C 17,7 km/h (3 Bft) 97,56 %
19.12.2016 17:50 0,6 C 96 % 1028,0 hPa 0,0 l/m 12,4 km/h (3 Bft) O-NO 65 0 min 0,000 mm 0,0 UV-I 0 W/m 0,0 C -4,6 C 19,3 km/h (3 Bft) 97,87 %
19.12.2016 17:52 0,6 C 96 % 1028,0 hPa 0,0 l/m 14,2 km/h (3 Bft) NO 41 0 min 0,000 mm 0,0 UV-I 0 W/m 0,0 C -5,8 C 17,7 km/h (3 Bft) 98,00 %
19.12.2016 17:54 0,6 C 96 % 1028,1 hPa 0,0 l/m 11,1 km/h (2 Bft) O-NO 67 0 min 0,000 mm 0,0 UV-I 0 W/m 0,0 C -3,7 C 20,9 km/h (4 Bft) 100,00 %
19.12.2016 17:56 0,6 C 96 % 1028,0 hPa 0,0 l/m 13,6 km/h (3 Bft) O-NO 65 0 min 0,000 mm 0,0 UV-I 0 W/m 0,0 C -5,4 C 17,7 km/h (3 Bft) 100,00 %
19.12.2016 17:58 0,6 C 96 % 1028,1 hPa 0,0 l/m 12,7 km/h (3 Bft) O-NO 63 0 min 0,000 mm 0,0 UV-I 0 W/m 0,0 C -4,8 C 22,5 km/h (4 Bft) 100,00 %
19.12.2016 18:00 0,6 C 96 % 1028,1 hPa 0,0 l/m 16,7 km/h (3 Bft) NO 48 0 min 0,000 mm 0,0 UV-I 0 W/m 0,0 C -7,2 C 24,1 km/h (4 Bft) 97,37 %
19.12.2016 18:02 0,6 C 96 % 1028,1 hPa 0,0 l/m 17,3 km/h (3 Bft) O-NO 69 0 min 0,000 mm 0,0 UV-I 0 W/m 0,0 C -7,5 C 24,1 km/h (4 Bft) 100,00 %
19.12.2016 18:04 0,6 C 96 % 1028,1 hPa 0,0 l/m 12,9 km/h (3 Bft) O 81 0 min 0,000 mm 0,0 UV-I 0 W/m 0,0 C -4,9 C 19,3 km/h (3 Bft) 100,00 %
19.12.2016 18:06 0,6 C 96 % 1028,1 hPa 0,0 l/m 14,7 km/h (3 Bft) NO 44 0 min 0,000 mm 0,0 UV-I 0 W/m 0,0 C -6,1 C 20,9 km/h (4 Bft) 100,00 %
19.12.2016 18:08 0,5 C 96 % 1028,1 hPa 0,0 l/m 15,2 km/h (3 Bft) O-NO 71 0 min 0,000 mm 0,0 UV-I 0 W/m -0,1 C -6,5 C 20,9 km/h (4 Bft) 100,00 %
19.12.2016 18:10 0,5 C 96 % 1028,0 hPa 0,0 l/m 15,3 km/h (3 Bft) NO 51 0 min 0,000 mm 0,0 UV-I 0 W/m -0,1 C -6,6 C 24,1 km/h (4 Bft) 100,00 %
19.12.2016 18:12 0,5 C 96 % 1027,9 hPa 0,2 l/m 16,8 km/h (3 Bft) O-NO 61 0 min 0,000 mm 0,0 UV-I 0 W/m -0,1 C -7,4 C 24,1 km/h (4 Bft) 98,21 %
19.12.2016 18:14 0,4 C 96 % 1027,9 hPa 0,0 l/m 21,9 km/h (4 Bft) NO 51 0 min 0,000 mm 0,0 UV-I 0 W/m -0,2 C -10,0 C 27,4 km/h (4 Bft) 100,00 %
19.12.2016 18:16 0,4 C 96 % 1027,8 hPa 0,0 l/m 24,9 km/h (4 Bft) NO 55 0 min 0,000 mm 0,0 UV-I 0 W/m -0,2 C -11,1 C 32,2 km/h (5 Bft) 100,00 %
19.12.2016 18:18 0,4 C 96 % 1027,8 hPa 0,0 l/m 23,8 km/h (4 Bft) O-NO 77 0 min 0,000 mm 0,0 UV-I 0 W/m -0,2 C -10,7 C 29,0 km/h (5 Bft) 100,00 %
19.12.2016 18:20 0,3 C 96 % 1027,7 hPa 0,0 l/m 24,4 km/h (4 Bft) NO 51 0 min 0,000 mm 0,0 UV-I 0 W/m -0,3 C -11,1 C 32,2 km/h (5 Bft) 100,00 %
19.12.2016 18:22 0,3 C 96 % 1027,8 hPa 0,0 l/m 26,2 km/h (4 Bft) O-NO 63 0 min 0,000 mm 0,0 UV-I 0 W/m -0,3 C -11,7 C 32,2 km/h (5 Bft) 100,00 %
19.12.2016 18:24 0,3 C 96 % 1027,8 hPa 0,0 l/m 20,0 km/h (4 Bft) O-NO 63 0 min 0,000 mm 0,0 UV-I 0 W/m -0,3 C -9,2 C 27,4 km/h (4 Bft) 100,00 %
19.12.2016 18:26 0,3 C 96 % 1027,8 hPa 0,0 l/m 20,7 km/h (4 Bft) O-NO 62 0 min 0,000 mm 0,0 UV-I 0 W/m -0,3 C -9,6 C 27,4 km/h (4 Bft) 100,00 %
19.12.2016 18:28 0,3 C 96 % 1027,7 hPa 0,0 l/m 24,3 km/h (4 Bft) O-NO 71 0 min 0,000 mm 0,0 UV-I 0 W/m -0,3 C -11,0 C 30,6 km/h (5 Bft) 98,00 %
19.12.2016 18:30 0,3 C 96 % 1027,7 hPa 0,0 l/m 21,5 km/h (4 Bft) NO 48 0 min 0,000 mm 0,0 UV-I 0 W/m -0,3 C -9,9 C 27,4 km/h (4 Bft) 100,00 %
19.12.2016 18:32 0,3 C 96 % 1027,8 hPa 0,0 l/m 17,3 km/h (3 Bft) O-NO 62 0 min 0,000 mm 0,0 UV-I 0 W/m -0,3 C -7,9 C 20,9 km/h (4 Bft) 100,00 %
19.12.2016 18:34 0,3 C 96 % 1027,8 hPa 0,0 l/m 18,5 km/h (3 Bft) O-NO 76 0 min 0,000 mm 0,0 UV-I 0 W/m -0,3 C -8,5 C 27,4 km/h (4 Bft) 97,87 %
19.12.2016 18:36 0,3 C 96 % 1027,9 hPa 0,0 l/m 13,7 km/h (3 Bft) O 93 0 min 0,000 mm 0,0 UV-I 0 W/m -0,3 C -5,8 C 19,3 km/h (3 Bft) 100,00 %
19.12.2016 18:38 0,3 C 96 % 1027,9 hPa 0,0 l/m 20,4 km/h (4 Bft) O 95 0 min 0,000 mm 0,0 UV-I 0 W/m -0,3 C -9,4 C 29,0 km/h (5 Bft) 100,00 %
19.12.2016 18:40 0,3 C 96 % 1027,9 hPa 0,0 l/m 18,4 km/h (3 Bft) O-NO 65 0 min 0,000 mm 0,0 UV-I 0 W/m -0,3 C -8,5 C 27,4 km/h (4 Bft) 94,23 %
19.12.2016 18:42 0,3 C 96 % 1027,8 hPa 0,0 l/m 16,9 km/h (3 Bft) O 87 0 min 0,000 mm 0,0 UV-I 0 W/m -0,3 C -7,7 C 22,5 km/h (4 Bft) 100,00 %
19.12.2016 18:44 0,3 C 96 % 1027,8 hPa 0,0 l/m 17,9 km/h (3 Bft) O-NO 72 0 min 0,000 mm 0,0 UV-I 0 W/m -0,3 C -8,2 C 22,5 km/h (4 Bft) 100,00 %
19.12.2016 18:46 0,3 C 96 % 1027,8 hPa 0,0 l/m 16,3 km/h (3 Bft) O 88 0 min 0,000 mm 0,0 UV-I 0 W/m -0,3 C -7,4 C 20,9 km/h (4 Bft) 100,00 %
19.12.2016 18:48 0,3 C 96 % 1027,9 hPa 0,0 l/m 14,2 km/h (3 Bft) O 81 0 min 0,000 mm 0,0 UV-I 0 W/m -0,3 C -6,1 C 22,5 km/h (4 Bft) 100,00 %
19.12.2016 18:50 0,3 C 96 % 1027,9 hPa 0,0 l/m 9,4 km/h (2 Bft) O-NO 69 0 min 0,000 mm 0,0 UV-I 0 W/m -0,3 C -2,6 C 12,9 km/h (3 Bft) 100,00 %
19.12.2016 18:52 0,3 C 96 % 1028,0 hPa 0,0 l/m 8,9 km/h (2 Bft) O-NO 60 0 min 0,000 mm 0,0 UV-I 0 W/m -0,3 C -2,2 C 16,1 km/h (3 Bft) 100,00 %
19.12.2016 18:54 0,3 C 96 % 1027,9 hPa 0,0 l/m 17,8 km/h (3 Bft) O-NO 74 0 min 0,000 mm 0,0 UV-I 0 W/m -0,3 C -8,2 C 30,6 km/h (5 Bft) 100,00 %
19.12.2016 18:56 0,3 C 96 % 1027,9 hPa 0,0 l/m 17,8 km/h (3 Bft) O 84 0 min 0,000 mm 0,0 UV-I 0 W/m -0,3 C -8,2 C 22,5 km/h (4 Bft) 98,11 %
19.12.2016 18:58 0,3 C 96 % 1027,9 hPa 0,0 l/m 14,8 km/h (3 Bft) O 79 0 min 0,000 mm 0,0 UV-I 0 W/m -0,3 C -6,5 C 24,1 km/h (4 Bft) 100,00 %
19.12.2016 19:00 0,3 C 96 % 1027,9 hPa 0,0 l/m 17,2 km/h (3 Bft) O 90 0 min 0,000 mm 0,0 UV-I 0 W/m -0,3 C -7,9 C 22,5 km/h (4 Bft) 100,00 %
19.12.2016 19:02 0,3 C 96 % 1027,9 hPa 0,0 l/m 16,7 km/h (3 Bft) O-NO 77 0 min 0,000 mm 0,0 UV-I 0 W/m -0,3 C -7,6 C 22,5 km/h (4 Bft) 100,00 %
19.12.2016 19:04 0,3 C 96 % 1027,9 hPa 0,0 l/m 16,2 km/h (3 Bft) O-NO 70 0 min 0,000 mm 0,0 UV-I 0 W/m -0,3 C -7,3 C 20,9 km/h (4 Bft) 97,87 %
19.12.2016 19:06 0,3 C 96 % 1027,9 hPa 0,0 l/m 14,1 km/h (3 Bft) O-NO 77 0 min 0,000 mm 0,0 UV-I 0 W/m -0,3 C -6,1 C 22,5 km/h (4 Bft) 100,00 %
19.12.2016 19:08 0,2 C 96 % 1027,9 hPa 0,0 l/m 14,8 km/h (3 Bft) O 101 0 min 0,000 mm 0,0 UV-I 0 W/m -0,4 C -6,6 C 22,5 km/h (4 Bft) 98,31 %
19.12.2016 19:10 0,2 C 96 % 1027,9 hPa 0,0 l/m 16,9 km/h (3 Bft) O-NO 69 0 min 0,000 mm 0,0 UV-I 0 W/m -0,4 C -7,8 C 22,5 km/h (4 Bft) 100,00 %
19.12.2016 19:12 0,2 C 96 % 1028,0 hPa 0,0 l/m 17,7 km/h (3 Bft) O-NO 67 0 min 0,000 mm 0,0 UV-I 0 W/m -0,4 C -8,2 C 24,1 km/h (4 Bft) 100,00 %
19.12.2016 19:14 0,2 C 96 % 1027,9 hPa 0,0 l/m 16,3 km/h (3 Bft) O 87 0 min 0,000 mm 0,0 UV-I 0 W/m -0,4 C -7,5 C 22,5 km/h (4 Bft) 100,00 %
19.12.2016 19:16 0,2 C 96 % 1027,9 hPa 0,0 l/m 14,1 km/h (3 Bft) O-NO 76 0 min 0,000 mm 0,0 UV-I 0 W/m -0,4 C -6,2 C 20,9 km/h (4 Bft) 97,92 %
19.12.2016 19:18 0,2 C 96 % 1027,8 hPa 0,0 l/m 14,5 km/h (3 Bft) NO 54 0 min 0,000 mm 0,0 UV-I 0 W/m -0,4 C -6,4 C 19,3 km/h (3 Bft) 93,62 %
19.12.2016 19:20 0,2 C 96 % 1027,9 hPa 0,0 l/m 11,4 km/h (2 Bft) O-NO 77 0 min 0,000 mm 0,0 UV-I 0 W/m -0,4 C -4,3 C 17,7 km/h (3 Bft) 98,00 %
19.12.2016 19:22 0,2 C 96 % 1027,9 hPa 0,0 l/m 8,3 km/h (2 Bft) O-NO 59 0 min 0,000 mm 0,0 UV-I 0 W/m -0,4 C -1,7 C 19,3 km/h (3 Bft) 94,23 %
19.12.2016 19:24 0,2 C 96 % 1027,9 hPa 0,0 l/m 9,6 km/h (2 Bft) O-NO 64 0 min 0,000 mm 0,0 UV-I 0 W/m -0,4 C -2,9 C 14,5 km/h (3 Bft) 97,62 %
19.12.2016 19:26 0,2 C 96 % 1027,9 hPa 0,0 l/m 5,9 km/h (2 Bft) O 81 0 min 0,000 mm 0,0 UV-I 0 W/m -0,4 C 0,2 C 9,7 km/h (2 Bft) 98,11 %
19.12.2016 19:28 0,2 C 96 % 1027,9 hPa 0,0 l/m 5,9 km/h (2 Bft) O-NO 57 0 min 0,000 mm 0,0 UV-I 0 W/m -0,4 C 0,2 C 14,5 km/h (3 Bft) 97,56 %
19.12.2016 19:30 0,2 C 96 % 1027,9 hPa 0,0 l/m 12,2 km/h (2 Bft) O-NO 65 0 min 0,000 mm 0,0 UV-I 0 W/m -0,4 C -4,9 C 16,1 km/h (3 Bft) 98,00 %
19.12.2016 19:32 0,2 C 96 % 1027,9 hPa 0,0 l/m 15,8 km/h (3 Bft) NO 56 0 min 0,000 mm 0,0 UV-I 0 W/m -0,4 C -7,2 C 24,1 km/h (4 Bft) 95,74 %
19.12.2016 19:34 0,1 C 96 % 1027,9 hPa 0,0 l/m 15,3 km/h (3 Bft) O-NO 63 0 min 0,000 mm 0,0 UV-I 0 W/m -0,5 C -7,0 C 20,9 km/h (4 Bft) 97,87 %
19.12.2016 19:36 0,1 C 96 % 1027,8 hPa 0,0 l/m 12,7 km/h (3 Bft) O 86 0 min 0,000 mm 0,0 UV-I 0 W/m -0,5 C -5,4 C 20,9 km/h (4 Bft) 97,56 %
19.12.2016 19:38 0,1 C 96 % 1027,8 hPa 0,0 l/m 12,5 km/h (3 Bft) O-NO 70 0 min 0,000 mm 0,0 UV-I 0 W/m -0,5 C -5,2 C 16,1 km/h (3 Bft) 97,73 %
19.12.2016 19:40 0,1 C 96 % 1027,8 hPa 0,0 l/m 13,4 km/h (3 Bft) O-NO 74 0 min 0,000 mm 0,0 UV-I 0 W/m -0,5 C -5,9 C 20,9 km/h (4 Bft) 98,21 %
19.12.2016 19:42 0,1 C 96 % 1027,7 hPa 0,0 l/m 15,8 km/h (3 Bft) O 82 0 min 0,000 mm 0,0 UV-I 0 W/m -0,5 C -7,3 C 22,5 km/h (4 Bft) 97,37 %
19.12.2016 19:44 0,0 C 96 % 1027,7 hPa 0,0 l/m 15,6 km/h (3 Bft) O 80 0 min 0,000 mm 0,0 UV-I 0 W/m -0,6 C -7,3 C 22,5 km/h (4 Bft) 96,00 %
19.12.2016 19:46 0,0 C 96 % 1027,6 hPa 0,0 l/m 15,2 km/h (3 Bft) O-NO 77 0 min 0,000 mm 0,0 UV-I 0 W/m -0,6 C -7,1 C 19,3 km/h (3 Bft) 97,87 %
19.12.2016 19:48 0,0 C 96 % 1027,7 hPa 0,0 l/m 14,6 km/h (3 Bft) O-NO 76 0 min 0,000 mm 0,0 UV-I 0 W/m -0,6 C -6,7 C 19,3 km/h (3 Bft) 97,56 %
19.12.2016 19:50 0,0 C 96 % 1027,7 hPa 0,0 l/m 11,5 km/h (2 Bft) O-NO 70 0 min 0,000 mm 0,0 UV-I 0 W/m -0,6 C -4,6 C 16,1 km/h (3 Bft) 96,61 %
19.12.2016 19:52 -0,1 C 96 % 1027,8 hPa 0,0 l/m 11,1 km/h (2 Bft) O-NO 75 0 min 0,000 mm 0,0 UV-I 0 W/m -0,7 C -4,4 C 19,3 km/h (3 Bft) 97,56 %
19.12.2016 19:54 -0,1 C 96 % 1027,8 hPa 0,0 l/m 13,4 km/h (3 Bft) O-SO 103 0 min 0,000 mm 0,0 UV-I 0 W/m -0,7 C -6,1 C 19,3 km/h (3 Bft) 100,00 %
19.12.2016 19:56 -0,1 C 96 % 1027,8 hPa 0,0 l/m 13,0 km/h (3 Bft) O 88 0 min 0,000 mm 0,0 UV-I 0 W/m -0,7 C -5,8 C 17,7 km/h (3 Bft) 100,00 %
19.12.2016 19:58 -0,1 C 96 % 1027,8 hPa 0,0 l/m 12,6 km/h (3 Bft) O 96 0 min 0,000 mm 0,0 UV-I 0 W/m -0,7 C -5,5 C 16,1 km/h (3 Bft) 97,44 %
19.12.2016 20:00 -0,1 C 96 % 1027,8 hPa 0,0 l/m 12,1 km/h (2 Bft) O 86 0 min 0,000 mm 0,0 UV-I 0 W/m -0,7 C -5,2 C 17,7 km/h (3 Bft) 100,00 %
19.12.2016 20:02 -0,1 C 96 % 1027,7 hPa 0,0 l/m 9,5 km/h (2 Bft) O-NO 61 0 min 0,000 mm 0,0 UV-I 0 W/m -0,7 C -3,1 C 12,9 km/h (3 Bft) 100,00 %
19.12.2016 20:04 -0,1 C 96 % 1027,8 hPa 0,0 l/m 9,8 km/h (2 Bft) O-NO 65 0 min 0,000 mm 0,0 UV-I 0 W/m -0,7 C -3,4 C 14,5 km/h (3 Bft) 100,00 %
19.12.2016 20:06 -0,1 C 96 % 1027,8 hPa 0,0 l/m 9,3 km/h (2 Bft) O-NO 61 0 min 0,000 mm 0,0 UV-I 0 W/m -0,7 C -3,0 C 14,5 km/h (3 Bft) 100,00 %
19.12.2016 20:08 -0,1 C 96 % 1027,9 hPa 0,0 l/m 9,3 km/h (2 Bft) O-NO 57 0 min 0,000 mm 0,0 UV-I 0 W/m -0,7 C -3,0 C 14,5 km/h (3 Bft) 100,00 %
19.12.2016 20:10 -0,1 C 96 % 1027,9 hPa 0,0 l/m 10,5 km/h (2 Bft) O-NO 74 0 min 0,000 mm 0,0 UV-I 0 W/m -0,7 C -4,0 C 16,1 km/h (3 Bft) 97,56 %
19.12.2016 20:12 -0,1 C 96 % 1027,9 hPa 0,0 l/m 14,2 km/h (3 Bft) O 93 0 min 0,000 mm 0,0 UV-I 0 W/m -0,7 C -6,6 C 19,3 km/h (3 Bft) 100,00 %
19.12.2016 20:14 -0,2 C 96 % 1027,9 hPa 0,0 l/m 12,8 km/h (3 Bft) O 96 0 min 0,000 mm 0,0 UV-I 0 W/m -0,8 C -5,8 C 22,5 km/h (4 Bft) 100,00 %
19.12.2016 20:16 -0,2 C 96 % 1027,9 hPa 0,0 l/m 10,4 km/h (2 Bft) O 80 0 min 0,000 mm 0,0 UV-I 0 W/m -0,8 C -4,0 C 14,5 km/h (3 Bft) 100,00 %
19.12.2016 20:18 -0,2 C 96 % 1027,9 hPa 0,0 l/m 7,7 km/h (2 Bft) NO 55 0 min 0,000 mm 0,0 UV-I 0 W/m -0,8 C -1,6 C 12,9 km/h (3 Bft) 100,00 %
19.12.2016 20:20 -0,2 C 96 % 1027,9 hPa 0,0 l/m 11,5 km/h (2 Bft) O-NO 63 0 min 0,000 mm 0,0 UV-I 0 W/m -0,8 C -4,9 C 16,1 km/h (3 Bft) 97,73 %
19.12.2016 20:22 -0,2 C 96 % 1027,9 hPa 0,0 l/m 11,8 km/h (2 Bft) NO 53 0 min 0,000 mm 0,0 UV-I 0 W/m -0,8 C -5,1 C 16,1 km/h (3 Bft) 100,00 %
19.12.2016 20:24 -0,2 C 96 % 1028,0 hPa 0,0 l/m 8,5 km/h (2 Bft) O-NO 60 0 min 0,000 mm 0,0 UV-I 0 W/m -0,8 C -2,3 C 14,5 km/h (3 Bft) 100,00 %
19.12.2016 20:26 -0,2 C 96 % 1028,0 hPa 0,0 l/m 9,5 km/h (2 Bft) O-NO 74 0 min 0,000 mm 0,0 UV-I 0 W/m -0,8 C -3,2 C 14,5 km/h (3 Bft) 100,00 %
19.12.2016 20:28 -0,2 C 96 % 1028,0 hPa 0,0 l/m 14,6 km/h (3 Bft) O-NO 72 0 min 0,000 mm 0,0 UV-I 0 W/m -0,8 C -7,0 C 19,3 km/h (3 Bft) 98,00 %
19.12.2016 20:30 -0,2 C 96 % 1028,0 hPa 0,0 l/m 13,8 km/h (3 Bft) O-NO 61 0 min 0,000 mm 0,0 UV-I 0 W/m -0,8 C -6,5 C 19,3 km/h (3 Bft) 100,00 %
19.12.2016 20:33 -0,2 C 96 % 1028,0 hPa 0,0 l/m 10,6 km/h (2 Bft) O 86 0 min 0,000 mm 0,0 UV-I 0 W/m -0,8 C -4,2 C 16,1 km/h (3 Bft) 98,59 %
19.12.2016 20:34 -0,3 C 96 % 1028,0 hPa 0,0 l/m 7,7 km/h (2 Bft) NO 54 0 min 0,000 mm 0,0 UV-I 0 W/m -0,9 C -1,7 C 12,9 km/h (3 Bft) 100,00 %
19.12.2016 20:36 -0,2 C 96 % 1027,9 hPa 0,0 l/m 14,7 km/h (3 Bft) O-NO 67 0 min 0,000 mm 0,0 UV-I 0 W/m -0,8 C -7,0 C 19,3 km/h (3 Bft) 100,00 %
19.12.2016 20:38 -0,3 C 97 % 1027,9 hPa 0,0 l/m 15,7 km/h (3 Bft) O 98 0 min 0,000 mm 0,0 UV-I 0 W/m -0,7 C -7,8 C 20,9 km/h (4 Bft) 100,00 %
19.12.2016 20:40 -0,3 C 97 % 1027,9 hPa 0,0 l/m 13,7 km/h (3 Bft) NO 55 0 min 0,000 mm 0,0 UV-I 0 W/m -0,7 C -6,5 C 19,3 km/h (3 Bft) 96,23 %
19.12.2016 20:42 -0,3 C 97 % 1027,9 hPa 0,0 l/m 11,7 km/h (2 Bft) O 90 0 min 0,000 mm 0,0 UV-I 0 W/m -0,7 C -5,1 C 16,1 km/h (3 Bft) 100,00 %
19.12.2016 20:44 -0,3 C 97 % 1027,9 hPa 0,0 l/m 10,7 km/h (2 Bft) O-NO 74 0 min 0,000 mm 0,0 UV-I 0 W/m -0,7 C -4,4 C 16,1 km/h (3 Bft) 100,00 %
19.12.2016 20:46 -0,3 C 97 % 1028,0 hPa 0,0 l/m 14,4 km/h (3 Bft) NO 39 0 min 0,000 mm 0,0 UV-I 0 W/m -0,7 C -7,0 C 20,9 km/h (4 Bft) 100,00 %
19.12.2016 20:48 -0,3 C 97 % 1027,9 hPa 0,0 l/m 15,6 km/h (3 Bft) O-NO 75 0 min 0,000 mm 0,0 UV-I 0 W/m -0,7 C -7,7 C 22,5 km/h (4 Bft) 97,73 %
19.12.2016 20:50 -0,3 C 97 % 1027,9 hPa 0,0 l/m 11,0 km/h (2 Bft) NO 42 0 min 0,000 mm 0,0 UV-I 0 W/m -0,7 C -4,6 C 16,1 km/h (3 Bft) 100,00 %
19.12.2016 20:52 -0,3 C 97 % 1027,9 hPa 0,0 l/m 12,1 km/h (2 Bft) O-NO 68 0 min 0,000 mm 0,0 UV-I 0 W/m -0,7 C -5,4 C 17,7 km/h (3 Bft) 100,00 %
19.12.2016 20:54 -0,3 C 97 % 1028,0 hPa 0,0 l/m 10,9 km/h (2 Bft) O-NO 74 0 min 0,000 mm 0,0 UV-I 0 W/m -0,7 C -4,5 C 17,7 km/h (3 Bft) 100,00 %
19.12.2016 20:56 -0,3 C 97 % 1028,0 hPa 0,0 l/m 12,4 km/h (3 Bft) O-NO 73 0 min 0,000 mm 0,0 UV-I 0 W/m -0,7 C -5,6 C 17,7 km/h (3 Bft) 100,00 %
19.12.2016 20:58 -0,3 C 97 % 1028,0 hPa 0,0 l/m 12,0 km/h (2 Bft) NO 53 0 min 0,000 mm 0,0 UV-I 0 W/m -0,7 C -5,3 C 17,7 km/h (3 Bft) 97,87 %
19.12.2016 21:00 -0,3 C 97 % 1028,0 hPa 0,0 l/m 15,9 km/h (3 Bft) O-NO 68 0 min 0,000 mm 0,0 UV-I 0 W/m -0,7 C -7,9 C 20,9 km/h (4 Bft) 100,00 %
19.12.2016 21:02 -0,3 C 97 % 1028,0 hPa 0,0 l/m 14,6 km/h (3 Bft) O-NO 71 0 min 0,000 mm 0,0 UV-I 0 W/m -0,7 C -7,1 C 19,3 km/h (3 Bft) 97,73 %
19.12.2016 21:04 -0,3 C 97 % 1028,0 hPa 0,0 l/m 13,8 km/h (3 Bft) NO 55 0 min 0,000 mm 0,0 UV-I 0 W/m -0,7 C -6,6 C 19,3 km/h (3 Bft) 100,00 %
19.12.2016 21:06 -0,3 C 97 % 1028,0 hPa 0,0 l/m 13,1 km/h (3 Bft) NO 52 0 min 0,000 mm 0,0 UV-I 0 W/m -0,7 C -6,1 C 20,9 km/h (4 Bft) 94,29 %
19.12.2016 21:08 -0,4 C 97 % 1028,0 hPa 0,0 l/m 14,4 km/h (3 Bft) O-NO 61 0 min 0,000 mm 0,0 UV-I 0 W/m -0,8 C -7,1 C 20,9 km/h (4 Bft) 100,00 %
19.12.2016 21:10 -0,4 C 97 % 1028,1 hPa 0,0 l/m 18,4 km/h (3 Bft) O-NO 67 0 min 0,000 mm 0,0 UV-I 0 W/m -0,8 C -9,4 C 27,4 km/h (4 Bft) 100,00 %
19.12.2016 21:12 -0,4 C 97 % 1028,0 hPa 0,0 l/m 15,9 km/h (3 Bft) O-NO 73 0 min 0,000 mm 0,0 UV-I 0 W/m -0,8 C -8,0 C 20,9 km/h (4 Bft) 98,21 %
19.12.2016 21:14 -0,4 C 97 % 1028,0 hPa 0,0 l/m 18,6 km/h (3 Bft) NO 54 0 min 0,000 mm 0,0 UV-I 0 W/m -0,8 C -9,5 C 24,1 km/h (4 Bft) 100,00 %
19.12.2016 21:16 -0,4 C 97 % 1028,0 hPa 0,0 l/m 15,3 km/h (3 Bft) NO 55 0 min 0,000 mm 0,0 UV-I 0 W/m -0,8 C -7,6 C 20,9 km/h (4 Bft) 100,00 %
19.12.2016 21:18 -0,4 C 97 % 1028,1 hPa 0,0 l/m 15,9 km/h (3 Bft) O 90 0 min 0,000 mm 0,0 UV-I 0 W/m -0,8 C -8,0 C 24,1 km/h (4 Bft) 100,00 %
19.12.2016 21:20 -0,4 C 97 % 1028,1 hPa 0,0 l/m 17,1 km/h (3 Bft) O-NO 77 0 min 0,000 mm 0,0 UV-I 0 W/m -0,8 C -8,7 C 22,5 km/h (4 Bft) 100,00 %
19.12.2016 21:22 -0,4 C 97 % 1028,1 hPa 0,0 l/m 13,9 km/h (3 Bft) O 80 0 min 0,000 mm 0,0 UV-I 0 W/m -0,8 C -6,8 C 19,3 km/h (3 Bft) 96,23 %
19.12.2016 21:24 -0,4 C 97 % 1028,1 hPa 0,0 l/m 12,6 km/h (3 Bft) O-NO 65 0 min 0,000 mm 0,0 UV-I 0 W/m -0,8 C -5,9 C 17,7 km/h (3 Bft) 98,39 %
19.12.2016 21:26 -0,4 C 97 % 1028,1 hPa 0,0 l/m 10,3 km/h (2 Bft) NO 55 0 min 0,000 mm 0,0 UV-I 0 W/m -0,8 C -4,1 C 14,5 km/h (3 Bft) 97,56 %
19.12.2016 21:28 -0,4 C 97 % 1028,1 hPa 0,0 l/m 10,9 km/h (2 Bft) NO 40 0 min 0,000 mm 0,0 UV-I 0 W/m -0,8 C -4,6 C 14,5 km/h (3 Bft) 97,73 %
19.12.2016 21:30 -0,4 C 97 % 1028,1 hPa 0,0 l/m 10,4 km/h (2 Bft) O 85 0 min 0,000 mm 0,0 UV-I 0 W/m -0,8 C -4,2 C 16,1 km/h (3 Bft) 96,00 %
19.12.2016 21:32 -0,4 C 97 % 1028,1 hPa 0,0 l/m 15,8 km/h (3 Bft) O-NO 78 0 min 0,000 mm 0,0 UV-I 0 W/m -0,8 C -7,9 C 22,5 km/h (4 Bft) 97,87 %
19.12.2016 21:34 -0,4 C 97 % 1028,2 hPa 0,0 l/m 15,8 km/h (3 Bft) O-NO 59 0 min 0,000 mm 0,0 UV-I 0 W/m -0,8 C -7,9 C 20,9 km/h (4 Bft) 93,62 %
19.12.2016 21:36 -0,4 C 97 % 1028,2 hPa 0,0 l/m 11,7 km/h (2 Bft) O-NO 76 0 min 0,000 mm 0,0 UV-I 0 W/m -0,8 C -5,2 C 16,1 km/h (3 Bft) 96,00 %
19.12.2016 21:38 -0,4 C 97 % 1028,2 hPa 0,0 l/m 12,1 km/h (2 Bft) O 80 0 min 0,000 mm 0,0 UV-I 0 W/m -0,8 C -5,5 C 14,5 km/h (3 Bft) 97,37 %
19.12.2016 21:40 -0,4 C 97 % 1028,2 hPa 0,0 l/m 9,7 km/h (2 Bft) O-NO 72 0 min 0,000 mm 0,0 UV-I 0 W/m -0,8 C -3,6 C 16,1 km/h (3 Bft) 98,00 %
19.12.2016 21:42 -0,4 C 97 % 1028,3 hPa 0,0 l/m 10,5 km/h (2 Bft) O 79 0 min 0,000 mm 0,0 UV-I 0 W/m -0,8 C -4,3 C 16,1 km/h (3 Bft) 98,00 %
19.12.2016 21:44 -0,4 C 97 % 1028,3 hPa 0,0 l/m 8,8 km/h (2 Bft) O 86 0 min 0,000 mm 0,0 UV-I 0 W/m -0,8 C -2,8 C 14,5 km/h (3 Bft) 97,87 %
19.12.2016 21:46 -0,4 C 97 % 1028,3 hPa 0,0 l/m 9,0 km/h (2 Bft) O 82 0 min 0,000 mm 0,0 UV-I 0 W/m -0,8 C -3,0 C 16,1 km/h (3 Bft) 98,00 %
19.12.2016 21:48 -0,5 C 97 % 1028,2 hPa 0,0 l/m 12,7 km/h (3 Bft) O-NO 71 0 min 0,000 mm 0,0 UV-I 0 W/m -0,9 C -6,1 C 17,7 km/h (3 Bft) 96,00 %
19.12.2016 21:50 -0,5 C 97 % 1028,2 hPa 0,0 l/m 14,6 km/h (3 Bft) O-NO 68 0 min 0,000 mm 0,0 UV-I 0 W/m -0,9 C -7,3 C 19,3 km/h (3 Bft) 95,12 %
19.12.2016 21:52 -0,5 C 97 % 1028,2 hPa 0,0 l/m 11,2 km/h (2 Bft) O-SO 110 0 min 0,000 mm 0,0 UV-I 0 W/m -0,9 C -5,0 C 19,3 km/h (3 Bft) 92,45 %
19.12.2016 21:54 -0,5 C 97 % 1028,2 hPa 0,0 l/m 9,2 km/h (2 Bft) O-NO 76 0 min 0,000 mm 0,0 UV-I 0 W/m -0,9 C -3,3 C 14,5 km/h (3 Bft) 97,37 %
19.12.2016 21:56 -0,5 C 97 % 1028,3 hPa 0,0 l/m 8,6 km/h (2 Bft) O 95 0 min 0,000 mm 0,0 UV-I 0 W/m -0,9 C -2,8 C 16,1 km/h (3 Bft) 100,00 %
19.12.2016 21:58 -0,5 C 97 % 1028,3 hPa 0,0 l/m 12,3 km/h (3 Bft) O 88 0 min 0,000 mm 0,0 UV-I 0 W/m -0,9 C -5,8 C 17,7 km/h (3 Bft) 100,00 %
19.12.2016 22:00 -0,5 C 97 % 1028,3 hPa 0,0 l/m 13,2 km/h (3 Bft) O-NO 73 0 min 0,000 mm 0,0 UV-I 0 W/m -0,9 C -6,4 C 17,7 km/h (3 Bft) 100,00 %
19.12.2016 22:02 -0,5 C 97 % 1028,3 hPa 0,0 l/m 9,8 km/h (2 Bft) O 87 0 min 0,000 mm 0,0 UV-I 0 W/m -0,9 C -3,8 C 16,1 km/h (3 Bft) 100,00 %
19.12.2016 22:04 -0,5 C 97 % 1028,4 hPa 0,0 l/m 10,7 km/h (2 Bft) O-NO 78 0 min 0,000 mm 0,0 UV-I 0 W/m -0,9 C -4,6 C 17,7 km/h (3 Bft) 96,00 %
19.12.2016 22:06 -0,5 C 97 % 1028,3 hPa 0,0 l/m 12,6 km/h (3 Bft) O-NO 76 0 min 0,000 mm 0,0 UV-I 0 W/m -0,9 C -6,0 C 14,5 km/h (3 Bft) 100,00 %
19.12.2016 22:08 -0,5 C 97 % 1028,3 hPa 0,0 l/m 9,8 km/h (2 Bft) O-NO 69 0 min 0,000 mm 0,0 UV-I 0 W/m -0,9 C -3,8 C 12,9 km/h (3 Bft) 100,00 %
19.12.2016 22:10 -0,5 C 97 % 1028,3 hPa 0,0 l/m 10,9 km/h (2 Bft) NO 56 0 min 0,000 mm 0,0 UV-I 0 W/m -0,9 C -4,7 C 14,5 km/h (3 Bft) 100,00 %
19.12.2016 22:12 -0,5 C 97 % 1028,3 hPa 0,0 l/m 9,8 km/h (2 Bft) O-NO 57 0 min 0,000 mm 0,0 UV-I 0 W/m -0,9 C -3,8 C 14,5 km/h (3 Bft) 100,00 %
19.12.2016 22:14 -0,5 C 97 % 1028,3 hPa 0,0 l/m 11,0 km/h (2 Bft) O 81 0 min 0,000 mm 0,0 UV-I 0 W/m -0,9 C -4,8 C 17,7 km/h (3 Bft) 100,00 %
19.12.2016 22:16 -0,5 C 97 % 1028,3 hPa 0,0 l/m 12,2 km/h (2 Bft) O 82 0 min 0,000 mm 0,0 UV-I 0 W/m -0,9 C -5,7 C 17,7 km/h (3 Bft) 100,00 %
19.12.2016 22:18 -0,6 C 97 % 1028,3 hPa 0,0 l/m 12,6 km/h (3 Bft) O 85 0 min 0,000 mm 0,0 UV-I 0 W/m -1,0 C -6,1 C 19,3 km/h (3 Bft) 97,87 %
19.12.2016 22:20 -0,6 C 97 % 1028,2 hPa 0,0 l/m 13,6 km/h (3 Bft) O-NO 69 0 min 0,000 mm 0,0 UV-I 0 W/m -1,0 C -6,8 C 19,3 km/h (3 Bft) 100,00 %
19.12.2016 22:22 -0,6 C 97 % 1028,3 hPa 0,0 l/m 8,8 km/h (2 Bft) O-NO 61 0 min 0,000 mm 0,0 UV-I 0 W/m -1,0 C -3,0 C 14,5 km/h (3 Bft) 100,00 %
19.12.2016 22:24 -0,5 C 97 % 1028,3 hPa 0,0 l/m 9,5 km/h (2 Bft) O-NO 62 0 min 0,000 mm 0,0 UV-I 0 W/m -0,9 C -3,6 C 14,5 km/h (3 Bft) 100,00 %
19.12.2016 22:26 -0,5 C 97 % 1028,3 hPa 0,0 l/m 10,4 km/h (2 Bft) O-NO 67 0 min 0,000 mm 0,0 UV-I 0 W/m -0,9 C -4,3 C 14,5 km/h (3 Bft) 97,37 %
19.12.2016 22:28 -0,5 C 97 % 1028,4 hPa 0,0 l/m 11,0 km/h (2 Bft) O-NO 67 0 min 0,000 mm 0,0 UV-I 0 W/m -0,9 C -4,8 C 19,3 km/h (3 Bft) 100,00 %
19.12.2016 22:30 -0,5 C 97 % 1028,3 hPa 0,0 l/m 13,2 km/h (3 Bft) NO 50 0 min 0,000 mm 0,0 UV-I 0 W/m -0,9 C -6,4 C 17,7 km/h (3 Bft) 97,87 %
19.12.2016 22:32 -0,5 C 97 % 1028,3 hPa 0,0 l/m 15,0 km/h (3 Bft) O-NO 64 0 min 0,000 mm 0,0 UV-I 0 W/m -0,9 C -7,6 C 20,9 km/h (4 Bft) 100,00 %
19.12.2016 22:34 -0,6 C 97 % 1028,3 hPa 0,0 l/m 13,7 km/h (3 Bft) NO 51 0 min 0,000 mm 0,0 UV-I 0 W/m -1,0 C -6,9 C 19,3 km/h (3 Bft) 100,00 %
19.12.2016 22:36 -0,6 C 97 % 1028,3 hPa 0,0 l/m 14,0 km/h (3 Bft) O 88 0 min 0,000 mm 0,0 UV-I 0 W/m -1,0 C -7,1 C 19,3 km/h (3 Bft) 98,11 %
19.12.2016 22:38 -0,6 C 97 % 1028,4 hPa 0,0 l/m 11,6 km/h (2 Bft) O-NO 76 0 min 0,000 mm 0,0 UV-I 0 W/m -1,0 C -5,4 C 17,7 km/h (3 Bft) 100,00 %
19.12.2016 22:40 -0,6 C 97 % 1028,4 hPa 0,0 l/m 12,5 km/h (3 Bft) O-NO 78 0 min 0,000 mm 0,0 UV-I 0 W/m -1,0 C -6,1 C 19,3 km/h (3 Bft) 97,73 %
19.12.2016 22:42 -0,6 C 97 % 1028,5 hPa 0,0 l/m 10,0 km/h (2 Bft) O-NO 61 0 min 0,000 mm 0,0 UV-I 0 W/m -1,0 C -4,1 C 20,9 km/h (4 Bft) 98,00 %
19.12.2016 22:44 -0,6 C 97 % 1028,4 hPa 0,0 l/m 16,4 km/h (3 Bft) O-NO 78 0 min 0,000 mm 0,0 UV-I 0 W/m -1,0 C -8,5 C 22,5 km/h (4 Bft) 98,11 %
19.12.2016 22:46 -0,6 C 97 % 1028,4 hPa 0,0 l/m 15,3 km/h (3 Bft) O-NO 62 0 min 0,000 mm 0,0 UV-I 0 W/m -1,0 C -7,9 C 20,9 km/h (4 Bft) 97,14 %
19.12.2016 22:48 -0,6 C 97 % 1028,4 hPa 0,0 l/m 16,9 km/h (3 Bft) NO 56 0 min 0,000 mm 0,0 UV-I 0 W/m -1,0 C -8,8 C 20,9 km/h (4 Bft) 100,00 %
19.12.2016 22:50 -0,6 C 97 % 1028,4 hPa 0,0 l/m 16,3 km/h (3 Bft) O 80 0 min 0,000 mm 0,0 UV-I 0 W/m -1,0 C -8,5 C 24,1 km/h (4 Bft) 100,00 %
19.12.2016 22:52 -0,6 C 97 % 1028,4 hPa 0,0 l/m 14,5 km/h (3 Bft) O-NO 73 0 min 0,000 mm 0,0 UV-I 0 W/m -1,0 C -7,4 C 20,9 km/h (4 Bft) 100,00 %
19.12.2016 22:54 -0,6 C 97 % 1028,4 hPa 0,0 l/m 13,0 km/h (3 Bft) O-NO 60 0 min 0,000 mm 0,0 UV-I 0 W/m -1,0 C -6,4 C 19,3 km/h (3 Bft) 100,00 %
19.12.2016 22:56 -0,6 C 97 % 1028,5 hPa 0,0 l/m 15,2 km/h (3 Bft) O-NO 62 0 min 0,000 mm 0,0 UV-I 0 W/m -1,0 C -7,8 C 20,9 km/h (4 Bft) 98,00 %
19.12.2016 22:58 -0,6 C 97 % 1028,5 hPa 0,0 l/m 13,1 km/h (3 Bft) O-NO 68 0 min 0,000 mm 0,0 UV-I 0 W/m -1,0 C -6,5 C 19,3 km/h (3 Bft) 95,74 %
19.12.2016 23:00 -0,6 C 96 % 1028,5 hPa 0,0 l/m 14,9 km/h (3 Bft) O 79 0 min 0,000 mm 0,0 UV-I 0 W/m -1,2 C -7,6 C 20,9 km/h (4 Bft) 100,00 %
19.12.2016 23:02 -0,6 C 96 % 1028,5 hPa 0,0 l/m 15,9 km/h (3 Bft) O-NO 63 0 min 0,000 mm 0,0 UV-I 0 W/m -1,2 C -8,2 C 20,9 km/h (4 Bft) 97,73 %
19.12.2016 23:04 -0,7 C 96 % 1028,5 hPa 0,0 l/m 16,0 km/h (3 Bft) O 82 0 min 0,000 mm 0,0 UV-I 0 W/m -1,3 C -8,4 C 20,9 km/h (4 Bft) 100,00 %
19.12.2016 23:06 -0,7 C 97 % 1028,5 hPa 0,0 l/m 12,5 km/h (3 Bft) O-NO 73 0 min 0,000 mm 0,0 UV-I 0 W/m -1,1 C -6,2 C 19,3 km/h (3 Bft) 100,00 %
19.12.2016 23:08 -0,6 C 97 % 1028,4 hPa 0,0 l/m 12,6 km/h (3 Bft) O-NO 65 0 min 0,000 mm 0,0 UV-I 0 W/m -1,0 C -6,1 C 17,7 km/h (3 Bft) 100,00 %
19.12.2016 23:10 -0,6 C 97 % 1028,5 hPa 0,0 l/m 9,7 km/h (2 Bft) O-NO 74 0 min 0,000 mm 0,0 UV-I 0 W/m -1,0 C -3,9 C 14,5 km/h (3 Bft) 100,00 %
19.12.2016 23:12 -0,6 C 97 % 1028,5 hPa 0,0 l/m 11,5 km/h (2 Bft) NO 55 0 min 0,000 mm 0,0 UV-I 0 W/m -1,0 C -5,3 C 16,1 km/h (3 Bft) 100,00 %
19.12.2016 23:14 -0,6 C 97 % 1028,5 hPa 0,0 l/m 10,1 km/h (2 Bft) O-NO 69 0 min 0,000 mm 0,0 UV-I 0 W/m -1,0 C -4,2 C 14,5 km/h (3 Bft) 100,00 %
19.12.2016 23:16 -0,6 C 96 % 1028,5 hPa 0,0 l/m 13,1 km/h (3 Bft) O-NO 78 0 min 0,000 mm 0,0 UV-I 0 W/m -1,2 C -6,5 C 17,7 km/h (3 Bft) 98,08 %
19.12.2016 23:18 -0,6 C 96 % 1028,5 hPa 0,0 l/m 13,3 km/h (3 Bft) O 82 0 min 0,000 mm 0,0 UV-I 0 W/m -1,2 C -6,6 C 17,7 km/h (3 Bft) 98,11 %
19.12.2016 23:20 -0,6 C 96 % 1028,5 hPa 0,0 l/m 13,6 km/h (3 Bft) O-NO 69 0 min 0,000 mm 0,0 UV-I 0 W/m -1,2 C -6,8 C 17,7 km/h (3 Bft) 100,00 %
19.12.2016 23:22 -0,6 C 96 % 1028,5 hPa 0,0 l/m 9,7 km/h (2 Bft) NO 52 0 min 0,000 mm 0,0 UV-I 0 W/m -1,2 C -3,9 C 12,9 km/h (3 Bft) 100,00 %
19.12.2016 23:24 -0,6 C 96 % 1028,6 hPa 0,0 l/m 9,6 km/h (2 Bft) NO 53 0 min 0,000 mm 0,0 UV-I 0 W/m -1,2 C -3,8 C 16,1 km/h (3 Bft) 98,31 %
19.12.2016 23:26 -0,6 C 96 % 1028,6 hPa 0,0 l/m 13,9 km/h (3 Bft) NO 42 0 min 0,000 mm 0,0 UV-I 0 W/m -1,2 C -7,0 C 20,9 km/h (4 Bft) 97,37 %
19.12.2016 23:28 -0,7 C 96 % 1028,6 hPa 0,0 l/m 12,8 km/h (3 Bft) O-NO 65 0 min 0,000 mm 0,0 UV-I 0 W/m -1,3 C -6,4 C 17,7 km/h (3 Bft) 96,00 %
19.12.2016 23:30 -0,7 C 96 % 1028,6 hPa 0,0 l/m 16,1 km/h (3 Bft) NO 51 0 min 0,000 mm 0,0 UV-I 0 W/m -1,3 C -8,5 C 22,5 km/h (4 Bft) 98,00 %
19.12.2016 23:32 -0,7 C 96 % 1028,6 hPa 0,0 l/m 17,2 km/h (3 Bft) NO 53 0 min 0,000 mm 0,0 UV-I 0 W/m -1,3 C -9,1 C 22,5 km/h (4 Bft) 97,56 %
19.12.2016 23:34 -0,7 C 96 % 1028,6 hPa 0,0 l/m 17,0 km/h (3 Bft) O-NO 62 0 min 0,000 mm 0,0 UV-I 0 W/m -1,3 C -9,0 C 22,5 km/h (4 Bft) 94,34 %
19.12.2016 23:36 -0,7 C 96 % 1028,6 hPa 0,0 l/m 15,4 km/h (3 Bft) NO 47 0 min 0,000 mm 0,0 UV-I 0 W/m -1,3 C -8,1 C 24,1 km/h (4 Bft) 97,56 %
19.12.2016 23:38 -0,7 C 96 % 1028,6 hPa 0,0 l/m 16,4 km/h (3 Bft) O-NO 57 0 min 0,000 mm 0,0 UV-I 0 W/m -1,3 C -8,7 C 24,1 km/h (4 Bft) 98,11 %
19.12.2016 23:40 -0,8 C 96 % 1028,5 hPa 0,0 l/m 14,6 km/h (3 Bft) O-NO 57 0 min 0,000 mm 0,0 UV-I 0 W/m -1,4 C -7,7 C 19,3 km/h (3 Bft) 94,74 %
19.12.2016 23:42 -0,8 C 96 % 1028,5 hPa 0,0 l/m 11,7 km/h (2 Bft) NO 50 0 min 0,000 mm 0,0 UV-I 0 W/m -1,4 C -5,7 C 17,7 km/h (3 Bft) 97,87 %
19.12.2016 23:44 -0,8 C 96 % 1028,6 hPa 0,0 l/m 11,0 km/h (2 Bft) O-NO 65 0 min 0,000 mm 0,0 UV-I 0 W/m -1,4 C -5,2 C 17,7 km/h (3 Bft) 98,00 %
19.12.2016 23:46 -0,8 C 96 % 1028,6 hPa 0,0 l/m 10,5 km/h (2 Bft) NO 50 0 min 0,000 mm 0,0 UV-I 0 W/m -1,4 C -4,8 C 16,1 km/h (3 Bft) 96,23 %
19.12.2016 23:48 -0,8 C 96 % 1028,6 hPa 0,0 l/m 13,1 km/h (3 Bft) O-NO 65 0 min 0,000 mm 0,0 UV-I 0 W/m -1,4 C -6,7 C 16,1 km/h (3 Bft) 94,74 %
19.12.2016 23:50 -0,8 C 96 % 1028,5 hPa 0,0 l/m 16,7 km/h (3 Bft) O-NO 71 0 min 0,000 mm 0,0 UV-I 0 W/m -1,4 C -9,0 C 20,9 km/h (4 Bft) 94,64 %
19.12.2016 23:52 -0,8 C 96 % 1028,5 hPa 0,0 l/m 14,4 km/h (3 Bft) O-NO 71 0 min 0,000 mm 0,0 UV-I 0 W/m -1,4 C -7,6 C 20,9 km/h (4 Bft) 95,45 %
19.12.2016 23:54 -0,8 C 96 % 1028,5 hPa 0,0 l/m 16,4 km/h (3 Bft) O 82 0 min 0,000 mm 0,0 UV-I 0 W/m -1,4 C -8,8 C 20,9 km/h (4 Bft) 97,56 %
19.12.2016 23:56 -0,8 C 96 % 1028,5 hPa 0,0 l/m 16,3 km/h (3 Bft) NO 55 0 min 0,000 mm 0,0 UV-I 0 W/m -1,4 C -8,7 C 22,5 km/h (4 Bft) 97,87 %
19.12.2016 23:58 -0,8 C 96 % 1028,5 hPa 0,0 l/m 16,5 km/h (3 Bft) O 96 0 min 0,000 mm 0,0 UV-I 0 W/m -1,4 C -8,8 C 20,9 km/h (4 Bft) 98,00 %
_ Min-Zeit 23:40 13:54 16:14 - 00:00 - - - - - - 23:40 08:58 00:00 11:38
Minimum _ -0,8 C 93 % 1027,6 hPa - 0,0 km/h (0 Bft) - - - - - - -1,4 C -11,8 C 0,0 km/h (0 Bft) 92,31 %
_ Max-Zeit 14:04 00:00 00:00 12:46 18:22 - - 13:16 14:02 00:00 13:48 13:48 13:14 08:00 00:00
Maximum _ 1,4 C 98 % 1031,9 hPa 0,2 l/m 26,2 km/h
O-NO (4 Bft)
- - 2 min 0,076 mm 0,0 UV-I 251 W/m 0,4 C 0,7 C 35,4 km/h
O-NO (5 Bft)
100,00 %
Durchschnitt _ 0,2 C 97 % 1029,4 hPa #2,4 l/m 12,9 km/h (3 Bft) O-NO - #1:38 h #0,279 mm 0,0 UV-I 77 W/m -0,3 C -5,2 C 18,2 km/h (3 Bft) 98,62 %